<?xml version="1.0" encoding="UTF-8" standalone="no" ?>
<gpx xmlns="http://www.topografix.com/GPX/1/1" creator="www.cicloide.com" version="1.1" xmlns:xsi="http://www.w3.org/2001/XMLSchema-instance" xsi:schemaLocation="http://www.topografix.com/GPX/1/1 http://www.topografix.com/GPX/1/1/gpx.xsd">
  <trk>
    <name>www.cicloide.com 17677</name>
    <desc>www.cicloide.com 17677</desc>
    <trkseg>
      <trkpt lat="41.605751669" lon="2.540299647">
        <ele>117.90</ele>
        <time>2014-04-06T09:21:38Z</time>
      </trkpt>
      <trkpt lat="41.605729625" lon="2.540294115">
        <ele>117.90</ele>
        <time>2014-04-06T09:22:02Z</time>
      </trkpt>
      <trkpt lat="41.605752424" lon="2.540309202">
        <ele>117.90</ele>
        <time>2014-04-06T09:22:11Z</time>
      </trkpt>
      <trkpt lat="41.605751837" lon="2.540332001">
        <ele>117.90</ele>
        <time>2014-04-06T09:22:15Z</time>
      </trkpt>
      <trkpt lat="41.605855102" lon="2.540371144">
        <ele>117.90</ele>
        <time>2014-04-06T09:22:22Z</time>
      </trkpt>
      <trkpt lat="41.605877230" lon="2.540370222">
        <ele>117.90</ele>
        <time>2014-04-06T09:22:23Z</time>
      </trkpt>
      <trkpt lat="41.606091723" lon="2.540361421">
        <ele>117.90</ele>
        <time>2014-04-06T09:22:29Z</time>
      </trkpt>
      <trkpt lat="41.606283333" lon="2.540442893">
        <ele>117.90</ele>
        <time>2014-04-06T09:22:36Z</time>
      </trkpt>
      <trkpt lat="41.606510818" lon="2.540564599">
        <ele>117.90</ele>
        <time>2014-04-06T09:22:45Z</time>
      </trkpt>
      <trkpt lat="41.606701171" lon="2.540651687">
        <ele>119.34</ele>
        <time>2014-04-06T09:22:53Z</time>
      </trkpt>
      <trkpt lat="41.606870402" lon="2.540713377">
        <ele>119.82</ele>
        <time>2014-04-06T09:23:00Z</time>
      </trkpt>
      <trkpt lat="41.607132755" lon="2.540793592">
        <ele>120.78</ele>
        <time>2014-04-06T09:23:10Z</time>
      </trkpt>
      <trkpt lat="41.607370382" lon="2.540824019">
        <ele>120.78</ele>
        <time>2014-04-06T09:23:19Z</time>
      </trkpt>
      <trkpt lat="41.607627288" lon="2.540840196">
        <ele>121.74</ele>
        <time>2014-04-06T09:23:29Z</time>
      </trkpt>
      <trkpt lat="41.607800877" lon="2.540813038">
        <ele>122.71</ele>
        <time>2014-04-06T09:23:36Z</time>
      </trkpt>
      <trkpt lat="41.608025093" lon="2.540787222">
        <ele>123.19</ele>
        <time>2014-04-06T09:23:45Z</time>
      </trkpt>
      <trkpt lat="41.608211925" lon="2.540760484">
        <ele>123.67</ele>
        <time>2014-04-06T09:23:53Z</time>
      </trkpt>
      <trkpt lat="41.608371098" lon="2.540753359">
        <ele>124.15</ele>
        <time>2014-04-06T09:23:59Z</time>
      </trkpt>
      <trkpt lat="41.608570587" lon="2.540717485">
        <ele>125.11</ele>
        <time>2014-04-06T09:24:07Z</time>
      </trkpt>
      <trkpt lat="41.608760437" lon="2.540688399">
        <ele>125.59</ele>
        <time>2014-04-06T09:24:14Z</time>
      </trkpt>
      <trkpt lat="41.608975182" lon="2.540663337">
        <ele>126.55</ele>
        <time>2014-04-06T09:24:22Z</time>
      </trkpt>
      <trkpt lat="41.609169558" lon="2.540618997">
        <ele>126.55</ele>
        <time>2014-04-06T09:24:30Z</time>
      </trkpt>
      <trkpt lat="41.609386901" lon="2.540577842">
        <ele>127.03</ele>
        <time>2014-04-06T09:24:38Z</time>
      </trkpt>
      <trkpt lat="41.609592593" lon="2.540550014">
        <ele>127.51</ele>
        <time>2014-04-06T09:24:46Z</time>
      </trkpt>
      <trkpt lat="41.609793004" lon="2.540498633">
        <ele>128.47</ele>
        <time>2014-04-06T09:24:54Z</time>
      </trkpt>
      <trkpt lat="41.610003725" lon="2.540418418">
        <ele>129.43</ele>
        <time>2014-04-06T09:25:03Z</time>
      </trkpt>
      <trkpt lat="41.610175051" lon="2.540334180">
        <ele>129.92</ele>
        <time>2014-04-06T09:25:10Z</time>
      </trkpt>
      <trkpt lat="41.610379402" lon="2.540216833">
        <ele>130.88</ele>
        <time>2014-04-06T09:25:18Z</time>
      </trkpt>
      <trkpt lat="41.610554248" lon="2.540124633">
        <ele>131.36</ele>
        <time>2014-04-06T09:25:25Z</time>
      </trkpt>
      <trkpt lat="41.610757509" lon="2.540020948">
        <ele>131.84</ele>
        <time>2014-04-06T09:25:33Z</time>
      </trkpt>
      <trkpt lat="41.610945851" lon="2.539910894">
        <ele>132.32</ele>
        <time>2014-04-06T09:25:41Z</time>
      </trkpt>
      <trkpt lat="41.611118434" lon="2.539834619">
        <ele>133.28</ele>
        <time>2014-04-06T09:25:48Z</time>
      </trkpt>
      <trkpt lat="41.611315157" lon="2.539733533">
        <ele>133.76</ele>
        <time>2014-04-06T09:25:56Z</time>
      </trkpt>
      <trkpt lat="41.611522023" lon="2.539596405">
        <ele>134.72</ele>
        <time>2014-04-06T09:26:04Z</time>
      </trkpt>
      <trkpt lat="41.611681866" lon="2.539430359">
        <ele>135.20</ele>
        <time>2014-04-06T09:26:12Z</time>
      </trkpt>
      <trkpt lat="41.611810193" lon="2.539268337">
        <ele>135.20</ele>
        <time>2014-04-06T09:26:19Z</time>
      </trkpt>
      <trkpt lat="41.611978501" lon="2.539050659">
        <ele>136.64</ele>
        <time>2014-04-06T09:26:29Z</time>
      </trkpt>
      <trkpt lat="41.612070870" lon="2.538912023">
        <ele>137.13</ele>
        <time>2014-04-06T09:26:35Z</time>
      </trkpt>
      <trkpt lat="41.612209758" lon="2.538587140">
        <ele>138.57</ele>
        <time>2014-04-06T09:26:46Z</time>
      </trkpt>
      <trkpt lat="41.612347221" lon="2.538421681">
        <ele>139.05</ele>
        <time>2014-04-06T09:26:54Z</time>
      </trkpt>
      <trkpt lat="41.612494743" lon="2.538336102">
        <ele>139.53</ele>
        <time>2014-04-06T09:27:02Z</time>
      </trkpt>
      <trkpt lat="41.612513183" lon="2.538330402">
        <ele>139.53</ele>
        <time>2014-04-06T09:27:03Z</time>
      </trkpt>
      <trkpt lat="41.612602785" lon="2.538220180">
        <ele>140.01</ele>
        <time>2014-04-06T09:27:12Z</time>
      </trkpt>
      <trkpt lat="41.612646204" lon="2.538175086">
        <ele>140.01</ele>
        <time>2014-04-06T09:27:16Z</time>
      </trkpt>
      <trkpt lat="41.612680402" lon="2.538145330">
        <ele>140.49</ele>
        <time>2014-04-06T09:27:19Z</time>
      </trkpt>
      <trkpt lat="41.612807304" lon="2.538042316">
        <ele>140.97</ele>
        <time>2014-04-06T09:27:29Z</time>
      </trkpt>
      <trkpt lat="41.612908390" lon="2.537952965">
        <ele>140.97</ele>
        <time>2014-04-06T09:27:37Z</time>
      </trkpt>
      <trkpt lat="41.613011822" lon="2.537826650">
        <ele>141.45</ele>
        <time>2014-04-06T09:27:46Z</time>
      </trkpt>
      <trkpt lat="41.613063958" lon="2.537750961">
        <ele>141.93</ele>
        <time>2014-04-06T09:27:51Z</time>
      </trkpt>
      <trkpt lat="41.613148447" lon="2.537629089">
        <ele>142.41</ele>
        <time>2014-04-06T09:27:59Z</time>
      </trkpt>
      <trkpt lat="41.613258921" lon="2.537473939">
        <ele>142.89</ele>
        <time>2014-04-06T09:28:09Z</time>
      </trkpt>
      <trkpt lat="41.613337459" lon="2.537312672">
        <ele>142.89</ele>
        <time>2014-04-06T09:28:15Z</time>
      </trkpt>
      <trkpt lat="41.613469139" lon="2.537124163">
        <ele>143.37</ele>
        <time>2014-04-06T09:28:23Z</time>
      </trkpt>
      <trkpt lat="41.613616744" lon="2.536916878">
        <ele>144.34</ele>
        <time>2014-04-06T09:28:32Z</time>
      </trkpt>
      <trkpt lat="41.613660414" lon="2.536830712">
        <ele>144.34</ele>
        <time>2014-04-06T09:28:35Z</time>
      </trkpt>
      <trkpt lat="41.613557987" lon="2.536727196">
        <ele>145.30</ele>
        <time>2014-04-06T09:28:42Z</time>
      </trkpt>
      <trkpt lat="41.613621941" lon="2.536527204">
        <ele>145.30</ele>
        <time>2014-04-06T09:28:49Z</time>
      </trkpt>
      <trkpt lat="41.613655050" lon="2.536476325">
        <ele>145.30</ele>
        <time>2014-04-06T09:28:51Z</time>
      </trkpt>
      <trkpt lat="41.613782287" lon="2.536184216">
        <ele>146.26</ele>
        <time>2014-04-06T09:29:01Z</time>
      </trkpt>
      <trkpt lat="41.613849677" lon="2.535986571">
        <ele>146.74</ele>
        <time>2014-04-06T09:29:08Z</time>
      </trkpt>
      <trkpt lat="41.613978172" lon="2.535579294">
        <ele>148.18</ele>
        <time>2014-04-06T09:29:20Z</time>
      </trkpt>
      <trkpt lat="41.614046065" lon="2.535369160">
        <ele>149.14</ele>
        <time>2014-04-06T09:29:27Z</time>
      </trkpt>
      <trkpt lat="41.614125274" lon="2.535142597">
        <ele>150.10</ele>
        <time>2014-04-06T09:29:35Z</time>
      </trkpt>
      <trkpt lat="41.614211273" lon="2.534865072">
        <ele>151.06</ele>
        <time>2014-04-06T09:29:44Z</time>
      </trkpt>
      <trkpt lat="41.614277825" lon="2.534620907">
        <ele>152.03</ele>
        <time>2014-04-06T09:29:52Z</time>
      </trkpt>
      <trkpt lat="41.614315208" lon="2.534560306">
        <ele>152.51</ele>
        <time>2014-04-06T09:29:58Z</time>
      </trkpt>
      <trkpt lat="41.614332307" lon="2.534519822">
        <ele>152.51</ele>
        <time>2014-04-06T09:30:03Z</time>
      </trkpt>
      <trkpt lat="41.614325434" lon="2.534484785">
        <ele>152.51</ele>
        <time>2014-04-06T09:30:13Z</time>
      </trkpt>
      <trkpt lat="41.614303390" lon="2.534487300">
        <ele>152.51</ele>
        <time>2014-04-06T09:30:31Z</time>
      </trkpt>
      <trkpt lat="41.614305066" lon="2.534487048">
        <ele>152.51</ele>
        <time>2014-04-06T09:30:49Z</time>
      </trkpt>
      <trkpt lat="41.614305234" lon="2.534476403">
        <ele>152.51</ele>
        <time>2014-04-06T09:31:01Z</time>
      </trkpt>
      <trkpt lat="41.614311185" lon="2.534489563">
        <ele>152.99</ele>
        <time>2014-04-06T09:31:25Z</time>
      </trkpt>
      <trkpt lat="41.614308419" lon="2.534454694">
        <ele>152.99</ele>
        <time>2014-04-06T09:31:44Z</time>
      </trkpt>
      <trkpt lat="41.614315041" lon="2.534500292">
        <ele>152.99</ele>
        <time>2014-04-06T09:31:59Z</time>
      </trkpt>
      <trkpt lat="41.614317639" lon="2.534460981">
        <ele>152.99</ele>
        <time>2014-04-06T09:32:24Z</time>
      </trkpt>
      <trkpt lat="41.614301881" lon="2.534416892">
        <ele>152.99</ele>
        <time>2014-04-06T09:32:38Z</time>
      </trkpt>
      <trkpt lat="41.614336414" lon="2.534272639">
        <ele>153.95</ele>
        <time>2014-04-06T09:32:45Z</time>
      </trkpt>
      <trkpt lat="41.614346640" lon="2.534210445">
        <ele>153.95</ele>
        <time>2014-04-06T09:32:47Z</time>
      </trkpt>
      <trkpt lat="41.614450492" lon="2.533929065">
        <ele>154.91</ele>
        <time>2014-04-06T09:32:57Z</time>
      </trkpt>
      <trkpt lat="41.614526935" lon="2.533696467">
        <ele>155.87</ele>
        <time>2014-04-06T09:33:04Z</time>
      </trkpt>
      <trkpt lat="41.614627853" lon="2.533389354">
        <ele>156.83</ele>
        <time>2014-04-06T09:33:13Z</time>
      </trkpt>
      <trkpt lat="41.614698429" lon="2.533178466">
        <ele>157.31</ele>
        <time>2014-04-06T09:33:19Z</time>
      </trkpt>
      <trkpt lat="41.614793647" lon="2.532820642">
        <ele>158.27</ele>
        <time>2014-04-06T09:33:29Z</time>
      </trkpt>
      <trkpt lat="41.614893727" lon="2.532495843">
        <ele>158.75</ele>
        <time>2014-04-06T09:33:39Z</time>
      </trkpt>
      <trkpt lat="41.614975451" lon="2.532181773">
        <ele>159.72</ele>
        <time>2014-04-06T09:33:48Z</time>
      </trkpt>
      <trkpt lat="41.615014678" lon="2.531907015">
        <ele>160.68</ele>
        <time>2014-04-06T09:33:56Z</time>
      </trkpt>
      <trkpt lat="41.615038147" lon="2.531489344">
        <ele>162.12</ele>
        <time>2014-04-06T09:34:07Z</time>
      </trkpt>
      <trkpt lat="41.615054241" lon="2.531082068">
        <ele>162.60</ele>
        <time>2014-04-06T09:34:18Z</time>
      </trkpt>
      <trkpt lat="41.615107801" lon="2.530668840">
        <ele>164.52</ele>
        <time>2014-04-06T09:34:29Z</time>
      </trkpt>
      <trkpt lat="41.615123224" lon="2.530238513">
        <ele>165.48</ele>
        <time>2014-04-06T09:34:40Z</time>
      </trkpt>
      <trkpt lat="41.615129594" lon="2.529884713">
        <ele>166.93</ele>
        <time>2014-04-06T09:34:49Z</time>
      </trkpt>
      <trkpt lat="41.615149962" lon="2.529622024">
        <ele>167.41</ele>
        <time>2014-04-06T09:34:56Z</time>
      </trkpt>
      <trkpt lat="41.615143592" lon="2.529275684">
        <ele>168.37</ele>
        <time>2014-04-06T09:35:05Z</time>
      </trkpt>
      <trkpt lat="41.615169408" lon="2.528953316">
        <ele>169.33</ele>
        <time>2014-04-06T09:35:14Z</time>
      </trkpt>
      <trkpt lat="41.615234284" lon="2.528577304">
        <ele>169.81</ele>
        <time>2014-04-06T09:35:24Z</time>
      </trkpt>
      <trkpt lat="41.615305279" lon="2.528232304">
        <ele>170.77</ele>
        <time>2014-04-06T09:35:34Z</time>
      </trkpt>
      <trkpt lat="41.615376106" lon="2.527819412">
        <ele>171.73</ele>
        <time>2014-04-06T09:35:46Z</time>
      </trkpt>
      <trkpt lat="41.615453554" lon="2.527480280">
        <ele>173.17</ele>
        <time>2014-04-06T09:35:56Z</time>
      </trkpt>
      <trkpt lat="41.615503259" lon="2.527187333">
        <ele>174.62</ele>
        <time>2014-04-06T09:36:05Z</time>
      </trkpt>
      <trkpt lat="41.615531506" lon="2.526954400">
        <ele>175.58</ele>
        <time>2014-04-06T09:36:12Z</time>
      </trkpt>
      <trkpt lat="41.615550533" lon="2.526772512">
        <ele>176.54</ele>
        <time>2014-04-06T09:36:18Z</time>
      </trkpt>
      <trkpt lat="41.615521448" lon="2.526528347">
        <ele>177.50</ele>
        <time>2014-04-06T09:36:26Z</time>
      </trkpt>
      <trkpt lat="41.615460260" lon="2.526224084">
        <ele>178.94</ele>
        <time>2014-04-06T09:36:34Z</time>
      </trkpt>
      <trkpt lat="41.615441065" lon="2.525904818">
        <ele>179.42</ele>
        <time>2014-04-06T09:36:43Z</time>
      </trkpt>
      <trkpt lat="41.615444083" lon="2.525651181">
        <ele>179.90</ele>
        <time>2014-04-06T09:36:51Z</time>
      </trkpt>
      <trkpt lat="41.615442909" lon="2.525414560">
        <ele>180.87</ele>
        <time>2014-04-06T09:36:57Z</time>
      </trkpt>
      <trkpt lat="41.615459087" lon="2.525140556">
        <ele>181.35</ele>
        <time>2014-04-06T09:37:04Z</time>
      </trkpt>
      <trkpt lat="41.615474593" lon="2.524872838">
        <ele>182.79</ele>
        <time>2014-04-06T09:37:12Z</time>
      </trkpt>
      <trkpt lat="41.615511054" lon="2.524543848">
        <ele>183.75</ele>
        <time>2014-04-06T09:37:21Z</time>
      </trkpt>
      <trkpt lat="41.615524968" lon="2.524318291">
        <ele>185.19</ele>
        <time>2014-04-06T09:37:27Z</time>
      </trkpt>
      <trkpt lat="41.615525136" lon="2.524020901">
        <ele>186.15</ele>
        <time>2014-04-06T09:37:36Z</time>
      </trkpt>
      <trkpt lat="41.615543408" lon="2.523777658">
        <ele>187.11</ele>
        <time>2014-04-06T09:37:43Z</time>
      </trkpt>
      <trkpt lat="41.615539720" lon="2.523479514">
        <ele>188.08</ele>
        <time>2014-04-06T09:37:51Z</time>
      </trkpt>
      <trkpt lat="41.615544833" lon="2.523149854">
        <ele>189.52</ele>
        <time>2014-04-06T09:38:00Z</time>
      </trkpt>
      <trkpt lat="41.615553551" lon="2.522909042">
        <ele>190.00</ele>
        <time>2014-04-06T09:38:07Z</time>
      </trkpt>
      <trkpt lat="41.615577607" lon="2.522594217">
        <ele>190.96</ele>
        <time>2014-04-06T09:38:16Z</time>
      </trkpt>
      <trkpt lat="41.615629072" lon="2.522310741">
        <ele>191.92</ele>
        <time>2014-04-06T09:38:23Z</time>
      </trkpt>
      <trkpt lat="41.615659665" lon="2.522031540">
        <ele>193.36</ele>
        <time>2014-04-06T09:38:31Z</time>
      </trkpt>
      <trkpt lat="41.615649440" lon="2.521859124">
        <ele>193.84</ele>
        <time>2014-04-06T09:38:37Z</time>
      </trkpt>
      <trkpt lat="41.615661761" lon="2.521714704">
        <ele>193.84</ele>
        <time>2014-04-06T09:38:41Z</time>
      </trkpt>
      <trkpt lat="41.615676345" lon="2.521442544">
        <ele>194.32</ele>
        <time>2014-04-06T09:38:49Z</time>
      </trkpt>
      <trkpt lat="41.615675759" lon="2.521221765">
        <ele>194.32</ele>
        <time>2014-04-06T09:38:56Z</time>
      </trkpt>
      <trkpt lat="41.615672741" lon="2.520971397">
        <ele>194.80</ele>
        <time>2014-04-06T09:39:04Z</time>
      </trkpt>
      <trkpt lat="41.615669808" lon="2.520764113">
        <ele>195.28</ele>
        <time>2014-04-06T09:39:11Z</time>
      </trkpt>
      <trkpt lat="41.615750693" lon="2.520545932">
        <ele>195.28</ele>
        <time>2014-04-06T09:39:18Z</time>
      </trkpt>
      <trkpt lat="41.615864771" lon="2.520324482">
        <ele>196.25</ele>
        <time>2014-04-06T09:39:25Z</time>
      </trkpt>
      <trkpt lat="41.615961833" lon="2.520192383">
        <ele>196.25</ele>
        <time>2014-04-06T09:39:29Z</time>
      </trkpt>
      <trkpt lat="41.616041796" lon="2.520110827">
        <ele>196.25</ele>
        <time>2014-04-06T09:39:31Z</time>
      </trkpt>
      <trkpt lat="41.616181523" lon="2.520008065">
        <ele>194.32</ele>
        <time>2014-04-06T09:39:34Z</time>
      </trkpt>
      <trkpt lat="41.616366428" lon="2.519910416">
        <ele>194.32</ele>
        <time>2014-04-06T09:39:40Z</time>
      </trkpt>
      <trkpt lat="41.616568683" lon="2.519795332">
        <ele>195.77</ele>
        <time>2014-04-06T09:39:48Z</time>
      </trkpt>
      <trkpt lat="41.616815446" lon="2.519713273">
        <ele>197.21</ele>
        <time>2014-04-06T09:39:57Z</time>
      </trkpt>
      <trkpt lat="41.617007308" lon="2.519677147">
        <ele>197.69</ele>
        <time>2014-04-06T09:40:04Z</time>
      </trkpt>
      <trkpt lat="41.617217861" lon="2.519643536">
        <ele>198.17</ele>
        <time>2014-04-06T09:40:11Z</time>
      </trkpt>
      <trkpt lat="41.617429756" lon="2.519620234">
        <ele>199.13</ele>
        <time>2014-04-06T09:40:19Z</time>
      </trkpt>
      <trkpt lat="41.617645003" lon="2.519592323">
        <ele>200.09</ele>
        <time>2014-04-06T09:40:27Z</time>
      </trkpt>
      <trkpt lat="41.617698647" lon="2.519600202">
        <ele>200.09</ele>
        <time>2014-04-06T09:40:32Z</time>
      </trkpt>
      <trkpt lat="41.617760170" lon="2.519629706">
        <ele>201.05</ele>
        <time>2014-04-06T09:40:41Z</time>
      </trkpt>
      <trkpt lat="41.617780958" lon="2.519645883">
        <ele>201.53</ele>
        <time>2014-04-06T09:40:48Z</time>
      </trkpt>
      <trkpt lat="41.617792608" lon="2.519674800">
        <ele>201.53</ele>
        <time>2014-04-06T09:40:57Z</time>
      </trkpt>
      <trkpt lat="41.617883887" lon="2.519813605">
        <ele>202.01</ele>
        <time>2014-04-06T09:41:06Z</time>
      </trkpt>
      <trkpt lat="41.617881457" lon="2.519909494">
        <ele>202.98</ele>
        <time>2014-04-06T09:41:11Z</time>
      </trkpt>
      <trkpt lat="41.617875002" lon="2.519969760">
        <ele>202.98</ele>
        <time>2014-04-06T09:41:14Z</time>
      </trkpt>
      <trkpt lat="41.617817419" lon="2.520049052">
        <ele>204.42</ele>
        <time>2014-04-06T09:41:20Z</time>
      </trkpt>
      <trkpt lat="41.617713148" lon="2.520157682">
        <ele>206.34</ele>
        <time>2014-04-06T09:41:29Z</time>
      </trkpt>
      <trkpt lat="41.617698312" lon="2.520343844">
        <ele>208.26</ele>
        <time>2014-04-06T09:41:38Z</time>
      </trkpt>
      <trkpt lat="41.617692109" lon="2.520458257">
        <ele>208.74</ele>
        <time>2014-04-06T09:41:43Z</time>
      </trkpt>
      <trkpt lat="41.617672328" lon="2.520548614">
        <ele>209.22</ele>
        <time>2014-04-06T09:41:47Z</time>
      </trkpt>
      <trkpt lat="41.617675513" lon="2.520776434">
        <ele>209.70</ele>
        <time>2014-04-06T09:41:56Z</time>
      </trkpt>
      <trkpt lat="41.617738713" lon="2.521074411">
        <ele>211.15</ele>
        <time>2014-04-06T09:42:08Z</time>
      </trkpt>
      <trkpt lat="41.617794788" lon="2.521256717">
        <ele>211.63</ele>
        <time>2014-04-06T09:42:16Z</time>
      </trkpt>
      <trkpt lat="41.617844325" lon="2.521456961">
        <ele>213.07</ele>
        <time>2014-04-06T09:42:25Z</time>
      </trkpt>
      <trkpt lat="41.617883301" lon="2.521605907">
        <ele>214.51</ele>
        <time>2014-04-06T09:42:32Z</time>
      </trkpt>
      <trkpt lat="41.617890174" lon="2.521625102">
        <ele>214.51</ele>
        <time>2014-04-06T09:42:33Z</time>
      </trkpt>
      <trkpt lat="41.617950859" lon="2.521609008">
        <ele>214.99</ele>
        <time>2014-04-06T09:42:39Z</time>
      </trkpt>
      <trkpt lat="41.617976424" lon="2.521506582">
        <ele>216.91</ele>
        <time>2014-04-06T09:42:46Z</time>
      </trkpt>
      <trkpt lat="41.618002659" lon="2.521431228">
        <ele>217.40</ele>
        <time>2014-04-06T09:42:51Z</time>
      </trkpt>
      <trkpt lat="41.618085807" lon="2.521298040">
        <ele>219.80</ele>
        <time>2014-04-06T09:43:01Z</time>
      </trkpt>
      <trkpt lat="41.618162669" lon="2.521162588">
        <ele>221.24</ele>
        <time>2014-04-06T09:43:10Z</time>
      </trkpt>
      <trkpt lat="41.618211955" lon="2.521032333">
        <ele>222.68</ele>
        <time>2014-04-06T09:43:19Z</time>
      </trkpt>
      <trkpt lat="41.618257972" lon="2.520869389">
        <ele>225.09</ele>
        <time>2014-04-06T09:43:29Z</time>
      </trkpt>
      <trkpt lat="41.618310107" lon="2.520696974">
        <ele>226.53</ele>
        <time>2014-04-06T09:43:39Z</time>
      </trkpt>
      <trkpt lat="41.618406248" lon="2.520602174">
        <ele>227.97</ele>
        <time>2014-04-06T09:43:48Z</time>
      </trkpt>
      <trkpt lat="41.618443631" lon="2.520570407">
        <ele>228.45</ele>
        <time>2014-04-06T09:43:55Z</time>
      </trkpt>
      <trkpt lat="41.618438350" lon="2.520538472">
        <ele>228.45</ele>
        <time>2014-04-06T09:44:14Z</time>
      </trkpt>
      <trkpt lat="41.618451677" lon="2.520536292">
        <ele>228.45</ele>
        <time>2014-04-06T09:44:32Z</time>
      </trkpt>
      <trkpt lat="41.618467938" lon="2.520549704">
        <ele>228.45</ele>
        <time>2014-04-06T09:44:51Z</time>
      </trkpt>
      <trkpt lat="41.618498281" lon="2.520553727">
        <ele>228.45</ele>
        <time>2014-04-06T09:45:01Z</time>
      </trkpt>
      <trkpt lat="41.618613197" lon="2.520555990">
        <ele>229.89</ele>
        <time>2014-04-06T09:45:11Z</time>
      </trkpt>
      <trkpt lat="41.618737836" lon="2.520525396">
        <ele>231.33</ele>
        <time>2014-04-06T09:45:20Z</time>
      </trkpt>
      <trkpt lat="41.618825594" lon="2.520490863">
        <ele>233.26</ele>
        <time>2014-04-06T09:45:27Z</time>
      </trkpt>
      <trkpt lat="41.618872114" lon="2.520455072">
        <ele>233.74</ele>
        <time>2014-04-06T09:45:31Z</time>
      </trkpt>
      <trkpt lat="41.618957358" lon="2.520413246">
        <ele>234.70</ele>
        <time>2014-04-06T09:45:38Z</time>
      </trkpt>
      <trkpt lat="41.619103538" lon="2.520342503">
        <ele>237.10</ele>
        <time>2014-04-06T09:45:49Z</time>
      </trkpt>
      <trkpt lat="41.619157266" lon="2.520304784">
        <ele>237.58</ele>
        <time>2014-04-06T09:45:53Z</time>
      </trkpt>
      <trkpt lat="41.619298753" lon="2.520277375">
        <ele>239.51</ele>
        <time>2014-04-06T09:46:03Z</time>
      </trkpt>
      <trkpt lat="41.619399335" lon="2.520299588">
        <ele>240.95</ele>
        <time>2014-04-06T09:46:11Z</time>
      </trkpt>
      <trkpt lat="41.619509725" lon="2.520321800">
        <ele>243.35</ele>
        <time>2014-04-06T09:46:20Z</time>
      </trkpt>
      <trkpt lat="41.619595556" lon="2.520312747">
        <ele>244.31</ele>
        <time>2014-04-06T09:46:27Z</time>
      </trkpt>
      <trkpt lat="41.619633777" lon="2.520290870">
        <ele>244.79</ele>
        <time>2014-04-06T09:46:30Z</time>
      </trkpt>
      <trkpt lat="41.619662611" lon="2.520289697">
        <ele>245.27</ele>
        <time>2014-04-06T09:46:32Z</time>
      </trkpt>
      <trkpt lat="41.619792111" lon="2.520238148">
        <ele>248.16</ele>
        <time>2014-04-06T09:46:43Z</time>
      </trkpt>
      <trkpt lat="41.619828489" lon="2.520212835">
        <ele>248.64</ele>
        <time>2014-04-06T09:46:46Z</time>
      </trkpt>
      <trkpt lat="41.619958157" lon="2.520135554">
        <ele>250.56</ele>
        <time>2014-04-06T09:46:56Z</time>
      </trkpt>
      <trkpt lat="41.620055052" lon="2.520105295">
        <ele>252.00</ele>
        <time>2014-04-06T09:47:04Z</time>
      </trkpt>
      <trkpt lat="41.620162592" lon="2.520101942">
        <ele>253.44</ele>
        <time>2014-04-06T09:47:13Z</time>
      </trkpt>
      <trkpt lat="41.620270467" lon="2.520119712">
        <ele>254.41</ele>
        <time>2014-04-06T09:47:22Z</time>
      </trkpt>
      <trkpt lat="41.620393848" lon="2.520145277">
        <ele>255.85</ele>
        <time>2014-04-06T09:47:32Z</time>
      </trkpt>
      <trkpt lat="41.620527959" lon="2.520160867">
        <ele>257.29</ele>
        <time>2014-04-06T09:47:42Z</time>
      </trkpt>
      <trkpt lat="41.620631475" lon="2.520174027">
        <ele>258.25</ele>
        <time>2014-04-06T09:47:50Z</time>
      </trkpt>
      <trkpt lat="41.620737590" lon="2.520185426">
        <ele>260.17</ele>
        <time>2014-04-06T09:47:58Z</time>
      </trkpt>
      <trkpt lat="41.620863905" lon="2.520203279">
        <ele>261.14</ele>
        <time>2014-04-06T09:48:08Z</time>
      </trkpt>
      <trkpt lat="41.620963650" lon="2.520227922">
        <ele>263.06</ele>
        <time>2014-04-06T09:48:16Z</time>
      </trkpt>
      <trkpt lat="41.621124247" lon="2.520263042">
        <ele>264.50</ele>
        <time>2014-04-06T09:48:28Z</time>
      </trkpt>
      <trkpt lat="41.621180909" lon="2.520259354">
        <ele>264.98</ele>
        <time>2014-04-06T09:48:32Z</time>
      </trkpt>
      <trkpt lat="41.621297920" lon="2.520263797">
        <ele>266.90</ele>
        <time>2014-04-06T09:48:42Z</time>
      </trkpt>
      <trkpt lat="41.621427505" lon="2.520293804">
        <ele>268.83</ele>
        <time>2014-04-06T09:48:52Z</time>
      </trkpt>
      <trkpt lat="41.621541331" lon="2.520325739">
        <ele>270.27</ele>
        <time>2014-04-06T09:49:01Z</time>
      </trkpt>
      <trkpt lat="41.621660438" lon="2.520353232">
        <ele>272.67</ele>
        <time>2014-04-06T09:49:11Z</time>
      </trkpt>
      <trkpt lat="41.621767223" lon="2.520386173">
        <ele>275.07</ele>
        <time>2014-04-06T09:49:21Z</time>
      </trkpt>
      <trkpt lat="41.621835452" lon="2.520403942">
        <ele>276.04</ele>
        <time>2014-04-06T09:49:28Z</time>
      </trkpt>
      <trkpt lat="41.621924803" lon="2.520419616">
        <ele>278.44</ele>
        <time>2014-04-06T09:49:37Z</time>
      </trkpt>
      <trkpt lat="41.622030331" lon="2.520388184">
        <ele>279.88</ele>
        <time>2014-04-06T09:49:46Z</time>
      </trkpt>
      <trkpt lat="41.622111635" lon="2.520342084">
        <ele>281.32</ele>
        <time>2014-04-06T09:49:54Z</time>
      </trkpt>
      <trkpt lat="41.622133596" lon="2.520337474">
        <ele>281.80</ele>
        <time>2014-04-06T09:49:56Z</time>
      </trkpt>
      <trkpt lat="41.622168549" lon="2.520331858">
        <ele>282.28</ele>
        <time>2014-04-06T09:49:59Z</time>
      </trkpt>
      <trkpt lat="41.622287320" lon="2.520329846">
        <ele>283.73</ele>
        <time>2014-04-06T09:50:09Z</time>
      </trkpt>
      <trkpt lat="41.622394441" lon="2.520347532">
        <ele>284.69</ele>
        <time>2014-04-06T09:50:18Z</time>
      </trkpt>
      <trkpt lat="41.622404667" lon="2.520357842">
        <ele>284.69</ele>
        <time>2014-04-06T09:50:19Z</time>
      </trkpt>
      <trkpt lat="41.622434925" lon="2.520452138">
        <ele>285.65</ele>
        <time>2014-04-06T09:50:26Z</time>
      </trkpt>
      <trkpt lat="41.622398129" lon="2.520480469">
        <ele>286.13</ele>
        <time>2014-04-06T09:50:30Z</time>
      </trkpt>
      <trkpt lat="41.622358818" lon="2.520489857">
        <ele>286.61</ele>
        <time>2014-04-06T09:50:34Z</time>
      </trkpt>
      <trkpt lat="41.622271143" lon="2.520547692">
        <ele>288.05</ele>
        <time>2014-04-06T09:50:43Z</time>
      </trkpt>
      <trkpt lat="41.622183301" lon="2.520623045">
        <ele>289.49</ele>
        <time>2014-04-06T09:50:53Z</time>
      </trkpt>
      <trkpt lat="41.622113647" lon="2.520690184">
        <ele>290.46</ele>
        <time>2014-04-06T09:51:02Z</time>
      </trkpt>
      <trkpt lat="41.622017590" lon="2.520761598">
        <ele>292.38</ele>
        <time>2014-04-06T09:51:12Z</time>
      </trkpt>
      <trkpt lat="41.621940896" lon="2.520833431">
        <ele>293.34</ele>
        <time>2014-04-06T09:51:21Z</time>
      </trkpt>
      <trkpt lat="41.621845929" lon="2.520902917">
        <ele>294.78</ele>
        <time>2014-04-06T09:51:30Z</time>
      </trkpt>
      <trkpt lat="41.621764708" lon="2.520982042">
        <ele>295.26</ele>
        <time>2014-04-06T09:51:38Z</time>
      </trkpt>
      <trkpt lat="41.621755405" lon="2.520992184">
        <ele>295.26</ele>
        <time>2014-04-06T09:51:39Z</time>
      </trkpt>
      <trkpt lat="41.621689439" lon="2.521017162">
        <ele>295.74</ele>
        <time>2014-04-06T09:51:44Z</time>
      </trkpt>
      <trkpt lat="41.621624898" lon="2.521012133">
        <ele>296.22</ele>
        <time>2014-04-06T09:51:48Z</time>
      </trkpt>
      <trkpt lat="41.621466313" lon="2.520954130">
        <ele>297.18</ele>
        <time>2014-04-06T09:51:59Z</time>
      </trkpt>
      <trkpt lat="41.621316528" lon="2.520955471">
        <ele>297.18</ele>
        <time>2014-04-06T09:52:08Z</time>
      </trkpt>
      <trkpt lat="41.621194823" lon="2.520994363">
        <ele>297.67</ele>
        <time>2014-04-06T09:52:15Z</time>
      </trkpt>
      <trkpt lat="41.621102706" lon="2.521023784">
        <ele>299.11</ele>
        <time>2014-04-06T09:52:22Z</time>
      </trkpt>
      <trkpt lat="41.621097006" lon="2.521113303">
        <ele>300.07</ele>
        <time>2014-04-06T09:52:29Z</time>
      </trkpt>
      <trkpt lat="41.621106478" lon="2.521118667">
        <ele>300.07</ele>
        <time>2014-04-06T09:52:30Z</time>
      </trkpt>
      <trkpt lat="41.621133467" lon="2.521112381">
        <ele>300.55</ele>
        <time>2014-04-06T09:52:33Z</time>
      </trkpt>
      <trkpt lat="41.621249892" lon="2.521149932">
        <ele>302.47</ele>
        <time>2014-04-06T09:52:44Z</time>
      </trkpt>
      <trkpt lat="41.621324491" lon="2.521218998">
        <ele>303.91</ele>
        <time>2014-04-06T09:52:52Z</time>
      </trkpt>
      <trkpt lat="41.621425828" lon="2.521362329">
        <ele>305.84</ele>
        <time>2014-04-06T09:53:03Z</time>
      </trkpt>
      <trkpt lat="41.621509731" lon="2.521505073">
        <ele>307.28</ele>
        <time>2014-04-06T09:53:14Z</time>
      </trkpt>
      <trkpt lat="41.621578379" lon="2.521613451">
        <ele>308.24</ele>
        <time>2014-04-06T09:53:22Z</time>
      </trkpt>
      <trkpt lat="41.621647027" lon="2.521726439">
        <ele>309.68</ele>
        <time>2014-04-06T09:53:31Z</time>
      </trkpt>
      <trkpt lat="41.621706287" lon="2.521835823">
        <ele>311.12</ele>
        <time>2014-04-06T09:53:40Z</time>
      </trkpt>
      <trkpt lat="41.621737216" lon="2.521925593">
        <ele>312.09</ele>
        <time>2014-04-06T09:53:46Z</time>
      </trkpt>
      <trkpt lat="41.621774851" lon="2.522002874">
        <ele>313.05</ele>
        <time>2014-04-06T09:53:52Z</time>
      </trkpt>
      <trkpt lat="41.621826064" lon="2.522122651">
        <ele>314.01</ele>
        <time>2014-04-06T09:54:00Z</time>
      </trkpt>
      <trkpt lat="41.621869985" lon="2.522243602">
        <ele>315.45</ele>
        <time>2014-04-06T09:54:08Z</time>
      </trkpt>
      <trkpt lat="41.621922204" lon="2.522257684">
        <ele>316.41</ele>
        <time>2014-04-06T09:54:15Z</time>
      </trkpt>
      <trkpt lat="41.621935615" lon="2.522171686">
        <ele>316.89</ele>
        <time>2014-04-06T09:54:21Z</time>
      </trkpt>
      <trkpt lat="41.621945003" lon="2.521995917">
        <ele>318.81</ele>
        <time>2014-04-06T09:54:33Z</time>
      </trkpt>
      <trkpt lat="41.621954559" lon="2.521811264">
        <ele>320.26</ele>
        <time>2014-04-06T09:54:44Z</time>
      </trkpt>
      <trkpt lat="41.621983811" lon="2.521651505">
        <ele>321.70</ele>
        <time>2014-04-06T09:54:54Z</time>
      </trkpt>
      <trkpt lat="41.621987583" lon="2.521635579">
        <ele>321.70</ele>
        <time>2014-04-06T09:54:55Z</time>
      </trkpt>
      <trkpt lat="41.622025469" lon="2.521565590">
        <ele>322.18</ele>
        <time>2014-04-06T09:55:00Z</time>
      </trkpt>
      <trkpt lat="41.622063523" lon="2.521521585">
        <ele>322.66</ele>
        <time>2014-04-06T09:55:04Z</time>
      </trkpt>
      <trkpt lat="41.622137787" lon="2.521475904">
        <ele>324.10</ele>
        <time>2014-04-06T09:55:11Z</time>
      </trkpt>
      <trkpt lat="41.622178607" lon="2.521497278">
        <ele>324.10</ele>
        <time>2014-04-06T09:55:15Z</time>
      </trkpt>
      <trkpt lat="41.622283716" lon="2.521605404">
        <ele>325.06</ele>
        <time>2014-04-06T09:55:25Z</time>
      </trkpt>
      <trkpt lat="41.622378683" lon="2.521683524">
        <ele>326.50</ele>
        <time>2014-04-06T09:55:34Z</time>
      </trkpt>
      <trkpt lat="41.622477003" lon="2.521752004">
        <ele>327.95</ele>
        <time>2014-04-06T09:55:42Z</time>
      </trkpt>
      <trkpt lat="41.622488486" lon="2.521758374">
        <ele>327.95</ele>
        <time>2014-04-06T09:55:43Z</time>
      </trkpt>
      <trkpt lat="41.622591164" lon="2.521825764">
        <ele>329.39</ele>
        <time>2014-04-06T09:55:52Z</time>
      </trkpt>
      <trkpt lat="41.622683533" lon="2.521851329">
        <ele>330.35</ele>
        <time>2014-04-06T09:55:59Z</time>
      </trkpt>
      <trkpt lat="41.622720245" lon="2.521843031">
        <ele>330.83</ele>
        <time>2014-04-06T09:56:02Z</time>
      </trkpt>
      <trkpt lat="41.622875814" lon="2.521814952">
        <ele>331.79</ele>
        <time>2014-04-06T09:56:13Z</time>
      </trkpt>
      <trkpt lat="41.622983940" lon="2.521799361">
        <ele>332.75</ele>
        <time>2014-04-06T09:56:21Z</time>
      </trkpt>
      <trkpt lat="41.623103131" lon="2.521789555">
        <ele>334.20</ele>
        <time>2014-04-06T09:56:30Z</time>
      </trkpt>
      <trkpt lat="41.623115620" lon="2.521792488">
        <ele>334.20</ele>
        <time>2014-04-06T09:56:31Z</time>
      </trkpt>
      <trkpt lat="41.623276217" lon="2.521934645">
        <ele>335.64</ele>
        <time>2014-04-06T09:56:43Z</time>
      </trkpt>
      <trkpt lat="41.623360874" lon="2.522035983">
        <ele>336.12</ele>
        <time>2014-04-06T09:56:51Z</time>
      </trkpt>
      <trkpt lat="41.623462714" lon="2.522144612">
        <ele>336.60</ele>
        <time>2014-04-06T09:56:59Z</time>
      </trkpt>
      <trkpt lat="41.623546533" lon="2.522256091">
        <ele>337.08</ele>
        <time>2014-04-06T09:57:08Z</time>
      </trkpt>
      <trkpt lat="41.623553323" lon="2.522256930">
        <ele>337.08</ele>
        <time>2014-04-06T09:57:09Z</time>
      </trkpt>
      <trkpt lat="41.623585425" lon="2.522289116">
        <ele>337.56</ele>
        <time>2014-04-06T09:57:13Z</time>
      </trkpt>
      <trkpt lat="41.623696653" lon="2.522362290">
        <ele>338.04</ele>
        <time>2014-04-06T09:57:21Z</time>
      </trkpt>
      <trkpt lat="41.623795811" lon="2.522446444">
        <ele>338.04</ele>
        <time>2014-04-06T09:57:27Z</time>
      </trkpt>
      <trkpt lat="41.623836966" lon="2.522490030">
        <ele>339.00</ele>
        <time>2014-04-06T09:57:30Z</time>
      </trkpt>
      <trkpt lat="41.623960767" lon="2.522663703">
        <ele>339.48</ele>
        <time>2014-04-06T09:57:40Z</time>
      </trkpt>
      <trkpt lat="41.623984236" lon="2.522712570">
        <ele>339.48</ele>
        <time>2014-04-06T09:57:46Z</time>
      </trkpt>
      <trkpt lat="41.623992451" lon="2.522712318">
        <ele>339.48</ele>
        <time>2014-04-06T09:58:04Z</time>
      </trkpt>
      <trkpt lat="41.623998150" lon="2.522695303">
        <ele>339.48</ele>
        <time>2014-04-06T09:58:25Z</time>
      </trkpt>
      <trkpt lat="41.624001000" lon="2.522721371">
        <ele>339.48</ele>
        <time>2014-04-06T09:58:43Z</time>
      </trkpt>
      <trkpt lat="41.624005024" lon="2.522733441">
        <ele>339.48</ele>
        <time>2014-04-06T09:58:44Z</time>
      </trkpt>
      <trkpt lat="41.624082640" lon="2.522865707">
        <ele>339.96</ele>
        <time>2014-04-06T09:58:51Z</time>
      </trkpt>
      <trkpt lat="41.624160843" lon="2.523100987">
        <ele>339.96</ele>
        <time>2014-04-06T09:59:00Z</time>
      </trkpt>
      <trkpt lat="41.624185989" lon="2.523211293">
        <ele>339.96</ele>
        <time>2014-04-06T09:59:06Z</time>
      </trkpt>
      <trkpt lat="41.624247512" lon="2.523379518">
        <ele>340.44</ele>
        <time>2014-04-06T09:59:14Z</time>
      </trkpt>
      <trkpt lat="41.624265868" lon="2.523461996">
        <ele>340.44</ele>
        <time>2014-04-06T09:59:17Z</time>
      </trkpt>
      <trkpt lat="41.624342982" lon="2.523685457">
        <ele>341.89</ele>
        <time>2014-04-06T09:59:27Z</time>
      </trkpt>
      <trkpt lat="41.624428729" lon="2.523859130">
        <ele>343.33</ele>
        <time>2014-04-06T09:59:35Z</time>
      </trkpt>
      <trkpt lat="41.624506345" lon="2.524045711">
        <ele>344.77</ele>
        <time>2014-04-06T09:59:43Z</time>
      </trkpt>
      <trkpt lat="41.624575831" lon="2.524218295">
        <ele>345.73</ele>
        <time>2014-04-06T09:59:51Z</time>
      </trkpt>
      <trkpt lat="41.624659566" lon="2.524431111">
        <ele>347.17</ele>
        <time>2014-04-06T10:00:00Z</time>
      </trkpt>
      <trkpt lat="41.624741290" lon="2.524655495">
        <ele>348.13</ele>
        <time>2014-04-06T10:00:09Z</time>
      </trkpt>
      <trkpt lat="41.624811782" lon="2.524857080">
        <ele>349.10</ele>
        <time>2014-04-06T10:00:17Z</time>
      </trkpt>
      <trkpt lat="41.624903312" lon="2.525059503">
        <ele>349.58</ele>
        <time>2014-04-06T10:00:26Z</time>
      </trkpt>
      <trkpt lat="41.625000626" lon="2.525204258">
        <ele>349.58</ele>
        <time>2014-04-06T10:00:33Z</time>
      </trkpt>
      <trkpt lat="41.625112524" lon="2.525349097">
        <ele>349.58</ele>
        <time>2014-04-06T10:00:40Z</time>
      </trkpt>
      <trkpt lat="41.625252251" lon="2.525497960">
        <ele>350.06</ele>
        <time>2014-04-06T10:00:48Z</time>
      </trkpt>
      <trkpt lat="41.625356941" lon="2.525681272">
        <ele>351.02</ele>
        <time>2014-04-06T10:00:56Z</time>
      </trkpt>
      <trkpt lat="41.625466744" lon="2.525876487">
        <ele>351.50</ele>
        <time>2014-04-06T10:01:05Z</time>
      </trkpt>
      <trkpt lat="41.625611667" lon="2.526058290">
        <ele>351.50</ele>
        <time>2014-04-06T10:01:12Z</time>
      </trkpt>
      <trkpt lat="41.625825405" lon="2.526220312">
        <ele>351.50</ele>
        <time>2014-04-06T10:01:20Z</time>
      </trkpt>
      <trkpt lat="41.625987679" lon="2.526352327">
        <ele>351.50</ele>
        <time>2014-04-06T10:01:27Z</time>
      </trkpt>
      <trkpt lat="41.626121370" lon="2.526530275">
        <ele>351.50</ele>
        <time>2014-04-06T10:01:35Z</time>
      </trkpt>
      <trkpt lat="41.626239723" lon="2.526750635">
        <ele>351.50</ele>
        <time>2014-04-06T10:01:44Z</time>
      </trkpt>
      <trkpt lat="41.626290182" lon="2.526907964">
        <ele>351.50</ele>
        <time>2014-04-06T10:01:50Z</time>
      </trkpt>
      <trkpt lat="41.626353884" lon="2.526986418">
        <ele>351.98</ele>
        <time>2014-04-06T10:01:55Z</time>
      </trkpt>
      <trkpt lat="41.626378946" lon="2.527013743">
        <ele>351.98</ele>
        <time>2014-04-06T10:01:57Z</time>
      </trkpt>
      <trkpt lat="41.626447259" lon="2.527120780">
        <ele>353.42</ele>
        <time>2014-04-06T10:02:05Z</time>
      </trkpt>
      <trkpt lat="41.626538035" lon="2.527204348">
        <ele>353.90</ele>
        <time>2014-04-06T10:02:13Z</time>
      </trkpt>
      <trkpt lat="41.626607772" lon="2.527274169">
        <ele>354.38</ele>
        <time>2014-04-06T10:02:18Z</time>
      </trkpt>
      <trkpt lat="41.626667619" lon="2.527305350">
        <ele>355.83</ele>
        <time>2014-04-06T10:02:23Z</time>
      </trkpt>
      <trkpt lat="41.626682371" lon="2.527310295">
        <ele>355.83</ele>
        <time>2014-04-06T10:02:24Z</time>
      </trkpt>
      <trkpt lat="41.626786390" lon="2.527284311">
        <ele>358.23</ele>
        <time>2014-04-06T10:02:32Z</time>
      </trkpt>
      <trkpt lat="41.626841124" lon="2.527307361">
        <ele>358.71</ele>
        <time>2014-04-06T10:02:37Z</time>
      </trkpt>
      <trkpt lat="41.626988813" lon="2.527379362">
        <ele>361.11</ele>
        <time>2014-04-06T10:02:49Z</time>
      </trkpt>
      <trkpt lat="41.627105573" lon="2.527423870">
        <ele>362.55</ele>
        <time>2014-04-06T10:02:58Z</time>
      </trkpt>
      <trkpt lat="41.627219735" lon="2.527471647">
        <ele>364.00</ele>
        <time>2014-04-06T10:03:06Z</time>
      </trkpt>
      <trkpt lat="41.627297351" lon="2.527503749">
        <ele>364.48</ele>
        <time>2014-04-06T10:03:12Z</time>
      </trkpt>
      <trkpt lat="41.627352169" lon="2.527550604">
        <ele>364.96</ele>
        <time>2014-04-06T10:03:16Z</time>
      </trkpt>
      <trkpt lat="41.627520813" lon="2.527651942">
        <ele>366.40</ele>
        <time>2014-04-06T10:03:28Z</time>
      </trkpt>
      <trkpt lat="41.627658528" lon="2.527734922">
        <ele>367.36</ele>
        <time>2014-04-06T10:03:37Z</time>
      </trkpt>
      <trkpt lat="41.627796997" lon="2.527805163">
        <ele>369.28</ele>
        <time>2014-04-06T10:03:46Z</time>
      </trkpt>
      <trkpt lat="41.627924066" lon="2.527894430">
        <ele>369.76</ele>
        <time>2014-04-06T10:03:55Z</time>
      </trkpt>
      <trkpt lat="41.628050465" lon="2.527987553">
        <ele>371.21</ele>
        <time>2014-04-06T10:04:04Z</time>
      </trkpt>
      <trkpt lat="41.628196981" lon="2.528107917">
        <ele>372.17</ele>
        <time>2014-04-06T10:04:14Z</time>
      </trkpt>
      <trkpt lat="41.628309885" lon="2.528209422">
        <ele>373.61</ele>
        <time>2014-04-06T10:04:22Z</time>
      </trkpt>
      <trkpt lat="41.628426813" lon="2.528358704">
        <ele>375.05</ele>
        <time>2014-04-06T10:04:30Z</time>
      </trkpt>
      <trkpt lat="41.628531419" lon="2.528545033">
        <ele>375.05</ele>
        <time>2014-04-06T10:04:37Z</time>
      </trkpt>
      <trkpt lat="41.628693441" lon="2.528844351">
        <ele>375.53</ele>
        <time>2014-04-06T10:04:47Z</time>
      </trkpt>
      <trkpt lat="41.628824534" lon="2.529089270">
        <ele>375.53</ele>
        <time>2014-04-06T10:04:55Z</time>
      </trkpt>
      <trkpt lat="41.628981443" lon="2.529250119">
        <ele>375.53</ele>
        <time>2014-04-06T10:05:02Z</time>
      </trkpt>
      <trkpt lat="41.629249245" lon="2.529408034">
        <ele>375.53</ele>
        <time>2014-04-06T10:05:12Z</time>
      </trkpt>
      <trkpt lat="41.629444879" lon="2.529433850">
        <ele>376.01</ele>
        <time>2014-04-06T10:05:20Z</time>
      </trkpt>
      <trkpt lat="41.629668173" lon="2.529394120">
        <ele>376.49</ele>
        <time>2014-04-06T10:05:29Z</time>
      </trkpt>
      <trkpt lat="41.629924072" lon="2.529387163">
        <ele>377.45</ele>
        <time>2014-04-06T10:05:39Z</time>
      </trkpt>
      <trkpt lat="41.630158179" lon="2.529287502">
        <ele>377.94</ele>
        <time>2014-04-06T10:05:48Z</time>
      </trkpt>
      <trkpt lat="41.630345430" lon="2.529060017">
        <ele>377.94</ele>
        <time>2014-04-06T10:05:56Z</time>
      </trkpt>
      <trkpt lat="41.630468644" lon="2.528895564">
        <ele>378.90</ele>
        <time>2014-04-06T10:06:03Z</time>
      </trkpt>
      <trkpt lat="41.630585237" lon="2.528905790">
        <ele>379.86</ele>
        <time>2014-04-06T10:06:09Z</time>
      </trkpt>
      <trkpt lat="41.630788665" lon="2.529035207">
        <ele>381.30</ele>
        <time>2014-04-06T10:06:18Z</time>
      </trkpt>
      <trkpt lat="41.631010786" lon="2.529101089">
        <ele>381.78</ele>
        <time>2014-04-06T10:06:27Z</time>
      </trkpt>
      <trkpt lat="41.631214885" lon="2.529048199">
        <ele>382.26</ele>
        <time>2014-04-06T10:06:35Z</time>
      </trkpt>
      <trkpt lat="41.631418314" lon="2.528904282">
        <ele>383.22</ele>
        <time>2014-04-06T10:06:44Z</time>
      </trkpt>
      <trkpt lat="41.631562734" lon="2.528793389">
        <ele>384.66</ele>
        <time>2014-04-06T10:06:52Z</time>
      </trkpt>
      <trkpt lat="41.631674884" lon="2.528715521">
        <ele>386.11</ele>
        <time>2014-04-06T10:06:59Z</time>
      </trkpt>
      <trkpt lat="41.631797260" lon="2.528790288">
        <ele>386.11</ele>
        <time>2014-04-06T10:07:05Z</time>
      </trkpt>
      <trkpt lat="41.631820981" lon="2.528866395">
        <ele>386.11</ele>
        <time>2014-04-06T10:07:07Z</time>
      </trkpt>
      <trkpt lat="41.631855598" lon="2.529023472">
        <ele>384.66</ele>
        <time>2014-04-06T10:07:12Z</time>
      </trkpt>
      <trkpt lat="41.631868590" lon="2.529090611">
        <ele>383.70</ele>
        <time>2014-04-06T10:07:18Z</time>
      </trkpt>
      <trkpt lat="41.631836236" lon="2.529081224">
        <ele>383.70</ele>
        <time>2014-04-06T10:07:35Z</time>
      </trkpt>
      <trkpt lat="41.631847467" lon="2.529076530">
        <ele>383.70</ele>
        <time>2014-04-06T10:07:48Z</time>
      </trkpt>
      <trkpt lat="41.631879570" lon="2.529105615">
        <ele>384.18</ele>
        <time>2014-04-06T10:08:06Z</time>
      </trkpt>
      <trkpt lat="41.631894406" lon="2.529123468">
        <ele>384.18</ele>
        <time>2014-04-06T10:08:18Z</time>
      </trkpt>
      <trkpt lat="41.631893903" lon="2.529115422">
        <ele>384.18</ele>
        <time>2014-04-06T10:08:37Z</time>
      </trkpt>
      <trkpt lat="41.631872026" lon="2.529166719">
        <ele>384.18</ele>
        <time>2014-04-06T10:08:48Z</time>
      </trkpt>
      <trkpt lat="41.631861549" lon="2.529245509">
        <ele>383.22</ele>
        <time>2014-04-06T10:08:50Z</time>
      </trkpt>
      <trkpt lat="41.631842271" lon="2.529721433">
        <ele>379.86</ele>
        <time>2014-04-06T10:08:56Z</time>
      </trkpt>
      <trkpt lat="41.631925838" lon="2.530162238">
        <ele>376.01</ele>
        <time>2014-04-06T10:09:00Z</time>
      </trkpt>
      <trkpt lat="41.632043855" lon="2.530474380">
        <ele>373.13</ele>
        <time>2014-04-06T10:09:04Z</time>
      </trkpt>
      <trkpt lat="41.632146366" lon="2.530610334">
        <ele>371.69</ele>
        <time>2014-04-06T10:09:06Z</time>
      </trkpt>
      <trkpt lat="41.632283494" lon="2.530748217">
        <ele>370.73</ele>
        <time>2014-04-06T10:09:08Z</time>
      </trkpt>
      <trkpt lat="41.632642156" lon="2.531140993">
        <ele>369.76</ele>
        <time>2014-04-06T10:09:14Z</time>
      </trkpt>
      <trkpt lat="41.632992100" lon="2.531659329">
        <ele>368.32</ele>
        <time>2014-04-06T10:09:21Z</time>
      </trkpt>
      <trkpt lat="41.633112800" lon="2.531884551">
        <ele>369.76</ele>
        <time>2014-04-06T10:09:26Z</time>
      </trkpt>
      <trkpt lat="41.633162337" lon="2.532106839">
        <ele>371.69</ele>
        <time>2014-04-06T10:09:34Z</time>
      </trkpt>
      <trkpt lat="41.633195026" lon="2.532331642">
        <ele>373.13</ele>
        <time>2014-04-06T10:09:43Z</time>
      </trkpt>
      <trkpt lat="41.633205503" lon="2.532495676">
        <ele>375.53</ele>
        <time>2014-04-06T10:09:50Z</time>
      </trkpt>
      <trkpt lat="41.633223524" lon="2.532668846">
        <ele>377.94</ele>
        <time>2014-04-06T10:09:58Z</time>
      </trkpt>
      <trkpt lat="41.633262584" lon="2.532711342">
        <ele>378.42</ele>
        <time>2014-04-06T10:10:01Z</time>
      </trkpt>
      <trkpt lat="41.633382781" lon="2.532924913">
        <ele>376.49</ele>
        <time>2014-04-06T10:10:07Z</time>
      </trkpt>
      <trkpt lat="41.633500295" lon="2.533106884">
        <ele>373.13</ele>
        <time>2014-04-06T10:10:11Z</time>
      </trkpt>
      <trkpt lat="41.633539858" lon="2.533166144">
        <ele>372.17</ele>
        <time>2014-04-06T10:10:12Z</time>
      </trkpt>
      <trkpt lat="41.633705903" lon="2.533450039">
        <ele>369.28</ele>
        <time>2014-04-06T10:10:16Z</time>
      </trkpt>
      <trkpt lat="41.633860046" lon="2.533589766">
        <ele>369.28</ele>
        <time>2014-04-06T10:10:21Z</time>
      </trkpt>
      <trkpt lat="41.633875720" lon="2.533591945">
        <ele>370.24</ele>
        <time>2014-04-06T10:10:22Z</time>
      </trkpt>
      <trkpt lat="41.633969011" lon="2.533568308">
        <ele>370.24</ele>
        <time>2014-04-06T10:10:27Z</time>
      </trkpt>
      <trkpt lat="41.634066073" lon="2.533533523">
        <ele>370.24</ele>
        <time>2014-04-06T10:10:30Z</time>
      </trkpt>
      <trkpt lat="41.634213595" lon="2.533484656">
        <ele>367.84</ele>
        <time>2014-04-06T10:10:33Z</time>
      </trkpt>
      <trkpt lat="41.634352818" lon="2.533520028">
        <ele>366.40</ele>
        <time>2014-04-06T10:10:36Z</time>
      </trkpt>
      <trkpt lat="41.634570496" lon="2.533415841">
        <ele>365.92</ele>
        <time>2014-04-06T10:10:40Z</time>
      </trkpt>
      <trkpt lat="41.634633444" lon="2.533066567">
        <ele>363.52</ele>
        <time>2014-04-06T10:10:45Z</time>
      </trkpt>
      <trkpt lat="41.634593714" lon="2.532906557">
        <ele>362.07</ele>
        <time>2014-04-06T10:10:48Z</time>
      </trkpt>
      <trkpt lat="41.634580806" lon="2.532714527">
        <ele>361.11</ele>
        <time>2014-04-06T10:10:51Z</time>
      </trkpt>
      <trkpt lat="41.634569155" lon="2.532369696">
        <ele>359.19</ele>
        <time>2014-04-06T10:10:56Z</time>
      </trkpt>
      <trkpt lat="41.634675605" lon="2.532074485">
        <ele>358.23</ele>
        <time>2014-04-06T10:11:02Z</time>
      </trkpt>
      <trkpt lat="41.634797897" lon="2.531860076">
        <ele>359.67</ele>
        <time>2014-04-06T10:11:10Z</time>
      </trkpt>
      <trkpt lat="41.634868641" lon="2.531766031">
        <ele>361.11</ele>
        <time>2014-04-06T10:11:15Z</time>
      </trkpt>
      <trkpt lat="41.634986071" lon="2.531764690">
        <ele>363.04</ele>
        <time>2014-04-06T10:11:23Z</time>
      </trkpt>
      <trkpt lat="41.635133090" lon="2.531904249">
        <ele>364.96</ele>
        <time>2014-04-06T10:11:32Z</time>
      </trkpt>
      <trkpt lat="41.635164773" lon="2.531939117">
        <ele>364.96</ele>
        <time>2014-04-06T10:11:34Z</time>
      </trkpt>
      <trkpt lat="41.635261752" lon="2.532087980">
        <ele>365.44</ele>
        <time>2014-04-06T10:11:41Z</time>
      </trkpt>
      <trkpt lat="41.635402903" lon="2.532151515">
        <ele>365.92</ele>
        <time>2014-04-06T10:11:47Z</time>
      </trkpt>
      <trkpt lat="41.635528799" lon="2.531962671">
        <ele>365.92</ele>
        <time>2014-04-06T10:11:53Z</time>
      </trkpt>
      <trkpt lat="41.635530308" lon="2.531925539">
        <ele>365.92</ele>
        <time>2014-04-06T10:11:54Z</time>
      </trkpt>
      <trkpt lat="41.635569116" lon="2.531654216">
        <ele>365.92</ele>
        <time>2014-04-06T10:12:01Z</time>
      </trkpt>
      <trkpt lat="41.635610188" lon="2.531439807">
        <ele>366.88</ele>
        <time>2014-04-06T10:12:09Z</time>
      </trkpt>
      <trkpt lat="41.635614714" lon="2.531419272">
        <ele>367.36</ele>
        <time>2014-04-06T10:12:10Z</time>
      </trkpt>
      <trkpt lat="41.635647487" lon="2.531238306">
        <ele>369.28</ele>
        <time>2014-04-06T10:12:18Z</time>
      </trkpt>
      <trkpt lat="41.635659473" lon="2.531189859">
        <ele>369.76</ele>
        <time>2014-04-06T10:12:20Z</time>
      </trkpt>
      <trkpt lat="41.635740442" lon="2.530964553">
        <ele>371.21</ele>
        <time>2014-04-06T10:12:30Z</time>
      </trkpt>
      <trkpt lat="41.635862734" lon="2.530905545">
        <ele>372.65</ele>
        <time>2014-04-06T10:12:38Z</time>
      </trkpt>
      <trkpt lat="41.636016710" lon="2.530863971">
        <ele>373.61</ele>
        <time>2014-04-06T10:12:47Z</time>
      </trkpt>
      <trkpt lat="41.636163728" lon="2.530866737">
        <ele>374.09</ele>
        <time>2014-04-06T10:12:55Z</time>
      </trkpt>
      <trkpt lat="41.636281075" lon="2.531016270">
        <ele>374.09</ele>
        <time>2014-04-06T10:13:01Z</time>
      </trkpt>
      <trkpt lat="41.636288535" lon="2.531231266">
        <ele>374.09</ele>
        <time>2014-04-06T10:13:07Z</time>
      </trkpt>
      <trkpt lat="41.636297252" lon="2.531495882">
        <ele>374.09</ele>
        <time>2014-04-06T10:13:15Z</time>
      </trkpt>
      <trkpt lat="41.636342095" lon="2.531750860">
        <ele>374.09</ele>
        <time>2014-04-06T10:13:21Z</time>
      </trkpt>
      <trkpt lat="41.636423148" lon="2.531967281">
        <ele>374.09</ele>
        <time>2014-04-06T10:13:27Z</time>
      </trkpt>
      <trkpt lat="41.636505207" lon="2.532216726">
        <ele>374.09</ele>
        <time>2014-04-06T10:13:34Z</time>
      </trkpt>
      <trkpt lat="41.636458688" lon="2.532468351">
        <ele>374.09</ele>
        <time>2014-04-06T10:13:41Z</time>
      </trkpt>
      <trkpt lat="41.636389788" lon="2.532755012">
        <ele>374.09</ele>
        <time>2014-04-06T10:13:48Z</time>
      </trkpt>
      <trkpt lat="41.636481486" lon="2.532889960">
        <ele>374.09</ele>
        <time>2014-04-06T10:13:53Z</time>
      </trkpt>
      <trkpt lat="41.636633534" lon="2.533065142">
        <ele>374.09</ele>
        <time>2014-04-06T10:13:59Z</time>
      </trkpt>
      <trkpt lat="41.636700673" lon="2.533286341">
        <ele>374.57</ele>
        <time>2014-04-06T10:14:05Z</time>
      </trkpt>
      <trkpt lat="41.636666978" lon="2.533561183">
        <ele>374.57</ele>
        <time>2014-04-06T10:14:12Z</time>
      </trkpt>
      <trkpt lat="41.636603611" lon="2.533759583">
        <ele>374.57</ele>
        <time>2014-04-06T10:14:18Z</time>
      </trkpt>
      <trkpt lat="41.636549883" lon="2.533887155">
        <ele>374.57</ele>
        <time>2014-04-06T10:14:22Z</time>
      </trkpt>
      <trkpt lat="41.636597576" lon="2.534041466">
        <ele>374.57</ele>
        <time>2014-04-06T10:14:27Z</time>
      </trkpt>
      <trkpt lat="41.636827743" lon="2.534145905">
        <ele>373.13</ele>
        <time>2014-04-06T10:14:34Z</time>
      </trkpt>
      <trkpt lat="41.636912735" lon="2.534207009">
        <ele>372.65</ele>
        <time>2014-04-06T10:14:36Z</time>
      </trkpt>
      <trkpt lat="41.637301069" lon="2.534497107">
        <ele>370.73</ele>
        <time>2014-04-06T10:14:44Z</time>
      </trkpt>
      <trkpt lat="41.637400981" lon="2.534526443">
        <ele>370.24</ele>
        <time>2014-04-06T10:14:46Z</time>
      </trkpt>
      <trkpt lat="41.637661742" lon="2.534740685">
        <ele>368.80</ele>
        <time>2014-04-06T10:14:52Z</time>
      </trkpt>
      <trkpt lat="41.637742125" lon="2.534861971">
        <ele>367.84</ele>
        <time>2014-04-06T10:14:55Z</time>
      </trkpt>
      <trkpt lat="41.637879420" lon="2.534912598">
        <ele>367.36</ele>
        <time>2014-04-06T10:15:01Z</time>
      </trkpt>
      <trkpt lat="41.637912026" lon="2.534890050">
        <ele>366.88</ele>
        <time>2014-04-06T10:15:02Z</time>
      </trkpt>
      <trkpt lat="41.638152167" lon="2.534670444">
        <ele>365.92</ele>
        <time>2014-04-06T10:15:08Z</time>
      </trkpt>
      <trkpt lat="41.638397841" lon="2.534595594">
        <ele>365.44</ele>
        <time>2014-04-06T10:15:13Z</time>
      </trkpt>
      <trkpt lat="41.638485013" lon="2.534631888">
        <ele>364.96</ele>
        <time>2014-04-06T10:15:15Z</time>
      </trkpt>
      <trkpt lat="41.638809141" lon="2.534817211">
        <ele>364.96</ele>
        <time>2014-04-06T10:15:23Z</time>
      </trkpt>
      <trkpt lat="41.639049031" lon="2.534936989">
        <ele>364.96</ele>
        <time>2014-04-06T10:15:30Z</time>
      </trkpt>
      <trkpt lat="41.639077362" lon="2.534936067">
        <ele>364.96</ele>
        <time>2014-04-06T10:15:31Z</time>
      </trkpt>
      <trkpt lat="41.639262434" lon="2.534943946">
        <ele>365.92</ele>
        <time>2014-04-06T10:15:38Z</time>
      </trkpt>
      <trkpt lat="41.639284311" lon="2.534946460">
        <ele>365.92</ele>
        <time>2014-04-06T10:15:39Z</time>
      </trkpt>
      <trkpt lat="41.639397886" lon="2.534946712">
        <ele>367.84</ele>
        <time>2014-04-06T10:15:45Z</time>
      </trkpt>
      <trkpt lat="41.639569044" lon="2.534960374">
        <ele>368.80</ele>
        <time>2014-04-06T10:15:53Z</time>
      </trkpt>
      <trkpt lat="41.639736515" lon="2.534989962">
        <ele>370.24</ele>
        <time>2014-04-06T10:16:02Z</time>
      </trkpt>
      <trkpt lat="41.639928796" lon="2.535086187">
        <ele>372.17</ele>
        <time>2014-04-06T10:16:11Z</time>
      </trkpt>
      <trkpt lat="41.640124764" lon="2.535225913">
        <ele>373.61</ele>
        <time>2014-04-06T10:16:21Z</time>
      </trkpt>
      <trkpt lat="41.640289385" lon="2.535205126">
        <ele>374.09</ele>
        <time>2014-04-06T10:16:28Z</time>
      </trkpt>
      <trkpt lat="41.640315704" lon="2.535199091">
        <ele>374.09</ele>
        <time>2014-04-06T10:16:29Z</time>
      </trkpt>
      <trkpt lat="41.640522905" lon="2.535175957">
        <ele>374.09</ele>
        <time>2014-04-06T10:16:38Z</time>
      </trkpt>
      <trkpt lat="41.640691716" lon="2.535186770">
        <ele>375.05</ele>
        <time>2014-04-06T10:16:46Z</time>
      </trkpt>
      <trkpt lat="41.640833538" lon="2.535303865">
        <ele>375.53</ele>
        <time>2014-04-06T10:16:53Z</time>
      </trkpt>
      <trkpt lat="41.640928002" lon="2.535374776">
        <ele>375.53</ele>
        <time>2014-04-06T10:16:56Z</time>
      </trkpt>
      <trkpt lat="41.641055407" lon="2.535544090">
        <ele>375.53</ele>
        <time>2014-04-06T10:17:02Z</time>
      </trkpt>
      <trkpt lat="41.641145345" lon="2.535797643">
        <ele>376.49</ele>
        <time>2014-04-06T10:17:11Z</time>
      </trkpt>
      <trkpt lat="41.641250203" lon="2.536045831">
        <ele>377.94</ele>
        <time>2014-04-06T10:17:21Z</time>
      </trkpt>
      <trkpt lat="41.641282221" lon="2.536236184">
        <ele>378.90</ele>
        <time>2014-04-06T10:17:28Z</time>
      </trkpt>
      <trkpt lat="41.641346427" lon="2.536465094">
        <ele>380.82</ele>
        <time>2014-04-06T10:17:37Z</time>
      </trkpt>
      <trkpt lat="41.641405184" lon="2.536658799">
        <ele>382.26</ele>
        <time>2014-04-06T10:17:45Z</time>
      </trkpt>
      <trkpt lat="41.641523536" lon="2.536821408">
        <ele>383.22</ele>
        <time>2014-04-06T10:17:54Z</time>
      </trkpt>
      <trkpt lat="41.641599057" lon="2.537015701">
        <ele>384.18</ele>
        <time>2014-04-06T10:18:02Z</time>
      </trkpt>
      <trkpt lat="41.641560165" lon="2.537221728">
        <ele>384.18</ele>
        <time>2014-04-06T10:18:07Z</time>
      </trkpt>
      <trkpt lat="41.641543066" lon="2.537479304">
        <ele>384.18</ele>
        <time>2014-04-06T10:18:13Z</time>
      </trkpt>
      <trkpt lat="41.641575672" lon="2.537790273">
        <ele>384.66</ele>
        <time>2014-04-06T10:18:22Z</time>
      </trkpt>
      <trkpt lat="41.641629987" lon="2.538052542">
        <ele>385.63</ele>
        <time>2014-04-06T10:18:30Z</time>
      </trkpt>
      <trkpt lat="41.641760074" lon="2.538284553">
        <ele>385.63</ele>
        <time>2014-04-06T10:18:36Z</time>
      </trkpt>
      <trkpt lat="41.641933747" lon="2.538455041">
        <ele>385.63</ele>
        <time>2014-04-06T10:18:41Z</time>
      </trkpt>
      <trkpt lat="41.642181097" lon="2.538532825">
        <ele>385.63</ele>
        <time>2014-04-06T10:18:48Z</time>
      </trkpt>
      <trkpt lat="41.642395171" lon="2.538556965">
        <ele>386.11</ele>
        <time>2014-04-06T10:18:56Z</time>
      </trkpt>
      <trkpt lat="41.642586781" lon="2.538729381">
        <ele>386.59</ele>
        <time>2014-04-06T10:19:04Z</time>
      </trkpt>
      <trkpt lat="41.642693231" lon="2.538831053">
        <ele>386.59</ele>
        <time>2014-04-06T10:19:07Z</time>
      </trkpt>
      <trkpt lat="41.642872688" lon="2.538952926">
        <ele>385.15</ele>
        <time>2014-04-06T10:19:11Z</time>
      </trkpt>
      <trkpt lat="41.643017108" lon="2.539022412">
        <ele>384.18</ele>
        <time>2014-04-06T10:19:14Z</time>
      </trkpt>
      <trkpt lat="41.643100005" lon="2.539065831">
        <ele>383.22</ele>
        <time>2014-04-06T10:19:16Z</time>
      </trkpt>
      <trkpt lat="41.643138897" lon="2.539089467">
        <ele>383.22</ele>
        <time>2014-04-06T10:19:17Z</time>
      </trkpt>
      <trkpt lat="41.643252807" lon="2.539208239">
        <ele>380.82</ele>
        <time>2014-04-06T10:19:20Z</time>
      </trkpt>
      <trkpt lat="41.643369734" lon="2.539407980">
        <ele>378.90</ele>
        <time>2014-04-06T10:19:24Z</time>
      </trkpt>
      <trkpt lat="41.643520022" lon="2.539503617">
        <ele>376.97</ele>
        <time>2014-04-06T10:19:27Z</time>
      </trkpt>
      <trkpt lat="41.643760163" lon="2.539628508">
        <ele>373.61</ele>
        <time>2014-04-06T10:19:32Z</time>
      </trkpt>
      <trkpt lat="41.643907098" lon="2.539770329">
        <ele>372.17</ele>
        <time>2014-04-06T10:19:36Z</time>
      </trkpt>
      <trkpt lat="41.644076161" lon="2.539966550">
        <ele>368.80</ele>
        <time>2014-04-06T10:19:41Z</time>
      </trkpt>
      <trkpt lat="41.644119160" lon="2.540013991">
        <ele>368.32</ele>
        <time>2014-04-06T10:19:43Z</time>
      </trkpt>
      <trkpt lat="41.644203901" lon="2.539990690">
        <ele>366.40</ele>
        <time>2014-04-06T10:19:49Z</time>
      </trkpt>
      <trkpt lat="41.644297443" lon="2.539891783">
        <ele>363.04</ele>
        <time>2014-04-06T10:19:56Z</time>
      </trkpt>
      <trkpt lat="41.644314375" lon="2.539888514">
        <ele>362.55</ele>
        <time>2014-04-06T10:19:57Z</time>
      </trkpt>
      <trkpt lat="41.644381849" lon="2.539846689">
        <ele>360.63</ele>
        <time>2014-04-06T10:20:01Z</time>
      </trkpt>
      <trkpt lat="41.644500118" lon="2.539823638">
        <ele>356.79</ele>
        <time>2014-04-06T10:20:07Z</time>
      </trkpt>
      <trkpt lat="41.644516798" lon="2.539820286">
        <ele>356.79</ele>
        <time>2014-04-06T10:20:08Z</time>
      </trkpt>
      <trkpt lat="41.644603383" lon="2.539855573">
        <ele>354.86</ele>
        <time>2014-04-06T10:20:13Z</time>
      </trkpt>
      <trkpt lat="41.644672869" lon="2.539863285">
        <ele>354.38</ele>
        <time>2014-04-06T10:20:15Z</time>
      </trkpt>
      <trkpt lat="41.644995572" lon="2.540031845">
        <ele>351.50</ele>
        <time>2014-04-06T10:20:21Z</time>
      </trkpt>
      <trkpt lat="41.645154745" lon="2.540111138">
        <ele>350.06</ele>
        <time>2014-04-06T10:20:24Z</time>
      </trkpt>
      <trkpt lat="41.645418607" lon="2.540160842">
        <ele>347.17</ele>
        <time>2014-04-06T10:20:31Z</time>
      </trkpt>
      <trkpt lat="41.645508293" lon="2.540140391">
        <ele>346.21</ele>
        <time>2014-04-06T10:20:35Z</time>
      </trkpt>
      <trkpt lat="41.645552466" lon="2.540024134">
        <ele>344.77</ele>
        <time>2014-04-06T10:20:39Z</time>
      </trkpt>
      <trkpt lat="41.645613654" lon="2.539841492">
        <ele>342.37</ele>
        <time>2014-04-06T10:20:42Z</time>
      </trkpt>
      <trkpt lat="41.645684313" lon="2.539529434">
        <ele>338.52</ele>
        <time>2014-04-06T10:20:47Z</time>
      </trkpt>
      <trkpt lat="41.645678865" lon="2.539344026">
        <ele>334.68</ele>
        <time>2014-04-06T10:20:51Z</time>
      </trkpt>
      <trkpt lat="41.645700406" lon="2.539150655">
        <ele>330.83</ele>
        <time>2014-04-06T10:20:55Z</time>
      </trkpt>
      <trkpt lat="41.645719350" lon="2.539100783">
        <ele>329.87</ele>
        <time>2014-04-06T10:20:56Z</time>
      </trkpt>
      <trkpt lat="41.645724798" lon="2.539000033">
        <ele>328.91</ele>
        <time>2014-04-06T10:20:58Z</time>
      </trkpt>
      <trkpt lat="41.645695629" lon="2.538906910">
        <ele>326.99</ele>
        <time>2014-04-06T10:21:00Z</time>
      </trkpt>
      <trkpt lat="41.645614492" lon="2.538754191">
        <ele>323.14</ele>
        <time>2014-04-06T10:21:03Z</time>
      </trkpt>
      <trkpt lat="41.645586077" lon="2.538534334">
        <ele>320.26</ele>
        <time>2014-04-06T10:21:07Z</time>
      </trkpt>
      <trkpt lat="41.645663442" lon="2.538212888">
        <ele>315.45</ele>
        <time>2014-04-06T10:21:11Z</time>
      </trkpt>
      <trkpt lat="41.645725971" lon="2.538021864">
        <ele>312.57</ele>
        <time>2014-04-06T10:21:14Z</time>
      </trkpt>
      <trkpt lat="41.645853376" lon="2.537774934">
        <ele>308.24</ele>
        <time>2014-04-06T10:21:19Z</time>
      </trkpt>
      <trkpt lat="41.645942979" lon="2.537616767">
        <ele>304.88</ele>
        <time>2014-04-06T10:21:23Z</time>
      </trkpt>
      <trkpt lat="41.645979943" lon="2.537546191">
        <ele>304.39</ele>
        <time>2014-04-06T10:21:25Z</time>
      </trkpt>
      <trkpt lat="41.646099720" lon="2.537364556">
        <ele>303.43</ele>
        <time>2014-04-06T10:21:30Z</time>
      </trkpt>
      <trkpt lat="41.646179348" lon="2.537303116">
        <ele>302.47</ele>
        <time>2014-04-06T10:21:32Z</time>
      </trkpt>
      <trkpt lat="41.646338437" lon="2.537126426">
        <ele>301.03</ele>
        <time>2014-04-06T10:21:36Z</time>
      </trkpt>
      <trkpt lat="41.646481851" lon="2.536796095">
        <ele>298.63</ele>
        <time>2014-04-06T10:21:41Z</time>
      </trkpt>
      <trkpt lat="41.646651082" lon="2.536451012">
        <ele>293.82</ele>
        <time>2014-04-06T10:21:46Z</time>
      </trkpt>
      <trkpt lat="41.646695590" lon="2.536396865">
        <ele>292.86</ele>
        <time>2014-04-06T10:21:47Z</time>
      </trkpt>
      <trkpt lat="41.646948639" lon="2.536095200">
        <ele>289.97</ele>
        <time>2014-04-06T10:21:53Z</time>
      </trkpt>
      <trkpt lat="41.647072440" lon="2.535866290">
        <ele>287.57</ele>
        <time>2014-04-06T10:21:57Z</time>
      </trkpt>
      <trkpt lat="41.647185512" lon="2.535525398">
        <ele>284.69</ele>
        <time>2014-04-06T10:22:03Z</time>
      </trkpt>
      <trkpt lat="41.647262793" lon="2.535298249">
        <ele>282.77</ele>
        <time>2014-04-06T10:22:07Z</time>
      </trkpt>
      <trkpt lat="41.647314845" lon="2.535167491">
        <ele>282.28</ele>
        <time>2014-04-06T10:22:09Z</time>
      </trkpt>
      <trkpt lat="41.647465049" lon="2.534845710">
        <ele>278.92</ele>
        <time>2014-04-06T10:22:14Z</time>
      </trkpt>
      <trkpt lat="41.647539564" lon="2.534491239">
        <ele>275.07</ele>
        <time>2014-04-06T10:22:19Z</time>
      </trkpt>
      <trkpt lat="41.647557585" lon="2.534221342">
        <ele>272.67</ele>
        <time>2014-04-06T10:22:23Z</time>
      </trkpt>
      <trkpt lat="41.647533361" lon="2.533912636">
        <ele>268.83</ele>
        <time>2014-04-06T10:22:28Z</time>
      </trkpt>
      <trkpt lat="41.647513747" lon="2.533683810">
        <ele>267.86</ele>
        <time>2014-04-06T10:22:32Z</time>
      </trkpt>
      <trkpt lat="41.647497319" lon="2.533530254">
        <ele>267.38</ele>
        <time>2014-04-06T10:22:38Z</time>
      </trkpt>
      <trkpt lat="41.647494218" lon="2.533477364">
        <ele>267.38</ele>
        <time>2014-04-06T10:22:52Z</time>
      </trkpt>
      <trkpt lat="41.647537720" lon="2.533479627">
        <ele>269.31</ele>
        <time>2014-04-06T10:30:56Z</time>
      </trkpt>
      <trkpt lat="41.647593627" lon="2.533456158">
        <ele>270.75</ele>
        <time>2014-04-06T10:31:04Z</time>
      </trkpt>
      <trkpt lat="41.647601422" lon="2.533327496">
        <ele>273.63</ele>
        <time>2014-04-06T10:31:15Z</time>
      </trkpt>
      <trkpt lat="41.647601003" lon="2.533226494">
        <ele>274.59</ele>
        <time>2014-04-06T10:31:24Z</time>
      </trkpt>
      <trkpt lat="41.647600919" lon="2.533191038">
        <ele>275.07</ele>
        <time>2014-04-06T10:31:27Z</time>
      </trkpt>
      <trkpt lat="41.647599243" lon="2.533060951">
        <ele>277.00</ele>
        <time>2014-04-06T10:31:36Z</time>
      </trkpt>
      <trkpt lat="41.647596812" lon="2.533047540">
        <ele>277.48</ele>
        <time>2014-04-06T10:31:37Z</time>
      </trkpt>
      <trkpt lat="41.647616593" lon="2.532887697">
        <ele>278.44</ele>
        <time>2014-04-06T10:31:48Z</time>
      </trkpt>
      <trkpt lat="41.647658168" lon="2.532754174">
        <ele>279.88</ele>
        <time>2014-04-06T10:31:57Z</time>
      </trkpt>
      <trkpt lat="41.647684151" lon="2.532620734">
        <ele>281.80</ele>
        <time>2014-04-06T10:32:06Z</time>
      </trkpt>
      <trkpt lat="41.647695048" lon="2.532598941">
        <ele>282.28</ele>
        <time>2014-04-06T10:32:08Z</time>
      </trkpt>
      <trkpt lat="41.647739472" lon="2.532495676">
        <ele>284.21</ele>
        <time>2014-04-06T10:32:17Z</time>
      </trkpt>
      <trkpt lat="41.647771659" lon="2.532393836">
        <ele>285.65</ele>
        <time>2014-04-06T10:32:25Z</time>
      </trkpt>
      <trkpt lat="41.647789847" lon="2.532290319">
        <ele>286.61</ele>
        <time>2014-04-06T10:32:33Z</time>
      </trkpt>
      <trkpt lat="41.647794960" lon="2.532168362">
        <ele>286.61</ele>
        <time>2014-04-06T10:32:40Z</time>
      </trkpt>
      <trkpt lat="41.647808623" lon="2.532115473">
        <ele>287.09</ele>
        <time>2014-04-06T10:32:43Z</time>
      </trkpt>
      <trkpt lat="41.647861513" lon="2.532037018">
        <ele>287.09</ele>
        <time>2014-04-06T10:32:49Z</time>
      </trkpt>
      <trkpt lat="41.647945332" lon="2.531842474">
        <ele>287.57</ele>
        <time>2014-04-06T10:33:00Z</time>
      </trkpt>
      <trkpt lat="41.648003251" lon="2.531696797">
        <ele>289.49</ele>
        <time>2014-04-06T10:33:09Z</time>
      </trkpt>
      <trkpt lat="41.648012219" lon="2.531666203">
        <ele>289.49</ele>
        <time>2014-04-06T10:33:11Z</time>
      </trkpt>
      <trkpt lat="41.648052368" lon="2.531599231">
        <ele>289.97</ele>
        <time>2014-04-06T10:33:16Z</time>
      </trkpt>
      <trkpt lat="41.648155214" lon="2.531588083">
        <ele>291.90</ele>
        <time>2014-04-06T10:33:25Z</time>
      </trkpt>
      <trkpt lat="41.648175163" lon="2.531606356">
        <ele>291.90</ele>
        <time>2014-04-06T10:33:27Z</time>
      </trkpt>
      <trkpt lat="41.648183378" lon="2.531724624">
        <ele>293.82</ele>
        <time>2014-04-06T10:33:36Z</time>
      </trkpt>
      <trkpt lat="41.648160914" lon="2.531845743">
        <ele>295.74</ele>
        <time>2014-04-06T10:33:45Z</time>
      </trkpt>
      <trkpt lat="41.648172230" lon="2.532014471">
        <ele>296.22</ele>
        <time>2014-04-06T10:33:54Z</time>
      </trkpt>
      <trkpt lat="41.648134260" lon="2.532187976">
        <ele>297.18</ele>
        <time>2014-04-06T10:34:04Z</time>
      </trkpt>
      <trkpt lat="41.648106348" lon="2.532392578">
        <ele>299.11</ele>
        <time>2014-04-06T10:34:16Z</time>
      </trkpt>
      <trkpt lat="41.648172900" lon="2.532427279">
        <ele>300.55</ele>
        <time>2014-04-06T10:34:24Z</time>
      </trkpt>
      <trkpt lat="41.648216738" lon="2.532315381">
        <ele>301.51</ele>
        <time>2014-04-06T10:34:32Z</time>
      </trkpt>
      <trkpt lat="41.648240877" lon="2.532288224">
        <ele>301.99</ele>
        <time>2014-04-06T10:34:35Z</time>
      </trkpt>
      <trkpt lat="41.648273148" lon="2.532271544">
        <ele>302.47</ele>
        <time>2014-04-06T10:34:38Z</time>
      </trkpt>
      <trkpt lat="41.648324277" lon="2.532234160">
        <ele>303.43</ele>
        <time>2014-04-06T10:34:43Z</time>
      </trkpt>
      <trkpt lat="41.648396362" lon="2.532189233">
        <ele>304.88</ele>
        <time>2014-04-06T10:34:50Z</time>
      </trkpt>
      <trkpt lat="41.648533154" lon="2.532234328">
        <ele>306.32</ele>
        <time>2014-04-06T10:35:01Z</time>
      </trkpt>
      <trkpt lat="41.648605909" lon="2.532335414">
        <ele>308.24</ele>
        <time>2014-04-06T10:35:10Z</time>
      </trkpt>
      <trkpt lat="41.648679000" lon="2.532395344">
        <ele>310.16</ele>
        <time>2014-04-06T10:35:18Z</time>
      </trkpt>
      <trkpt lat="41.648701882" lon="2.532414204">
        <ele>310.64</ele>
        <time>2014-04-06T10:35:20Z</time>
      </trkpt>
      <trkpt lat="41.648792491" lon="2.532445971">
        <ele>312.09</ele>
        <time>2014-04-06T10:35:29Z</time>
      </trkpt>
      <trkpt lat="41.648849320" lon="2.532474218">
        <ele>313.05</ele>
        <time>2014-04-06T10:35:34Z</time>
      </trkpt>
      <trkpt lat="41.648949903" lon="2.532433817">
        <ele>314.49</ele>
        <time>2014-04-06T10:35:43Z</time>
      </trkpt>
      <trkpt lat="41.648999188" lon="2.532406073">
        <ele>315.45</ele>
        <time>2014-04-06T10:35:48Z</time>
      </trkpt>
      <trkpt lat="41.649016455" lon="2.532388471">
        <ele>315.45</ele>
        <time>2014-04-06T10:35:50Z</time>
      </trkpt>
      <trkpt lat="41.649095580" lon="2.532384699">
        <ele>317.85</ele>
        <time>2014-04-06T10:35:58Z</time>
      </trkpt>
      <trkpt lat="41.649168000" lon="2.532387298">
        <ele>318.33</ele>
        <time>2014-04-06T10:36:05Z</time>
      </trkpt>
      <trkpt lat="41.649195409" lon="2.532380005">
        <ele>319.30</ele>
        <time>2014-04-06T10:36:08Z</time>
      </trkpt>
      <trkpt lat="41.649291884" lon="2.532349244">
        <ele>321.22</ele>
        <time>2014-04-06T10:36:18Z</time>
      </trkpt>
      <trkpt lat="41.649300182" lon="2.532345891">
        <ele>321.22</ele>
        <time>2014-04-06T10:36:19Z</time>
      </trkpt>
      <trkpt lat="41.649387187" lon="2.532294091">
        <ele>323.14</ele>
        <time>2014-04-06T10:36:29Z</time>
      </trkpt>
      <trkpt lat="41.649458517" lon="2.532270035">
        <ele>323.62</ele>
        <time>2014-04-06T10:36:37Z</time>
      </trkpt>
      <trkpt lat="41.649528589" lon="2.532220833">
        <ele>325.54</ele>
        <time>2014-04-06T10:36:45Z</time>
      </trkpt>
      <trkpt lat="41.649562285" lon="2.532198537">
        <ele>326.50</ele>
        <time>2014-04-06T10:36:49Z</time>
      </trkpt>
      <trkpt lat="41.649628334" lon="2.532175487">
        <ele>327.95</ele>
        <time>2014-04-06T10:36:57Z</time>
      </trkpt>
      <trkpt lat="41.649717685" lon="2.532116227">
        <ele>329.39</ele>
        <time>2014-04-06T10:37:06Z</time>
      </trkpt>
      <trkpt lat="41.649794966" lon="2.532058392">
        <ele>331.31</ele>
        <time>2014-04-06T10:37:15Z</time>
      </trkpt>
      <trkpt lat="41.649859423" lon="2.532017991">
        <ele>332.75</ele>
        <time>2014-04-06T10:37:23Z</time>
      </trkpt>
      <trkpt lat="41.649939973" lon="2.531997372">
        <ele>334.20</ele>
        <time>2014-04-06T10:37:32Z</time>
      </trkpt>
      <trkpt lat="41.650027564" lon="2.531950684">
        <ele>335.64</ele>
        <time>2014-04-06T10:37:41Z</time>
      </trkpt>
      <trkpt lat="41.650063858" lon="2.531939536">
        <ele>336.12</ele>
        <time>2014-04-06T10:37:45Z</time>
      </trkpt>
      <trkpt lat="41.650148012" lon="2.531935848">
        <ele>336.60</ele>
        <time>2014-04-06T10:37:53Z</time>
      </trkpt>
      <trkpt lat="41.650181204" lon="2.531940039">
        <ele>337.08</ele>
        <time>2014-04-06T10:37:56Z</time>
      </trkpt>
      <trkpt lat="41.650278937" lon="2.531902824">
        <ele>337.56</ele>
        <time>2014-04-06T10:38:05Z</time>
      </trkpt>
      <trkpt lat="41.650312381" lon="2.531906596">
        <ele>338.04</ele>
        <time>2014-04-06T10:38:09Z</time>
      </trkpt>
      <trkpt lat="41.650443893" lon="2.531898214">
        <ele>339.00</ele>
        <time>2014-04-06T10:38:21Z</time>
      </trkpt>
      <trkpt lat="41.650533999" lon="2.531866279">
        <ele>339.96</ele>
        <time>2014-04-06T10:38:30Z</time>
      </trkpt>
      <trkpt lat="41.650570963" lon="2.531869380">
        <ele>340.44</ele>
        <time>2014-04-06T10:38:34Z</time>
      </trkpt>
      <trkpt lat="41.650664086" lon="2.531890335">
        <ele>341.41</ele>
        <time>2014-04-06T10:38:43Z</time>
      </trkpt>
      <trkpt lat="41.650756706" lon="2.531890251">
        <ele>342.37</ele>
        <time>2014-04-06T10:38:52Z</time>
      </trkpt>
      <trkpt lat="41.650848907" lon="2.531868793">
        <ele>343.81</ele>
        <time>2014-04-06T10:39:02Z</time>
      </trkpt>
      <trkpt lat="41.650873801" lon="2.531847671">
        <ele>343.81</ele>
        <time>2014-04-06T10:39:05Z</time>
      </trkpt>
      <trkpt lat="41.650911771" lon="2.531816993">
        <ele>344.29</ele>
        <time>2014-04-06T10:39:09Z</time>
      </trkpt>
      <trkpt lat="41.650933480" lon="2.531802492">
        <ele>344.29</ele>
        <time>2014-04-06T10:39:11Z</time>
      </trkpt>
      <trkpt lat="41.650970612" lon="2.531759242">
        <ele>344.29</ele>
        <time>2014-04-06T10:39:15Z</time>
      </trkpt>
      <trkpt lat="41.651022161" lon="2.531604763">
        <ele>344.29</ele>
        <time>2014-04-06T10:39:23Z</time>
      </trkpt>
      <trkpt lat="41.651050156" lon="2.531468222">
        <ele>344.77</ele>
        <time>2014-04-06T10:39:30Z</time>
      </trkpt>
      <trkpt lat="41.651066668" lon="2.531403011">
        <ele>345.25</ele>
        <time>2014-04-06T10:39:34Z</time>
      </trkpt>
      <trkpt lat="41.651101286" lon="2.531207377">
        <ele>345.25</ele>
        <time>2014-04-06T10:39:44Z</time>
      </trkpt>
      <trkpt lat="41.651107069" lon="2.531018952">
        <ele>346.69</ele>
        <time>2014-04-06T10:39:54Z</time>
      </trkpt>
      <trkpt lat="41.651143195" lon="2.530891631">
        <ele>347.17</ele>
        <time>2014-04-06T10:40:02Z</time>
      </trkpt>
      <trkpt lat="41.651218632" lon="2.530811081">
        <ele>348.13</ele>
        <time>2014-04-06T10:40:10Z</time>
      </trkpt>
      <trkpt lat="41.651323406" lon="2.530764645">
        <ele>349.10</ele>
        <time>2014-04-06T10:40:19Z</time>
      </trkpt>
      <trkpt lat="41.651373111" lon="2.530767076">
        <ele>350.06</ele>
        <time>2014-04-06T10:40:23Z</time>
      </trkpt>
      <trkpt lat="41.651408650" lon="2.530790713">
        <ele>350.54</ele>
        <time>2014-04-06T10:40:26Z</time>
      </trkpt>
      <trkpt lat="41.651386522" lon="2.530848716">
        <ele>351.02</ele>
        <time>2014-04-06T10:40:32Z</time>
      </trkpt>
      <trkpt lat="41.651353330" lon="2.530862378">
        <ele>351.50</ele>
        <time>2014-04-06T10:40:35Z</time>
      </trkpt>
      <trkpt lat="41.651269511" lon="2.530929936">
        <ele>352.46</ele>
        <time>2014-04-06T10:40:44Z</time>
      </trkpt>
      <trkpt lat="41.651242018" lon="2.531046948">
        <ele>353.90</ele>
        <time>2014-04-06T10:40:53Z</time>
      </trkpt>
      <trkpt lat="41.651247801" lon="2.531150464">
        <ele>353.90</ele>
        <time>2014-04-06T10:40:59Z</time>
      </trkpt>
      <trkpt lat="41.651251406" lon="2.531292873">
        <ele>354.86</ele>
        <time>2014-04-06T10:41:09Z</time>
      </trkpt>
      <trkpt lat="41.651249981" lon="2.531411979">
        <ele>354.86</ele>
        <time>2014-04-06T10:41:17Z</time>
      </trkpt>
      <trkpt lat="41.651255094" lon="2.531518933">
        <ele>355.83</ele>
        <time>2014-04-06T10:41:24Z</time>
      </trkpt>
      <trkpt lat="41.651259871" lon="2.531636866">
        <ele>356.79</ele>
        <time>2014-04-06T10:41:32Z</time>
      </trkpt>
      <trkpt lat="41.651261129" lon="2.531734012">
        <ele>358.23</ele>
        <time>2014-04-06T10:41:40Z</time>
      </trkpt>
      <trkpt lat="41.651262051" lon="2.531813221">
        <ele>358.23</ele>
        <time>2014-04-06T10:41:45Z</time>
      </trkpt>
      <trkpt lat="41.651253166" lon="2.531892430">
        <ele>358.71</ele>
        <time>2014-04-06T10:41:50Z</time>
      </trkpt>
      <trkpt lat="41.651319970" lon="2.532063337">
        <ele>359.67</ele>
        <time>2014-04-06T10:42:00Z</time>
      </trkpt>
      <trkpt lat="41.651360035" lon="2.532153778">
        <ele>360.63</ele>
        <time>2014-04-06T10:42:07Z</time>
      </trkpt>
      <trkpt lat="41.651368166" lon="2.532288475">
        <ele>360.63</ele>
        <time>2014-04-06T10:42:15Z</time>
      </trkpt>
      <trkpt lat="41.651332542" lon="2.532476397">
        <ele>361.59</ele>
        <time>2014-04-06T10:42:26Z</time>
      </trkpt>
      <trkpt lat="41.651296165" lon="2.532585949">
        <ele>363.04</ele>
        <time>2014-04-06T10:42:33Z</time>
      </trkpt>
      <trkpt lat="41.651284514" lon="2.532617297">
        <ele>364.00</ele>
        <time>2014-04-06T10:42:35Z</time>
      </trkpt>
      <trkpt lat="41.651239168" lon="2.532743529">
        <ele>364.96</ele>
        <time>2014-04-06T10:42:44Z</time>
      </trkpt>
      <trkpt lat="41.651265990" lon="2.532810165">
        <ele>364.96</ele>
        <time>2014-04-06T10:42:48Z</time>
      </trkpt>
      <trkpt lat="41.651363304" lon="2.532852577">
        <ele>365.92</ele>
        <time>2014-04-06T10:42:57Z</time>
      </trkpt>
      <trkpt lat="41.651391216" lon="2.532854673">
        <ele>366.88</ele>
        <time>2014-04-06T10:43:00Z</time>
      </trkpt>
      <trkpt lat="41.651488362" lon="2.532843525">
        <ele>368.80</ele>
        <time>2014-04-06T10:43:10Z</time>
      </trkpt>
      <trkpt lat="41.651497666" lon="2.532841513">
        <ele>369.28</ele>
        <time>2014-04-06T10:43:11Z</time>
      </trkpt>
      <trkpt lat="41.651614761" lon="2.532730956">
        <ele>371.69</ele>
        <time>2014-04-06T10:43:23Z</time>
      </trkpt>
      <trkpt lat="41.651687516" lon="2.532657195">
        <ele>373.13</ele>
        <time>2014-04-06T10:43:32Z</time>
      </trkpt>
      <trkpt lat="41.651723139" lon="2.532619476">
        <ele>373.13</ele>
        <time>2014-04-06T10:43:36Z</time>
      </trkpt>
      <trkpt lat="41.651779298" lon="2.532562396">
        <ele>374.57</ele>
        <time>2014-04-06T10:43:42Z</time>
      </trkpt>
      <trkpt lat="41.651829757" lon="2.532529539">
        <ele>375.53</ele>
        <time>2014-04-06T10:43:48Z</time>
      </trkpt>
      <trkpt lat="41.651915169" lon="2.532464327">
        <ele>376.97</ele>
        <time>2014-04-06T10:43:58Z</time>
      </trkpt>
      <trkpt lat="41.651966466" lon="2.532461058">
        <ele>377.94</ele>
        <time>2014-04-06T10:44:07Z</time>
      </trkpt>
      <trkpt lat="41.651966550" lon="2.532464830">
        <ele>377.94</ele>
        <time>2014-04-06T10:44:16Z</time>
      </trkpt>
      <trkpt lat="41.651993875" lon="2.532469440">
        <ele>378.42</ele>
        <time>2014-04-06T10:44:23Z</time>
      </trkpt>
      <trkpt lat="41.652059505" lon="2.532489473">
        <ele>379.38</ele>
        <time>2014-04-06T10:44:31Z</time>
      </trkpt>
      <trkpt lat="41.652176516" lon="2.532446893">
        <ele>380.34</ele>
        <time>2014-04-06T10:44:40Z</time>
      </trkpt>
      <trkpt lat="41.652303167" lon="2.532376737">
        <ele>381.30</ele>
        <time>2014-04-06T10:44:51Z</time>
      </trkpt>
      <trkpt lat="41.652392183" lon="2.532343377">
        <ele>382.26</ele>
        <time>2014-04-06T10:44:59Z</time>
      </trkpt>
      <trkpt lat="41.652423363" lon="2.532328876">
        <ele>382.74</ele>
        <time>2014-04-06T10:45:02Z</time>
      </trkpt>
      <trkpt lat="41.652476337" lon="2.532281350">
        <ele>383.22</ele>
        <time>2014-04-06T10:45:07Z</time>
      </trkpt>
      <trkpt lat="41.652591756" lon="2.532217480">
        <ele>383.70</ele>
        <time>2014-04-06T10:45:17Z</time>
      </trkpt>
      <trkpt lat="41.652629139" lon="2.532194514">
        <ele>383.70</ele>
        <time>2014-04-06T10:45:20Z</time>
      </trkpt>
      <trkpt lat="41.652721927" lon="2.532127878">
        <ele>384.66</ele>
        <time>2014-04-06T10:45:29Z</time>
      </trkpt>
      <trkpt lat="41.652809099" lon="2.532047998">
        <ele>386.59</ele>
        <time>2014-04-06T10:45:39Z</time>
      </trkpt>
      <trkpt lat="41.652854612" lon="2.532008771">
        <ele>387.07</ele>
        <time>2014-04-06T10:45:46Z</time>
      </trkpt>
      <trkpt lat="41.652868442" lon="2.531974992">
        <ele>387.55</ele>
        <time>2014-04-06T10:45:49Z</time>
      </trkpt>
      <trkpt lat="41.652969612" lon="2.531912547">
        <ele>389.47</ele>
        <time>2014-04-06T10:45:59Z</time>
      </trkpt>
      <trkpt lat="41.653045217" lon="2.531869548">
        <ele>390.91</ele>
        <time>2014-04-06T10:46:07Z</time>
      </trkpt>
      <trkpt lat="41.653071033" lon="2.531855885">
        <ele>391.39</ele>
        <time>2014-04-06T10:46:13Z</time>
      </trkpt>
      <trkpt lat="41.653097520" lon="2.531854460">
        <ele>391.39</ele>
        <time>2014-04-06T10:46:20Z</time>
      </trkpt>
      <trkpt lat="41.653155523" lon="2.531838115">
        <ele>392.84</ele>
        <time>2014-04-06T10:46:30Z</time>
      </trkpt>
      <trkpt lat="41.653171532" lon="2.531827387">
        <ele>392.84</ele>
        <time>2014-04-06T10:46:37Z</time>
      </trkpt>
      <trkpt lat="41.653245963" lon="2.531809952">
        <ele>393.32</ele>
        <time>2014-04-06T10:46:45Z</time>
      </trkpt>
      <trkpt lat="41.653336488" lon="2.531808360">
        <ele>393.80</ele>
        <time>2014-04-06T10:46:54Z</time>
      </trkpt>
      <trkpt lat="41.653388204" lon="2.531808192">
        <ele>394.28</ele>
        <time>2014-04-06T10:46:58Z</time>
      </trkpt>
      <trkpt lat="41.653436149" lon="2.531808108">
        <ele>394.76</ele>
        <time>2014-04-06T10:47:02Z</time>
      </trkpt>
      <trkpt lat="41.653546035" lon="2.531812551">
        <ele>396.20</ele>
        <time>2014-04-06T10:47:11Z</time>
      </trkpt>
      <trkpt lat="41.653639913" lon="2.531820346">
        <ele>397.16</ele>
        <time>2014-04-06T10:47:20Z</time>
      </trkpt>
      <trkpt lat="41.653729012" lon="2.531825626">
        <ele>399.08</ele>
        <time>2014-04-06T10:47:29Z</time>
      </trkpt>
      <trkpt lat="41.653814005" lon="2.531830404">
        <ele>401.01</ele>
        <time>2014-04-06T10:47:37Z</time>
      </trkpt>
      <trkpt lat="41.653892376" lon="2.531807186">
        <ele>401.97</ele>
        <time>2014-04-06T10:47:44Z</time>
      </trkpt>
      <trkpt lat="41.653963035" lon="2.531770893">
        <ele>403.89</ele>
        <time>2014-04-06T10:47:52Z</time>
      </trkpt>
      <trkpt lat="41.654029504" lon="2.531721691">
        <ele>404.85</ele>
        <time>2014-04-06T10:48:00Z</time>
      </trkpt>
      <trkpt lat="41.654120866" lon="2.531659246">
        <ele>406.29</ele>
        <time>2014-04-06T10:48:10Z</time>
      </trkpt>
      <trkpt lat="41.654198148" lon="2.531626137">
        <ele>406.77</ele>
        <time>2014-04-06T10:48:17Z</time>
      </trkpt>
      <trkpt lat="41.654272495" lon="2.531595711">
        <ele>408.22</ele>
        <time>2014-04-06T10:48:24Z</time>
      </trkpt>
      <trkpt lat="41.654362852" lon="2.531523962">
        <ele>409.18</ele>
        <time>2014-04-06T10:48:34Z</time>
      </trkpt>
      <trkpt lat="41.654430326" lon="2.531460427">
        <ele>411.10</ele>
        <time>2014-04-06T10:48:43Z</time>
      </trkpt>
      <trkpt lat="41.654475002" lon="2.531399993">
        <ele>412.06</ele>
        <time>2014-04-06T10:48:49Z</time>
      </trkpt>
      <trkpt lat="41.654546080" lon="2.531373423">
        <ele>412.54</ele>
        <time>2014-04-06T10:48:56Z</time>
      </trkpt>
      <trkpt lat="41.654661918" lon="2.531300668">
        <ele>413.50</ele>
        <time>2014-04-06T10:49:05Z</time>
      </trkpt>
      <trkpt lat="41.654770129" lon="2.531258172">
        <ele>413.98</ele>
        <time>2014-04-06T10:49:13Z</time>
      </trkpt>
      <trkpt lat="41.654792424" lon="2.531251047">
        <ele>414.47</ele>
        <time>2014-04-06T10:49:15Z</time>
      </trkpt>
      <trkpt lat="41.654924356" lon="2.531258507">
        <ele>414.95</ele>
        <time>2014-04-06T10:49:24Z</time>
      </trkpt>
      <trkpt lat="41.655054778" lon="2.531206455">
        <ele>415.91</ele>
        <time>2014-04-06T10:49:34Z</time>
      </trkpt>
      <trkpt lat="41.655098532" lon="2.531163372">
        <ele>416.39</ele>
        <time>2014-04-06T10:49:38Z</time>
      </trkpt>
      <trkpt lat="41.655210262" lon="2.531092377">
        <ele>417.83</ele>
        <time>2014-04-06T10:49:49Z</time>
      </trkpt>
      <trkpt lat="41.655220153" lon="2.531087600">
        <ele>417.83</ele>
        <time>2014-04-06T10:49:50Z</time>
      </trkpt>
      <trkpt lat="41.655296009" lon="2.530917531">
        <ele>417.83</ele>
        <time>2014-04-06T10:49:58Z</time>
      </trkpt>
      <trkpt lat="41.655322161" lon="2.530712593">
        <ele>417.83</ele>
        <time>2014-04-06T10:50:05Z</time>
      </trkpt>
      <trkpt lat="41.655337164" lon="2.530435907">
        <ele>418.79</ele>
        <time>2014-04-06T10:50:15Z</time>
      </trkpt>
      <trkpt lat="41.655406818" lon="2.530262318">
        <ele>419.75</ele>
        <time>2014-04-06T10:50:22Z</time>
      </trkpt>
      <trkpt lat="41.655492481" lon="2.530102810">
        <ele>420.71</ele>
        <time>2014-04-06T10:50:31Z</time>
      </trkpt>
      <trkpt lat="41.655524919" lon="2.530042125">
        <ele>420.71</ele>
        <time>2014-04-06T10:50:36Z</time>
      </trkpt>
      <trkpt lat="41.655532798" lon="2.529984374">
        <ele>420.71</ele>
        <time>2014-04-06T10:50:44Z</time>
      </trkpt>
      <trkpt lat="41.655525254" lon="2.529931232">
        <ele>420.71</ele>
        <time>2014-04-06T10:50:51Z</time>
      </trkpt>
      <trkpt lat="41.655529697" lon="2.529917989">
        <ele>420.71</ele>
        <time>2014-04-06T10:51:13Z</time>
      </trkpt>
      <trkpt lat="41.655523913" lon="2.529924946">
        <ele>420.71</ele>
        <time>2014-04-06T10:51:39Z</time>
      </trkpt>
      <trkpt lat="41.655521734" lon="2.529937016">
        <ele>421.19</ele>
        <time>2014-04-06T10:51:52Z</time>
      </trkpt>
      <trkpt lat="41.655519555" lon="2.529911200">
        <ele>421.19</ele>
        <time>2014-04-06T10:52:07Z</time>
      </trkpt>
      <trkpt lat="41.655542689" lon="2.529903572">
        <ele>421.19</ele>
        <time>2014-04-06T10:52:30Z</time>
      </trkpt>
      <trkpt lat="41.655525841" lon="2.529921090">
        <ele>421.19</ele>
        <time>2014-04-06T10:52:51Z</time>
      </trkpt>
      <trkpt lat="41.655535899" lon="2.529924527">
        <ele>421.19</ele>
        <time>2014-04-06T10:53:11Z</time>
      </trkpt>
      <trkpt lat="41.655535564" lon="2.529924862">
        <ele>421.19</ele>
        <time>2014-04-06T10:53:36Z</time>
      </trkpt>
      <trkpt lat="41.655526428" lon="2.529907009">
        <ele>421.19</ele>
        <time>2014-04-06T10:54:01Z</time>
      </trkpt>
      <trkpt lat="41.655543527" lon="2.529916229">
        <ele>420.71</ele>
        <time>2014-04-06T10:54:19Z</time>
      </trkpt>
      <trkpt lat="41.655538162" lon="2.529926287">
        <ele>420.71</ele>
        <time>2014-04-06T10:54:42Z</time>
      </trkpt>
      <trkpt lat="41.655532379" lon="2.529912625">
        <ele>420.71</ele>
        <time>2014-04-06T10:55:05Z</time>
      </trkpt>
      <trkpt lat="41.655530702" lon="2.529923186">
        <ele>420.71</ele>
        <time>2014-04-06T10:55:22Z</time>
      </trkpt>
      <trkpt lat="41.655541180" lon="2.529929137">
        <ele>420.71</ele>
        <time>2014-04-06T10:55:40Z</time>
      </trkpt>
      <trkpt lat="41.655563308" lon="2.529930981">
        <ele>420.71</ele>
        <time>2014-04-06T10:56:01Z</time>
      </trkpt>
      <trkpt lat="41.655569595" lon="2.529921761">
        <ele>420.71</ele>
        <time>2014-04-06T10:56:08Z</time>
      </trkpt>
      <trkpt lat="41.655572109" lon="2.529919665">
        <ele>420.71</ele>
        <time>2014-04-06T10:56:09Z</time>
      </trkpt>
      <trkpt lat="41.655645199" lon="2.529813551">
        <ele>420.71</ele>
        <time>2014-04-06T10:56:17Z</time>
      </trkpt>
      <trkpt lat="41.655762127" lon="2.529587742">
        <ele>420.71</ele>
        <time>2014-04-06T10:56:25Z</time>
      </trkpt>
      <trkpt lat="41.655823985" lon="2.529502750">
        <ele>419.75</ele>
        <time>2014-04-06T10:56:27Z</time>
      </trkpt>
      <trkpt lat="41.655939656" lon="2.529387582">
        <ele>417.83</ele>
        <time>2014-04-06T10:56:30Z</time>
      </trkpt>
      <trkpt lat="41.656198405" lon="2.529148949">
        <ele>414.47</ele>
        <time>2014-04-06T10:56:35Z</time>
      </trkpt>
      <trkpt lat="41.656313405" lon="2.529054066">
        <ele>413.02</ele>
        <time>2014-04-06T10:56:37Z</time>
      </trkpt>
      <trkpt lat="41.656488000" lon="2.528939402">
        <ele>410.62</ele>
        <time>2014-04-06T10:56:40Z</time>
      </trkpt>
      <trkpt lat="41.656595204" lon="2.528781990">
        <ele>408.70</ele>
        <time>2014-04-06T10:56:43Z</time>
      </trkpt>
      <trkpt lat="41.656627894" lon="2.528463813">
        <ele>406.77</ele>
        <time>2014-04-06T10:56:47Z</time>
      </trkpt>
      <trkpt lat="41.656770302" lon="2.528278992">
        <ele>406.29</ele>
        <time>2014-04-06T10:56:51Z</time>
      </trkpt>
      <trkpt lat="41.657045145" lon="2.528073216">
        <ele>406.29</ele>
        <time>2014-04-06T10:56:59Z</time>
      </trkpt>
      <trkpt lat="41.657288807" lon="2.527965425">
        <ele>406.29</ele>
        <time>2014-04-06T10:57:06Z</time>
      </trkpt>
      <trkpt lat="41.657358544" lon="2.527925108">
        <ele>406.29</ele>
        <time>2014-04-06T10:57:08Z</time>
      </trkpt>
      <trkpt lat="41.657528361" lon="2.527891496">
        <ele>405.81</ele>
        <time>2014-04-06T10:57:12Z</time>
      </trkpt>
      <trkpt lat="41.657649899" lon="2.527902058">
        <ele>404.85</ele>
        <time>2014-04-06T10:57:15Z</time>
      </trkpt>
      <trkpt lat="41.657780741" lon="2.527938603">
        <ele>403.89</ele>
        <time>2014-04-06T10:57:18Z</time>
      </trkpt>
      <trkpt lat="41.657816867" lon="2.527977830">
        <ele>402.93</ele>
        <time>2014-04-06T10:57:20Z</time>
      </trkpt>
      <trkpt lat="41.657803036" lon="2.528009262">
        <ele>402.45</ele>
        <time>2014-04-06T10:57:22Z</time>
      </trkpt>
      <trkpt lat="41.657754589" lon="2.528029211">
        <ele>401.49</ele>
        <time>2014-04-06T10:57:30Z</time>
      </trkpt>
      <trkpt lat="41.657715194" lon="2.528044047">
        <ele>401.49</ele>
        <time>2014-04-06T10:57:39Z</time>
      </trkpt>
      <trkpt lat="41.657566583" lon="2.528073970">
        <ele>399.57</ele>
        <time>2014-04-06T10:57:44Z</time>
      </trkpt>
      <trkpt lat="41.657430293" lon="2.528164495">
        <ele>398.12</ele>
        <time>2014-04-06T10:57:48Z</time>
      </trkpt>
      <trkpt lat="41.657305654" lon="2.528311513">
        <ele>396.20</ele>
        <time>2014-04-06T10:57:53Z</time>
      </trkpt>
      <trkpt lat="41.657135837" lon="2.528512847">
        <ele>393.32</ele>
        <time>2014-04-06T10:57:59Z</time>
      </trkpt>
      <trkpt lat="41.657139441" lon="2.528594151">
        <ele>392.36</ele>
        <time>2014-04-06T10:58:04Z</time>
      </trkpt>
      <trkpt lat="41.657270702" lon="2.528589960">
        <ele>389.95</ele>
        <time>2014-04-06T10:58:11Z</time>
      </trkpt>
      <trkpt lat="41.657352342" lon="2.528565737">
        <ele>388.99</ele>
        <time>2014-04-06T10:58:14Z</time>
      </trkpt>
      <trkpt lat="41.657380086" lon="2.528561043">
        <ele>388.51</ele>
        <time>2014-04-06T10:58:15Z</time>
      </trkpt>
      <trkpt lat="41.657586280" lon="2.528501280">
        <ele>386.11</ele>
        <time>2014-04-06T10:58:21Z</time>
      </trkpt>
      <trkpt lat="41.657732293" lon="2.528659446">
        <ele>384.66</ele>
        <time>2014-04-06T10:58:26Z</time>
      </trkpt>
      <trkpt lat="41.657845365" lon="2.528879220">
        <ele>381.78</ele>
        <time>2014-04-06T10:58:31Z</time>
      </trkpt>
      <trkpt lat="41.657896662" lon="2.528993214">
        <ele>380.34</ele>
        <time>2014-04-06T10:58:33Z</time>
      </trkpt>
      <trkpt lat="41.657932285" lon="2.529117350">
        <ele>379.38</ele>
        <time>2014-04-06T10:58:35Z</time>
      </trkpt>
      <trkpt lat="41.657991126" lon="2.529322622">
        <ele>377.45</ele>
        <time>2014-04-06T10:58:39Z</time>
      </trkpt>
      <trkpt lat="41.658088859" lon="2.529576175">
        <ele>375.05</ele>
        <time>2014-04-06T10:58:45Z</time>
      </trkpt>
      <trkpt lat="41.658097912" lon="2.529590173">
        <ele>375.05</ele>
        <time>2014-04-06T10:58:50Z</time>
      </trkpt>
      <trkpt lat="41.658109898" lon="2.529609870">
        <ele>375.05</ele>
        <time>2014-04-06T10:58:54Z</time>
      </trkpt>
      <trkpt lat="41.658221293" lon="2.529707771">
        <ele>374.09</ele>
        <time>2014-04-06T10:59:02Z</time>
      </trkpt>
      <trkpt lat="41.658351800" lon="2.529620934">
        <ele>373.13</ele>
        <time>2014-04-06T10:59:08Z</time>
      </trkpt>
      <trkpt lat="41.658404857" lon="2.529593358">
        <ele>372.17</ele>
        <time>2014-04-06T10:59:10Z</time>
      </trkpt>
      <trkpt lat="41.658446012" lon="2.529546838">
        <ele>371.69</ele>
        <time>2014-04-06T10:59:12Z</time>
      </trkpt>
      <trkpt lat="41.658494041" lon="2.529404514">
        <ele>370.24</ele>
        <time>2014-04-06T10:59:16Z</time>
      </trkpt>
      <trkpt lat="41.658586828" lon="2.529122630">
        <ele>366.88</ele>
        <time>2014-04-06T10:59:22Z</time>
      </trkpt>
      <trkpt lat="41.658599401" lon="2.529017605">
        <ele>365.44</ele>
        <time>2014-04-06T10:59:24Z</time>
      </trkpt>
      <trkpt lat="41.658706103" lon="2.528640084">
        <ele>363.04</ele>
        <time>2014-04-06T10:59:31Z</time>
      </trkpt>
      <trkpt lat="41.658757568" lon="2.528373204">
        <ele>360.15</ele>
        <time>2014-04-06T10:59:36Z</time>
      </trkpt>
      <trkpt lat="41.658776594" lon="2.528137673">
        <ele>358.23</ele>
        <time>2014-04-06T10:59:41Z</time>
      </trkpt>
      <trkpt lat="41.658777516" lon="2.528080676">
        <ele>356.79</ele>
        <time>2014-04-06T10:59:42Z</time>
      </trkpt>
      <trkpt lat="41.658823617" lon="2.527692845">
        <ele>353.42</ele>
        <time>2014-04-06T10:59:49Z</time>
      </trkpt>
      <trkpt lat="41.658911711" lon="2.527535768">
        <ele>350.54</ele>
        <time>2014-04-06T10:59:53Z</time>
      </trkpt>
      <trkpt lat="41.659088234" lon="2.527258746">
        <ele>347.65</ele>
        <time>2014-04-06T10:59:59Z</time>
      </trkpt>
      <trkpt lat="41.659132406" lon="2.527145339">
        <ele>346.69</ele>
        <time>2014-04-06T11:00:01Z</time>
      </trkpt>
      <trkpt lat="41.659257464" lon="2.526884746">
        <ele>344.29</ele>
        <time>2014-04-06T11:00:07Z</time>
      </trkpt>
      <trkpt lat="41.659208682" lon="2.526686262">
        <ele>342.85</ele>
        <time>2014-04-06T11:00:13Z</time>
      </trkpt>
      <trkpt lat="41.659171382" lon="2.526458778">
        <ele>341.89</ele>
        <time>2014-04-06T11:00:19Z</time>
      </trkpt>
      <trkpt lat="41.659219997" lon="2.526179409">
        <ele>340.92</ele>
        <time>2014-04-06T11:00:25Z</time>
      </trkpt>
      <trkpt lat="41.659237934" lon="2.526127525">
        <ele>339.96</ele>
        <time>2014-04-06T11:00:26Z</time>
      </trkpt>
      <trkpt lat="41.659369782" lon="2.525934909">
        <ele>339.00</ele>
        <time>2014-04-06T11:00:31Z</time>
      </trkpt>
      <trkpt lat="41.659393670" lon="2.525801636">
        <ele>337.08</ele>
        <time>2014-04-06T11:00:35Z</time>
      </trkpt>
      <trkpt lat="41.659373805" lon="2.525483292">
        <ele>333.23</ele>
        <time>2014-04-06T11:00:41Z</time>
      </trkpt>
      <trkpt lat="41.659393754" lon="2.525277265">
        <ele>330.83</ele>
        <time>2014-04-06T11:00:45Z</time>
      </trkpt>
      <trkpt lat="41.659413954" lon="2.525049780">
        <ele>329.39</ele>
        <time>2014-04-06T11:00:51Z</time>
      </trkpt>
      <trkpt lat="41.659378164" lon="2.524751887">
        <ele>326.50</ele>
        <time>2014-04-06T11:00:59Z</time>
      </trkpt>
      <trkpt lat="41.659357377" lon="2.524534963">
        <ele>324.58</ele>
        <time>2014-04-06T11:01:04Z</time>
      </trkpt>
      <trkpt lat="41.659357628" lon="2.524288368">
        <ele>322.66</ele>
        <time>2014-04-06T11:01:10Z</time>
      </trkpt>
      <trkpt lat="41.659360813" lon="2.524259701">
        <ele>322.66</ele>
        <time>2014-04-06T11:01:11Z</time>
      </trkpt>
      <trkpt lat="41.659376906" lon="2.524206393">
        <ele>321.70</ele>
        <time>2014-04-06T11:01:19Z</time>
      </trkpt>
      <trkpt lat="41.659368860" lon="2.524198178">
        <ele>321.70</ele>
        <time>2014-04-06T11:01:39Z</time>
      </trkpt>
      <trkpt lat="41.659377325" lon="2.524188874">
        <ele>321.70</ele>
        <time>2014-04-06T11:01:55Z</time>
      </trkpt>
      <trkpt lat="41.659387468" lon="2.524188539">
        <ele>321.70</ele>
        <time>2014-04-06T11:02:04Z</time>
      </trkpt>
      <trkpt lat="41.659396269" lon="2.524202537">
        <ele>321.22</ele>
        <time>2014-04-06T11:02:16Z</time>
      </trkpt>
      <trkpt lat="41.659425270" lon="2.524204716">
        <ele>321.22</ele>
        <time>2014-04-06T11:02:22Z</time>
      </trkpt>
      <trkpt lat="41.659515962" lon="2.524392722">
        <ele>319.30</ele>
        <time>2014-04-06T11:02:28Z</time>
      </trkpt>
      <trkpt lat="41.659581090" lon="2.524551727">
        <ele>317.85</ele>
        <time>2014-04-06T11:02:34Z</time>
      </trkpt>
      <trkpt lat="41.659660382" lon="2.524718192">
        <ele>316.89</ele>
        <time>2014-04-06T11:02:40Z</time>
      </trkpt>
      <trkpt lat="41.659677817" lon="2.524764041">
        <ele>316.41</ele>
        <time>2014-04-06T11:02:41Z</time>
      </trkpt>
      <trkpt lat="41.659751577" lon="2.524928996">
        <ele>315.93</ele>
        <time>2014-04-06T11:02:44Z</time>
      </trkpt>
      <trkpt lat="41.659872361" lon="2.525114991">
        <ele>314.01</ele>
        <time>2014-04-06T11:02:48Z</time>
      </trkpt>
      <trkpt lat="41.660054667" lon="2.525186153">
        <ele>313.05</ele>
        <time>2014-04-06T11:02:54Z</time>
      </trkpt>
      <trkpt lat="41.660161453" lon="2.525254382">
        <ele>312.09</ele>
        <time>2014-04-06T11:03:00Z</time>
      </trkpt>
      <trkpt lat="41.660256922" lon="2.525431911">
        <ele>311.60</ele>
        <time>2014-04-06T11:03:07Z</time>
      </trkpt>
      <trkpt lat="41.660260024" lon="2.525442053">
        <ele>311.60</ele>
        <time>2014-04-06T11:03:08Z</time>
      </trkpt>
      <trkpt lat="41.660259353" lon="2.525520507">
        <ele>311.12</ele>
        <time>2014-04-06T11:03:12Z</time>
      </trkpt>
      <trkpt lat="41.660224568" lon="2.525650678">
        <ele>310.16</ele>
        <time>2014-04-06T11:03:17Z</time>
      </trkpt>
      <trkpt lat="41.660106635" lon="2.525821669">
        <ele>310.16</ele>
        <time>2014-04-06T11:03:23Z</time>
      </trkpt>
      <trkpt lat="41.660090374" lon="2.526071701">
        <ele>308.72</ele>
        <time>2014-04-06T11:03:29Z</time>
      </trkpt>
      <trkpt lat="41.660125159" lon="2.526200866">
        <ele>307.76</ele>
        <time>2014-04-06T11:03:34Z</time>
      </trkpt>
      <trkpt lat="41.660259102" lon="2.526422316">
        <ele>306.32</ele>
        <time>2014-04-06T11:03:41Z</time>
      </trkpt>
      <trkpt lat="41.660416346" lon="2.526613340">
        <ele>303.91</ele>
        <time>2014-04-06T11:03:48Z</time>
      </trkpt>
      <trkpt lat="41.660462363" lon="2.526662542">
        <ele>303.43</ele>
        <time>2014-04-06T11:03:51Z</time>
      </trkpt>
      <trkpt lat="41.660617177" lon="2.526748624">
        <ele>301.03</ele>
        <time>2014-04-06T11:03:58Z</time>
      </trkpt>
      <trkpt lat="41.660705019" lon="2.526755413">
        <ele>300.55</ele>
        <time>2014-04-06T11:04:01Z</time>
      </trkpt>
      <trkpt lat="41.660940970" lon="2.526728843">
        <ele>298.63</ele>
        <time>2014-04-06T11:04:10Z</time>
      </trkpt>
      <trkpt lat="41.661156636" lon="2.526691795">
        <ele>297.67</ele>
        <time>2014-04-06T11:04:17Z</time>
      </trkpt>
      <trkpt lat="41.661155965" lon="2.526801597">
        <ele>295.74</ele>
        <time>2014-04-06T11:04:22Z</time>
      </trkpt>
      <trkpt lat="41.661069380" lon="2.526881393">
        <ele>294.30</ele>
        <time>2014-04-06T11:04:26Z</time>
      </trkpt>
      <trkpt lat="41.660889505" lon="2.527007038">
        <ele>292.38</ele>
        <time>2014-04-06T11:04:30Z</time>
      </trkpt>
      <trkpt lat="41.660768805" lon="2.527212059">
        <ele>290.94</ele>
        <time>2014-04-06T11:04:35Z</time>
      </trkpt>
      <trkpt lat="41.660833094" lon="2.527295711">
        <ele>290.46</ele>
        <time>2014-04-06T11:04:39Z</time>
      </trkpt>
      <trkpt lat="41.660967121" lon="2.527477682">
        <ele>291.90</ele>
        <time>2014-04-06T11:04:48Z</time>
      </trkpt>
      <trkpt lat="41.660981454" lon="2.527608439">
        <ele>291.90</ele>
        <time>2014-04-06T11:04:52Z</time>
      </trkpt>
      <trkpt lat="41.660962092" lon="2.527980512">
        <ele>288.05</ele>
        <time>2014-04-06T11:04:58Z</time>
      </trkpt>
      <trkpt lat="41.660940718" lon="2.528125184">
        <ele>287.09</ele>
        <time>2014-04-06T11:05:04Z</time>
      </trkpt>
      <trkpt lat="41.660938371" lon="2.528144881">
        <ele>287.09</ele>
        <time>2014-04-06T11:05:05Z</time>
      </trkpt>
      <trkpt lat="41.660907945" lon="2.528359626">
        <ele>287.09</ele>
        <time>2014-04-06T11:05:13Z</time>
      </trkpt>
      <trkpt lat="41.660826976" lon="2.528611586">
        <ele>287.09</ele>
        <time>2014-04-06T11:05:21Z</time>
      </trkpt>
      <trkpt lat="41.660689093" lon="2.528803364">
        <ele>287.09</ele>
        <time>2014-04-06T11:05:29Z</time>
      </trkpt>
      <trkpt lat="41.660562275" lon="2.528923225">
        <ele>287.09</ele>
        <time>2014-04-06T11:05:35Z</time>
      </trkpt>
      <trkpt lat="41.660510056" lon="2.529120032">
        <ele>287.09</ele>
        <time>2014-04-06T11:05:42Z</time>
      </trkpt>
      <trkpt lat="41.660456998" lon="2.529119780">
        <ele>287.09</ele>
        <time>2014-04-06T11:05:48Z</time>
      </trkpt>
      <trkpt lat="41.660458172" lon="2.529090947">
        <ele>287.09</ele>
        <time>2014-04-06T11:05:54Z</time>
      </trkpt>
      <trkpt lat="41.660455825" lon="2.529097401">
        <ele>287.09</ele>
        <time>2014-04-06T11:06:01Z</time>
      </trkpt>
      <trkpt lat="41.660431266" lon="2.529153224">
        <ele>287.09</ele>
        <time>2014-04-06T11:06:16Z</time>
      </trkpt>
      <trkpt lat="41.660440235" lon="2.529192200">
        <ele>287.09</ele>
        <time>2014-04-06T11:06:37Z</time>
      </trkpt>
      <trkpt lat="41.660440486" lon="2.529178873">
        <ele>287.09</ele>
        <time>2014-04-06T11:06:56Z</time>
      </trkpt>
      <trkpt lat="41.660426237" lon="2.529115757">
        <ele>287.09</ele>
        <time>2014-04-06T11:07:24Z</time>
      </trkpt>
      <trkpt lat="41.660390530" lon="2.529092288">
        <ele>287.09</ele>
        <time>2014-04-06T11:07:46Z</time>
      </trkpt>
      <trkpt lat="41.660413664" lon="2.529121876">
        <ele>287.09</ele>
        <time>2014-04-06T11:08:03Z</time>
      </trkpt>
      <trkpt lat="41.660409054" lon="2.529127659">
        <ele>287.09</ele>
        <time>2014-04-06T11:08:24Z</time>
      </trkpt>
      <trkpt lat="41.660395308" lon="2.529138221">
        <ele>287.09</ele>
        <time>2014-04-06T11:08:47Z</time>
      </trkpt>
      <trkpt lat="41.660445683" lon="2.529125396">
        <ele>287.09</ele>
        <time>2014-04-06T11:08:58Z</time>
      </trkpt>
      <trkpt lat="41.660504189" lon="2.529073680">
        <ele>287.09</ele>
        <time>2014-04-06T11:09:06Z</time>
      </trkpt>
      <trkpt lat="41.660529083" lon="2.529070327">
        <ele>287.57</ele>
        <time>2014-04-06T11:09:12Z</time>
      </trkpt>
      <trkpt lat="41.660551462" lon="2.529070076">
        <ele>287.09</ele>
        <time>2014-04-06T11:09:25Z</time>
      </trkpt>
      <trkpt lat="41.660549367" lon="2.529056078">
        <ele>287.09</ele>
        <time>2014-04-06T11:09:44Z</time>
      </trkpt>
      <trkpt lat="41.660547439" lon="2.529018611">
        <ele>287.09</ele>
        <time>2014-04-06T11:10:01Z</time>
      </trkpt>
      <trkpt lat="41.660531430" lon="2.528989442">
        <ele>287.09</ele>
        <time>2014-04-06T11:10:18Z</time>
      </trkpt>
      <trkpt lat="41.660526904" lon="2.528964883">
        <ele>287.09</ele>
        <time>2014-04-06T11:10:34Z</time>
      </trkpt>
      <trkpt lat="41.660536878" lon="2.528934624">
        <ele>287.09</ele>
        <time>2014-04-06T11:10:46Z</time>
      </trkpt>
      <trkpt lat="41.660529083" lon="2.528954741">
        <ele>287.57</ele>
        <time>2014-04-06T11:11:03Z</time>
      </trkpt>
      <trkpt lat="41.660519444" lon="2.529005703">
        <ele>287.57</ele>
        <time>2014-04-06T11:11:25Z</time>
      </trkpt>
      <trkpt lat="41.660532519" lon="2.529005116">
        <ele>287.57</ele>
        <time>2014-04-06T11:11:42Z</time>
      </trkpt>
      <trkpt lat="41.660523048" lon="2.529012241">
        <ele>288.05</ele>
        <time>2014-04-06T11:11:58Z</time>
      </trkpt>
      <trkpt lat="41.660528245" lon="2.529037219">
        <ele>288.05</ele>
        <time>2014-04-06T11:12:15Z</time>
      </trkpt>
      <trkpt lat="41.660497483" lon="2.529073009">
        <ele>288.05</ele>
        <time>2014-04-06T11:12:23Z</time>
      </trkpt>
      <trkpt lat="41.660471834" lon="2.529115087">
        <ele>288.05</ele>
        <time>2014-04-06T11:12:30Z</time>
      </trkpt>
      <trkpt lat="41.660459764" lon="2.529151883">
        <ele>288.05</ele>
        <time>2014-04-06T11:12:37Z</time>
      </trkpt>
      <trkpt lat="41.660446856" lon="2.529184992">
        <ele>288.05</ele>
        <time>2014-04-06T11:12:44Z</time>
      </trkpt>
      <trkpt lat="41.660471918" lon="2.529190691">
        <ele>288.05</ele>
        <time>2014-04-06T11:12:59Z</time>
      </trkpt>
      <trkpt lat="41.660460854" lon="2.529225644">
        <ele>288.05</ele>
        <time>2014-04-06T11:13:15Z</time>
      </trkpt>
      <trkpt lat="41.660449036" lon="2.529249951">
        <ele>288.05</ele>
        <time>2014-04-06T11:13:27Z</time>
      </trkpt>
      <trkpt lat="41.660460603" lon="2.529259842">
        <ele>288.05</ele>
        <time>2014-04-06T11:13:29Z</time>
      </trkpt>
      <trkpt lat="41.660542075" lon="2.529298147">
        <ele>288.05</ele>
        <time>2014-04-06T11:13:37Z</time>
      </trkpt>
      <trkpt lat="41.660639808" lon="2.529233355">
        <ele>289.49</ele>
        <time>2014-04-06T11:13:45Z</time>
      </trkpt>
      <trkpt lat="41.660658416" lon="2.529225309">
        <ele>289.49</ele>
        <time>2014-04-06T11:13:46Z</time>
      </trkpt>
      <trkpt lat="41.660897467" lon="2.529191194">
        <ele>289.49</ele>
        <time>2014-04-06T11:13:54Z</time>
      </trkpt>
      <trkpt lat="41.660935437" lon="2.529185662">
        <ele>288.05</ele>
        <time>2014-04-06T11:13:55Z</time>
      </trkpt>
      <trkpt lat="41.661107769" lon="2.529029926">
        <ele>286.61</ele>
        <time>2014-04-06T11:14:00Z</time>
      </trkpt>
      <trkpt lat="41.661200641" lon="2.528784756">
        <ele>285.17</ele>
        <time>2014-04-06T11:14:05Z</time>
      </trkpt>
      <trkpt lat="41.661393760" lon="2.528553331">
        <ele>282.77</ele>
        <time>2014-04-06T11:14:10Z</time>
      </trkpt>
      <trkpt lat="41.661422091" lon="2.528430788">
        <ele>282.28</ele>
        <time>2014-04-06T11:14:12Z</time>
      </trkpt>
      <trkpt lat="41.661438687" lon="2.528236915">
        <ele>279.88</ele>
        <time>2014-04-06T11:14:16Z</time>
      </trkpt>
      <trkpt lat="41.661508089" lon="2.528155275">
        <ele>278.44</ele>
        <time>2014-04-06T11:14:19Z</time>
      </trkpt>
      <trkpt lat="41.661729874" lon="2.527889988">
        <ele>276.04</ele>
        <time>2014-04-06T11:14:25Z</time>
      </trkpt>
      <trkpt lat="41.661731551" lon="2.527634088">
        <ele>275.07</ele>
        <time>2014-04-06T11:14:29Z</time>
      </trkpt>
      <trkpt lat="41.661802294" lon="2.527517831">
        <ele>274.59</ele>
        <time>2014-04-06T11:14:33Z</time>
      </trkpt>
      <trkpt lat="41.661948307" lon="2.527409034">
        <ele>274.59</ele>
        <time>2014-04-06T11:14:40Z</time>
      </trkpt>
      <trkpt lat="41.662061546" lon="2.527233014">
        <ele>274.11</ele>
        <time>2014-04-06T11:14:45Z</time>
      </trkpt>
      <trkpt lat="41.662248463" lon="2.526840406">
        <ele>273.15</ele>
        <time>2014-04-06T11:14:53Z</time>
      </trkpt>
      <trkpt lat="41.662444012" lon="2.526440170">
        <ele>270.27</ele>
        <time>2014-04-06T11:15:00Z</time>
      </trkpt>
      <trkpt lat="41.662525149" lon="2.526278315">
        <ele>268.35</ele>
        <time>2014-04-06T11:15:04Z</time>
      </trkpt>
      <trkpt lat="41.662663534" lon="2.526311256">
        <ele>267.86</ele>
        <time>2014-04-06T11:15:09Z</time>
      </trkpt>
      <trkpt lat="41.662923122" lon="2.526328020">
        <ele>267.38</ele>
        <time>2014-04-06T11:15:17Z</time>
      </trkpt>
      <trkpt lat="41.663114397" lon="2.526265323">
        <ele>267.38</ele>
        <time>2014-04-06T11:15:24Z</time>
      </trkpt>
      <trkpt lat="41.663251944" lon="2.526240932">
        <ele>268.83</ele>
        <time>2014-04-06T11:15:30Z</time>
      </trkpt>
      <trkpt lat="41.663358729" lon="2.526222408">
        <ele>269.31</ele>
        <time>2014-04-06T11:15:35Z</time>
      </trkpt>
      <trkpt lat="41.663443638" lon="2.526104139">
        <ele>269.31</ele>
        <time>2014-04-06T11:15:40Z</time>
      </trkpt>
      <trkpt lat="41.663399382" lon="2.525871541">
        <ele>269.31</ele>
        <time>2014-04-06T11:15:46Z</time>
      </trkpt>
      <trkpt lat="41.663344899" lon="2.525734833">
        <ele>267.86</ele>
        <time>2014-04-06T11:15:50Z</time>
      </trkpt>
      <trkpt lat="41.663361747" lon="2.525726283">
        <ele>267.38</ele>
        <time>2014-04-06T11:15:57Z</time>
      </trkpt>
      <trkpt lat="41.663359652" lon="2.525716644">
        <ele>267.86</ele>
        <time>2014-04-06T11:16:19Z</time>
      </trkpt>
      <trkpt lat="41.663353365" lon="2.525716392">
        <ele>267.86</ele>
        <time>2014-04-06T11:16:27Z</time>
      </trkpt>
      <trkpt lat="41.663300475" lon="2.525662664">
        <ele>266.90</ele>
        <time>2014-04-06T11:16:33Z</time>
      </trkpt>
      <trkpt lat="41.663281532" lon="2.525628215">
        <ele>266.90</ele>
        <time>2014-04-06T11:16:34Z</time>
      </trkpt>
      <trkpt lat="41.663133424" lon="2.525357479">
        <ele>265.46</ele>
        <time>2014-04-06T11:16:39Z</time>
      </trkpt>
      <trkpt lat="41.663081875" lon="2.525081882">
        <ele>264.02</ele>
        <time>2014-04-06T11:16:44Z</time>
      </trkpt>
      <trkpt lat="41.663181368" lon="2.524807124">
        <ele>262.10</ele>
        <time>2014-04-06T11:16:48Z</time>
      </trkpt>
      <trkpt lat="41.663217075" lon="2.524743840">
        <ele>262.10</ele>
        <time>2014-04-06T11:16:49Z</time>
      </trkpt>
      <trkpt lat="41.663362753" lon="2.524515936">
        <ele>261.62</ele>
        <time>2014-04-06T11:16:53Z</time>
      </trkpt>
      <trkpt lat="41.663484039" lon="2.524174206">
        <ele>259.69</ele>
        <time>2014-04-06T11:16:59Z</time>
      </trkpt>
      <trkpt lat="41.663504994" lon="2.524021069">
        <ele>257.77</ele>
        <time>2014-04-06T11:17:02Z</time>
      </trkpt>
      <trkpt lat="41.663499378" lon="2.523688391">
        <ele>257.29</ele>
        <time>2014-04-06T11:17:10Z</time>
      </trkpt>
      <trkpt lat="41.663498121" lon="2.523631478">
        <ele>257.29</ele>
        <time>2014-04-06T11:17:11Z</time>
      </trkpt>
      <trkpt lat="41.663603565" lon="2.523376919">
        <ele>255.37</ele>
        <time>2014-04-06T11:17:16Z</time>
      </trkpt>
      <trkpt lat="41.663788889" lon="2.523206012">
        <ele>254.89</ele>
        <time>2014-04-06T11:17:22Z</time>
      </trkpt>
      <trkpt lat="41.663981840" lon="2.522970313">
        <ele>252.96</ele>
        <time>2014-04-06T11:17:27Z</time>
      </trkpt>
      <trkpt lat="41.664005142" lon="2.522889763">
        <ele>252.96</ele>
        <time>2014-04-06T11:17:28Z</time>
      </trkpt>
      <trkpt lat="41.664034562" lon="2.522746852">
        <ele>252.00</ele>
        <time>2014-04-06T11:17:30Z</time>
      </trkpt>
      <trkpt lat="41.664196333" lon="2.522650879">
        <ele>251.04</ele>
        <time>2014-04-06T11:17:36Z</time>
      </trkpt>
      <trkpt lat="41.664232124" lon="2.522635792">
        <ele>251.04</ele>
        <time>2014-04-06T11:17:37Z</time>
      </trkpt>
      <trkpt lat="41.664360786" lon="2.522471422">
        <ele>251.04</ele>
        <time>2014-04-06T11:17:41Z</time>
      </trkpt>
      <trkpt lat="41.664500177" lon="2.522129692">
        <ele>250.56</ele>
        <time>2014-04-06T11:17:49Z</time>
      </trkpt>
      <trkpt lat="41.664610231" lon="2.521895670">
        <ele>252.00</ele>
        <time>2014-04-06T11:17:56Z</time>
      </trkpt>
      <trkpt lat="41.664658427" lon="2.521721074">
        <ele>254.41</ele>
        <time>2014-04-06T11:18:04Z</time>
      </trkpt>
      <trkpt lat="41.664675778" lon="2.521543127">
        <ele>254.89</ele>
        <time>2014-04-06T11:18:10Z</time>
      </trkpt>
      <trkpt lat="41.664726908" lon="2.521167198">
        <ele>254.89</ele>
        <time>2014-04-06T11:18:17Z</time>
      </trkpt>
      <trkpt lat="41.664731434" lon="2.521107938">
        <ele>254.89</ele>
        <time>2014-04-06T11:18:18Z</time>
      </trkpt>
      <trkpt lat="41.664710898" lon="2.520884728">
        <ele>253.44</ele>
        <time>2014-04-06T11:18:22Z</time>
      </trkpt>
      <trkpt lat="41.664694470" lon="2.520709630">
        <ele>252.96</ele>
        <time>2014-04-06T11:18:25Z</time>
      </trkpt>
      <trkpt lat="41.664748281" lon="2.520285422">
        <ele>252.00</ele>
        <time>2014-04-06T11:18:33Z</time>
      </trkpt>
      <trkpt lat="41.664771499" lon="2.520253822">
        <ele>252.00</ele>
        <time>2014-04-06T11:18:34Z</time>
      </trkpt>
      <trkpt lat="41.664922122" lon="2.520187354">
        <ele>252.00</ele>
        <time>2014-04-06T11:18:41Z</time>
      </trkpt>
      <trkpt lat="41.665004935" lon="2.520086771">
        <ele>252.00</ele>
        <time>2014-04-06T11:18:46Z</time>
      </trkpt>
      <trkpt lat="41.665139046" lon="2.520048969">
        <ele>252.00</ele>
        <time>2014-04-06T11:18:52Z</time>
      </trkpt>
      <trkpt lat="41.665178524" lon="2.520071516">
        <ele>253.44</ele>
        <time>2014-04-06T11:18:54Z</time>
      </trkpt>
      <trkpt lat="41.665204257" lon="2.520162124">
        <ele>253.93</ele>
        <time>2014-04-06T11:18:58Z</time>
      </trkpt>
      <trkpt lat="41.665164191" lon="2.520352561">
        <ele>256.33</ele>
        <time>2014-04-06T11:19:07Z</time>
      </trkpt>
      <trkpt lat="41.665168047" lon="2.520467645">
        <ele>257.77</ele>
        <time>2014-04-06T11:19:13Z</time>
      </trkpt>
      <trkpt lat="41.665248597" lon="2.520577615">
        <ele>260.17</ele>
        <time>2014-04-06T11:19:21Z</time>
      </trkpt>
      <trkpt lat="41.665357730" lon="2.520621453">
        <ele>261.14</ele>
        <time>2014-04-06T11:19:29Z</time>
      </trkpt>
      <trkpt lat="41.665480692" lon="2.520713570">
        <ele>261.62</ele>
        <time>2014-04-06T11:19:37Z</time>
      </trkpt>
      <trkpt lat="41.665623604" lon="2.520891098">
        <ele>263.06</ele>
        <time>2014-04-06T11:19:48Z</time>
      </trkpt>
      <trkpt lat="41.665758468" lon="2.520960752">
        <ele>263.06</ele>
        <time>2014-04-06T11:19:55Z</time>
      </trkpt>
      <trkpt lat="41.665898614" lon="2.520986904">
        <ele>263.06</ele>
        <time>2014-04-06T11:20:01Z</time>
      </trkpt>
      <trkpt lat="41.666057954" lon="2.521084888">
        <ele>263.06</ele>
        <time>2014-04-06T11:20:07Z</time>
      </trkpt>
      <trkpt lat="41.666218048" lon="2.521259735">
        <ele>263.06</ele>
        <time>2014-04-06T11:20:15Z</time>
      </trkpt>
      <trkpt lat="41.666347046" lon="2.521448411">
        <ele>262.58</ele>
        <time>2014-04-06T11:20:23Z</time>
      </trkpt>
      <trkpt lat="41.666386105" lon="2.521471126">
        <ele>262.58</ele>
        <time>2014-04-06T11:20:25Z</time>
      </trkpt>
      <trkpt lat="41.666565981" lon="2.521455284">
        <ele>263.54</ele>
        <time>2014-04-06T11:20:33Z</time>
      </trkpt>
      <trkpt lat="41.666602275" lon="2.521436425">
        <ele>264.02</ele>
        <time>2014-04-06T11:20:35Z</time>
      </trkpt>
      <trkpt lat="41.666638149" lon="2.521362497">
        <ele>264.02</ele>
        <time>2014-04-06T11:20:38Z</time>
      </trkpt>
      <trkpt lat="41.666601101" lon="2.521124451">
        <ele>264.50</ele>
        <time>2014-04-06T11:20:46Z</time>
      </trkpt>
      <trkpt lat="41.666585259" lon="2.521086397">
        <ele>264.50</ele>
        <time>2014-04-06T11:20:47Z</time>
      </trkpt>
      <trkpt lat="41.666466823" lon="2.520924039">
        <ele>263.06</ele>
        <time>2014-04-06T11:20:51Z</time>
      </trkpt>
      <trkpt lat="41.666402618" lon="2.520721700">
        <ele>260.65</ele>
        <time>2014-04-06T11:20:55Z</time>
      </trkpt>
      <trkpt lat="41.666331791" lon="2.520613406">
        <ele>259.69</ele>
        <time>2014-04-06T11:20:57Z</time>
      </trkpt>
      <trkpt lat="41.666232633" lon="2.520555152">
        <ele>258.25</ele>
        <time>2014-04-06T11:20:59Z</time>
      </trkpt>
      <trkpt lat="41.666121656" lon="2.520481223">
        <ele>257.29</ele>
        <time>2014-04-06T11:21:01Z</time>
      </trkpt>
      <trkpt lat="41.665956952" lon="2.520394554">
        <ele>254.89</ele>
        <time>2014-04-06T11:21:04Z</time>
      </trkpt>
      <trkpt lat="41.665838767" lon="2.520219708">
        <ele>252.00</ele>
        <time>2014-04-06T11:21:07Z</time>
      </trkpt>
      <trkpt lat="41.665602565" lon="2.519690978">
        <ele>249.12</ele>
        <time>2014-04-06T11:21:14Z</time>
      </trkpt>
      <trkpt lat="41.665414391" lon="2.519241624">
        <ele>249.12</ele>
        <time>2014-04-06T11:21:20Z</time>
      </trkpt>
      <trkpt lat="41.665365944" lon="2.518977342">
        <ele>251.04</ele>
        <time>2014-04-06T11:21:27Z</time>
      </trkpt>
      <trkpt lat="41.665374493" lon="2.518648269">
        <ele>251.04</ele>
        <time>2014-04-06T11:21:34Z</time>
      </trkpt>
      <trkpt lat="41.665354964" lon="2.518469986">
        <ele>251.52</ele>
        <time>2014-04-06T11:21:40Z</time>
      </trkpt>
      <trkpt lat="41.665352198" lon="2.518102272">
        <ele>251.52</ele>
        <time>2014-04-06T11:21:49Z</time>
      </trkpt>
      <trkpt lat="41.665349683" lon="2.517919630">
        <ele>251.52</ele>
        <time>2014-04-06T11:21:52Z</time>
      </trkpt>
      <trkpt lat="41.665345073" lon="2.517766576">
        <ele>250.56</ele>
        <time>2014-04-06T11:21:54Z</time>
      </trkpt>
      <trkpt lat="41.665312970" lon="2.517533392">
        <ele>248.16</ele>
        <time>2014-04-06T11:21:57Z</time>
      </trkpt>
      <trkpt lat="41.665276174" lon="2.517165762">
        <ele>244.31</ele>
        <time>2014-04-06T11:22:01Z</time>
      </trkpt>
      <trkpt lat="41.665307019" lon="2.516838281">
        <ele>240.95</ele>
        <time>2014-04-06T11:22:05Z</time>
      </trkpt>
      <trkpt lat="41.665516818" lon="2.516405691">
        <ele>236.62</ele>
        <time>2014-04-06T11:22:10Z</time>
      </trkpt>
      <trkpt lat="41.665666519" lon="2.516225061">
        <ele>235.18</ele>
        <time>2014-04-06T11:22:13Z</time>
      </trkpt>
      <trkpt lat="41.665879671" lon="2.516070414">
        <ele>232.78</ele>
        <time>2014-04-06T11:22:17Z</time>
      </trkpt>
      <trkpt lat="41.666116459" lon="2.515829938">
        <ele>229.89</ele>
        <time>2014-04-06T11:22:22Z</time>
      </trkpt>
      <trkpt lat="41.666249145" lon="2.515634555">
        <ele>230.37</ele>
        <time>2014-04-06T11:22:26Z</time>
      </trkpt>
      <trkpt lat="41.666466907" lon="2.515266087">
        <ele>231.33</ele>
        <time>2014-04-06T11:22:36Z</time>
      </trkpt>
      <trkpt lat="41.666618871" lon="2.515086714">
        <ele>231.33</ele>
        <time>2014-04-06T11:22:43Z</time>
      </trkpt>
      <trkpt lat="41.666802518" lon="2.514922261">
        <ele>231.33</ele>
        <time>2014-04-06T11:22:50Z</time>
      </trkpt>
      <trkpt lat="41.667006869" lon="2.514718581">
        <ele>231.33</ele>
        <time>2014-04-06T11:22:57Z</time>
      </trkpt>
      <trkpt lat="41.667122875" lon="2.514512219">
        <ele>232.30</ele>
        <time>2014-04-06T11:23:03Z</time>
      </trkpt>
      <trkpt lat="41.667263942" lon="2.514364865">
        <ele>232.78</ele>
        <time>2014-04-06T11:23:09Z</time>
      </trkpt>
      <trkpt lat="41.667506682" lon="2.514240226">
        <ele>232.78</ele>
        <time>2014-04-06T11:23:17Z</time>
      </trkpt>
      <trkpt lat="41.667547753" lon="2.514226228">
        <ele>232.78</ele>
        <time>2014-04-06T11:23:18Z</time>
      </trkpt>
      <trkpt lat="41.667698795" lon="2.514097482">
        <ele>231.81</ele>
        <time>2014-04-06T11:23:22Z</time>
      </trkpt>
      <trkpt lat="41.667822680" lon="2.513820712">
        <ele>231.81</ele>
        <time>2014-04-06T11:23:29Z</time>
      </trkpt>
      <trkpt lat="41.667968357" lon="2.513526255">
        <ele>232.78</ele>
        <time>2014-04-06T11:23:38Z</time>
      </trkpt>
      <trkpt lat="41.668069443" lon="2.513358114">
        <ele>233.26</ele>
        <time>2014-04-06T11:23:44Z</time>
      </trkpt>
      <trkpt lat="41.668241859" lon="2.513234900">
        <ele>231.33</ele>
        <time>2014-04-06T11:23:51Z</time>
      </trkpt>
      <trkpt lat="41.668511840" lon="2.513170695">
        <ele>230.37</ele>
        <time>2014-04-06T11:23:59Z</time>
      </trkpt>
      <trkpt lat="41.668763884" lon="2.513225177">
        <ele>228.45</ele>
        <time>2014-04-06T11:24:04Z</time>
      </trkpt>
      <trkpt lat="41.668811996" lon="2.513242947">
        <ele>227.49</ele>
        <time>2014-04-06T11:24:05Z</time>
      </trkpt>
      <trkpt lat="41.668907298" lon="2.513239762">
        <ele>227.01</ele>
        <time>2014-04-06T11:24:07Z</time>
      </trkpt>
      <trkpt lat="41.668995559" lon="2.513194248">
        <ele>226.53</ele>
        <time>2014-04-06T11:24:09Z</time>
      </trkpt>
      <trkpt lat="41.669234527" lon="2.513033567">
        <ele>225.57</ele>
        <time>2014-04-06T11:24:16Z</time>
      </trkpt>
      <trkpt lat="41.669281969" lon="2.513007835">
        <ele>225.57</ele>
        <time>2014-04-06T11:24:18Z</time>
      </trkpt>
      <trkpt lat="41.669350701" lon="2.512965003">
        <ele>225.57</ele>
        <time>2014-04-06T11:24:24Z</time>
      </trkpt>
      <trkpt lat="41.669381797" lon="2.512952346">
        <ele>225.57</ele>
        <time>2014-04-06T11:24:34Z</time>
      </trkpt>
      <trkpt lat="41.669402417" lon="2.512921669">
        <ele>225.57</ele>
        <time>2014-04-06T11:24:55Z</time>
      </trkpt>
      <trkpt lat="41.669413397" lon="2.512881016">
        <ele>225.57</ele>
        <time>2014-04-06T11:25:22Z</time>
      </trkpt>
      <trkpt lat="41.669416834" lon="2.512894595">
        <ele>225.57</ele>
        <time>2014-04-06T11:25:50Z</time>
      </trkpt>
      <trkpt lat="41.669400824" lon="2.512909347">
        <ele>225.57</ele>
        <time>2014-04-06T11:26:15Z</time>
      </trkpt>
      <trkpt lat="41.669397891" lon="2.512930218">
        <ele>225.57</ele>
        <time>2014-04-06T11:26:36Z</time>
      </trkpt>
      <trkpt lat="41.669379283" lon="2.512931811">
        <ele>225.57</ele>
        <time>2014-04-06T11:27:03Z</time>
      </trkpt>
      <trkpt lat="41.669389174" lon="2.512903061">
        <ele>226.05</ele>
        <time>2014-04-06T11:27:18Z</time>
      </trkpt>
      <trkpt lat="41.669403758" lon="2.512887554">
        <ele>226.05</ele>
        <time>2014-04-06T11:27:29Z</time>
      </trkpt>
      <trkpt lat="41.669445081" lon="2.512849584">
        <ele>226.05</ele>
        <time>2014-04-06T11:27:37Z</time>
      </trkpt>
      <trkpt lat="41.669485985" lon="2.512799796">
        <ele>226.05</ele>
        <time>2014-04-06T11:27:44Z</time>
      </trkpt>
      <trkpt lat="41.669493696" lon="2.512782529">
        <ele>226.05</ele>
        <time>2014-04-06T11:27:53Z</time>
      </trkpt>
      <trkpt lat="41.669530073" lon="2.512708433">
        <ele>226.05</ele>
        <time>2014-04-06T11:28:12Z</time>
      </trkpt>
      <trkpt lat="41.669559075" lon="2.512669122">
        <ele>226.05</ele>
        <time>2014-04-06T11:28:22Z</time>
      </trkpt>
      <trkpt lat="41.669568127" lon="2.512663087">
        <ele>226.05</ele>
        <time>2014-04-06T11:28:32Z</time>
      </trkpt>
      <trkpt lat="41.669572486" lon="2.512678342">
        <ele>226.05</ele>
        <time>2014-04-06T11:28:48Z</time>
      </trkpt>
      <trkpt lat="41.669592183" lon="2.512672642">
        <ele>226.05</ele>
        <time>2014-04-06T11:29:00Z</time>
      </trkpt>
      <trkpt lat="41.669598386" lon="2.512647413">
        <ele>226.05</ele>
        <time>2014-04-06T11:29:06Z</time>
      </trkpt>
      <trkpt lat="41.669664435" lon="2.512536436">
        <ele>227.49</ele>
        <time>2014-04-06T11:29:14Z</time>
      </trkpt>
      <trkpt lat="41.669693604" lon="2.512494108">
        <ele>227.97</ele>
        <time>2014-04-06T11:29:17Z</time>
      </trkpt>
      <trkpt lat="41.669691425" lon="2.512329655">
        <ele>227.97</ele>
        <time>2014-04-06T11:29:24Z</time>
      </trkpt>
      <trkpt lat="41.669697795" lon="2.512210045">
        <ele>227.49</ele>
        <time>2014-04-06T11:29:31Z</time>
      </trkpt>
      <trkpt lat="41.669699136" lon="2.512164028">
        <ele>226.53</ele>
        <time>2014-04-06T11:29:44Z</time>
      </trkpt>
      <trkpt lat="41.669695364" lon="2.512157826">
        <ele>226.53</ele>
        <time>2014-04-06T11:30:04Z</time>
      </trkpt>
      <trkpt lat="41.669696873" lon="2.512149863">
        <ele>226.53</ele>
        <time>2014-04-06T11:30:16Z</time>
      </trkpt>
      <trkpt lat="41.669707183" lon="2.512115330">
        <ele>226.53</ele>
        <time>2014-04-06T11:30:32Z</time>
      </trkpt>
      <trkpt lat="41.669713302" lon="2.511905531">
        <ele>226.53</ele>
        <time>2014-04-06T11:30:40Z</time>
      </trkpt>
      <trkpt lat="41.669667201" lon="2.511662372">
        <ele>226.53</ele>
        <time>2014-04-06T11:30:46Z</time>
      </trkpt>
      <trkpt lat="41.669554297" lon="2.511402700">
        <ele>225.09</ele>
        <time>2014-04-06T11:30:52Z</time>
      </trkpt>
      <trkpt lat="41.669515070" lon="2.511298848">
        <ele>225.09</ele>
        <time>2014-04-06T11:30:54Z</time>
      </trkpt>
      <trkpt lat="41.669488918" lon="2.511057617">
        <ele>224.61</ele>
        <time>2014-04-06T11:30:58Z</time>
      </trkpt>
      <trkpt lat="41.669489673" lon="2.510690909">
        <ele>223.16</ele>
        <time>2014-04-06T11:31:04Z</time>
      </trkpt>
      <trkpt lat="41.669490008" lon="2.510376420">
        <ele>221.72</ele>
        <time>2014-04-06T11:31:09Z</time>
      </trkpt>
      <trkpt lat="41.669501826" lon="2.510160418">
        <ele>221.24</ele>
        <time>2014-04-06T11:31:12Z</time>
      </trkpt>
      <trkpt lat="41.669475507" lon="2.509847941">
        <ele>219.80</ele>
        <time>2014-04-06T11:31:18Z</time>
      </trkpt>
      <trkpt lat="41.669397723" lon="2.509849869">
        <ele>219.32</ele>
        <time>2014-04-06T11:31:22Z</time>
      </trkpt>
      <trkpt lat="41.669199994" lon="2.510003425">
        <ele>219.32</ele>
        <time>2014-04-06T11:31:30Z</time>
      </trkpt>
      <trkpt lat="41.669130173" lon="2.510041311">
        <ele>219.32</ele>
        <time>2014-04-06T11:31:33Z</time>
      </trkpt>
      <trkpt lat="41.669039983" lon="2.509961181">
        <ele>219.32</ele>
        <time>2014-04-06T11:31:38Z</time>
      </trkpt>
      <trkpt lat="41.668915512" lon="2.509998899">
        <ele>219.32</ele>
        <time>2014-04-06T11:31:44Z</time>
      </trkpt>
      <trkpt lat="41.668877626" lon="2.510044245">
        <ele>219.32</ele>
        <time>2014-04-06T11:31:46Z</time>
      </trkpt>
      <trkpt lat="41.668850301" lon="2.510091687">
        <ele>220.28</ele>
        <time>2014-04-06T11:31:48Z</time>
      </trkpt>
      <trkpt lat="41.668802859" lon="2.510150025">
        <ele>220.76</ele>
        <time>2014-04-06T11:31:51Z</time>
      </trkpt>
      <trkpt lat="41.668659864" lon="2.510285225">
        <ele>222.68</ele>
        <time>2014-04-06T11:32:00Z</time>
      </trkpt>
      <trkpt lat="41.668512426" lon="2.510382120">
        <ele>224.61</ele>
        <time>2014-04-06T11:32:08Z</time>
      </trkpt>
      <trkpt lat="41.668378567" lon="2.510483708">
        <ele>225.57</ele>
        <time>2014-04-06T11:32:15Z</time>
      </trkpt>
      <trkpt lat="41.668191483" lon="2.510590242">
        <ele>226.53</ele>
        <time>2014-04-06T11:32:24Z</time>
      </trkpt>
      <trkpt lat="41.668007668" lon="2.510649921">
        <ele>227.97</ele>
        <time>2014-04-06T11:32:32Z</time>
      </trkpt>
      <trkpt lat="41.667830391" lon="2.510679593">
        <ele>228.93</ele>
        <time>2014-04-06T11:32:40Z</time>
      </trkpt>
      <trkpt lat="41.667698292" lon="2.510773555">
        <ele>229.41</ele>
        <time>2014-04-06T11:32:46Z</time>
      </trkpt>
      <trkpt lat="41.667622185" lon="2.510937672">
        <ele>227.97</ele>
        <time>2014-04-06T11:32:50Z</time>
      </trkpt>
      <trkpt lat="41.667614054" lon="2.511054851">
        <ele>229.41</ele>
        <time>2014-04-06T11:32:54Z</time>
      </trkpt>
      <trkpt lat="41.667535013" lon="2.511233218">
        <ele>231.81</ele>
        <time>2014-04-06T11:33:04Z</time>
      </trkpt>
      <trkpt lat="41.667437280" lon="2.511444442">
        <ele>232.30</ele>
        <time>2014-04-06T11:33:12Z</time>
      </trkpt>
      <trkpt lat="41.667339966" lon="2.511618953">
        <ele>232.78</ele>
        <time>2014-04-06T11:33:19Z</time>
      </trkpt>
      <trkpt lat="41.667247430" lon="2.511817688">
        <ele>234.70</ele>
        <time>2014-04-06T11:33:28Z</time>
      </trkpt>
      <trkpt lat="41.667147350" lon="2.512060009">
        <ele>235.66</ele>
        <time>2014-04-06T11:33:38Z</time>
      </trkpt>
      <trkpt lat="41.667107871" lon="2.512306521">
        <ele>236.62</ele>
        <time>2014-04-06T11:33:47Z</time>
      </trkpt>
      <trkpt lat="41.667006031" lon="2.512412468">
        <ele>237.58</ele>
        <time>2014-04-06T11:33:54Z</time>
      </trkpt>
      <trkpt lat="41.666900167" lon="2.512412971">
        <ele>237.58</ele>
        <time>2014-04-06T11:33:57Z</time>
      </trkpt>
      <trkpt lat="41.666752394" lon="2.512472818">
        <ele>237.58</ele>
        <time>2014-04-06T11:34:02Z</time>
      </trkpt>
      <trkpt lat="41.666721633" lon="2.512493689">
        <ele>237.58</ele>
        <time>2014-04-06T11:34:04Z</time>
      </trkpt>
      <trkpt lat="41.666678466" lon="2.512502741">
        <ele>237.58</ele>
        <time>2014-04-06T11:34:07Z</time>
      </trkpt>
      <trkpt lat="41.666656003" lon="2.512522606">
        <ele>237.58</ele>
        <time>2014-04-06T11:34:09Z</time>
      </trkpt>
      <trkpt lat="41.666642340" lon="2.512545657">
        <ele>236.14</ele>
        <time>2014-04-06T11:34:11Z</time>
      </trkpt>
      <trkpt lat="41.666638987" lon="2.512585303">
        <ele>235.66</ele>
        <time>2014-04-06T11:34:14Z</time>
      </trkpt>
      <trkpt lat="41.666552067" lon="2.512688903">
        <ele>230.85</ele>
        <time>2014-04-06T11:34:20Z</time>
      </trkpt>
      <trkpt lat="41.666508146" lon="2.512690412">
        <ele>230.37</ele>
        <time>2014-04-06T11:34:22Z</time>
      </trkpt>
      <trkpt lat="41.666358613" lon="2.512598295">
        <ele>230.37</ele>
        <time>2014-04-06T11:34:30Z</time>
      </trkpt>
      <trkpt lat="41.666250989" lon="2.512535766">
        <ele>231.81</ele>
        <time>2014-04-06T11:34:36Z</time>
      </trkpt>
      <trkpt lat="41.666201368" lon="2.512509531">
        <ele>232.30</ele>
        <time>2014-04-06T11:34:39Z</time>
      </trkpt>
      <trkpt lat="41.666074131" lon="2.512417162">
        <ele>233.74</ele>
        <time>2014-04-06T11:34:48Z</time>
      </trkpt>
      <trkpt lat="41.666050997" lon="2.512392016">
        <ele>234.22</ele>
        <time>2014-04-06T11:34:50Z</time>
      </trkpt>
      <trkpt lat="41.665954521" lon="2.512406852">
        <ele>235.18</ele>
        <time>2014-04-06T11:34:57Z</time>
      </trkpt>
      <trkpt lat="41.665926777" lon="2.512396794">
        <ele>235.18</ele>
        <time>2014-04-06T11:34:59Z</time>
      </trkpt>
      <trkpt lat="41.665873384" lon="2.512391513">
        <ele>235.18</ele>
        <time>2014-04-06T11:35:03Z</time>
      </trkpt>
      <trkpt lat="41.665826781" lon="2.512416743">
        <ele>237.10</ele>
        <time>2014-04-06T11:35:06Z</time>
      </trkpt>
      <trkpt lat="41.665790152" lon="2.512412300">
        <ele>237.10</ele>
        <time>2014-04-06T11:35:09Z</time>
      </trkpt>
      <trkpt lat="41.665740112" lon="2.512432668">
        <ele>238.06</ele>
        <time>2014-04-06T11:35:13Z</time>
      </trkpt>
      <trkpt lat="41.665727372" lon="2.512453372">
        <ele>238.54</ele>
        <time>2014-04-06T11:35:15Z</time>
      </trkpt>
      <trkpt lat="41.665765425" lon="2.512551608">
        <ele>240.95</ele>
        <time>2014-04-06T11:35:22Z</time>
      </trkpt>
      <trkpt lat="41.665822590" lon="2.512659064">
        <ele>244.31</ele>
        <time>2014-04-06T11:35:32Z</time>
      </trkpt>
      <trkpt lat="41.665813370" lon="2.512680689">
        <ele>244.31</ele>
        <time>2014-04-06T11:35:35Z</time>
      </trkpt>
      <trkpt lat="41.665726114" lon="2.512634086">
        <ele>245.75</ele>
        <time>2014-04-06T11:35:43Z</time>
      </trkpt>
      <trkpt lat="41.665636009" lon="2.512564516">
        <ele>246.72</ele>
        <time>2014-04-06T11:35:51Z</time>
      </trkpt>
      <trkpt lat="41.665571720" lon="2.512501400">
        <ele>248.16</ele>
        <time>2014-04-06T11:35:58Z</time>
      </trkpt>
      <trkpt lat="41.665519416" lon="2.512526881">
        <ele>249.12</ele>
        <time>2014-04-06T11:36:04Z</time>
      </trkpt>
      <trkpt lat="41.665523943" lon="2.512552111">
        <ele>249.12</ele>
        <time>2014-04-06T11:36:06Z</time>
      </trkpt>
      <trkpt lat="41.665513382" lon="2.512644982">
        <ele>249.12</ele>
        <time>2014-04-06T11:36:12Z</time>
      </trkpt>
      <trkpt lat="41.665480524" lon="2.512737602">
        <ele>249.60</ele>
        <time>2014-04-06T11:36:20Z</time>
      </trkpt>
      <trkpt lat="41.665507849" lon="2.512804238">
        <ele>249.60</ele>
        <time>2014-04-06T11:36:24Z</time>
      </trkpt>
      <trkpt lat="41.665577084" lon="2.512900798">
        <ele>248.16</ele>
        <time>2014-04-06T11:36:32Z</time>
      </trkpt>
      <trkpt lat="41.665603990" lon="2.513041278">
        <ele>247.20</ele>
        <time>2014-04-06T11:36:39Z</time>
      </trkpt>
      <trkpt lat="41.665591082" lon="2.513048319">
        <ele>247.20</ele>
        <time>2014-04-06T11:36:44Z</time>
      </trkpt>
      <trkpt lat="41.665583873" lon="2.513038680">
        <ele>246.72</ele>
        <time>2014-04-06T11:36:55Z</time>
      </trkpt>
      <trkpt lat="41.665585298" lon="2.513066592">
        <ele>246.72</ele>
        <time>2014-04-06T11:37:04Z</time>
      </trkpt>
      <trkpt lat="41.665599296" lon="2.513064161">
        <ele>246.72</ele>
        <time>2014-04-06T11:37:20Z</time>
      </trkpt>
      <trkpt lat="41.665631818" lon="2.513077488">
        <ele>246.72</ele>
        <time>2014-04-06T11:37:36Z</time>
      </trkpt>
      <trkpt lat="41.665623101" lon="2.513052845">
        <ele>247.20</ele>
        <time>2014-04-06T11:37:52Z</time>
      </trkpt>
      <trkpt lat="41.665611450" lon="2.513066927">
        <ele>247.20</ele>
        <time>2014-04-06T11:38:09Z</time>
      </trkpt>
      <trkpt lat="41.665596195" lon="2.513067681">
        <ele>247.20</ele>
        <time>2014-04-06T11:38:23Z</time>
      </trkpt>
      <trkpt lat="41.665604241" lon="2.513073214">
        <ele>247.20</ele>
        <time>2014-04-06T11:38:36Z</time>
      </trkpt>
      <trkpt lat="41.665621424" lon="2.513070531">
        <ele>247.20</ele>
        <time>2014-04-06T11:38:52Z</time>
      </trkpt>
      <trkpt lat="41.665587310" lon="2.513091402">
        <ele>247.20</ele>
        <time>2014-04-06T11:39:10Z</time>
      </trkpt>
      <trkpt lat="41.665579347" lon="2.513085619">
        <ele>247.20</ele>
        <time>2014-04-06T11:39:25Z</time>
      </trkpt>
      <trkpt lat="41.665602649" lon="2.513066927">
        <ele>247.20</ele>
        <time>2014-04-06T11:39:42Z</time>
      </trkpt>
      <trkpt lat="41.665589154" lon="2.513073800">
        <ele>247.20</ele>
        <time>2014-04-06T11:39:53Z</time>
      </trkpt>
      <trkpt lat="41.665604744" lon="2.513057707">
        <ele>247.20</ele>
        <time>2014-04-06T11:40:14Z</time>
      </trkpt>
      <trkpt lat="41.665582616" lon="2.513064580">
        <ele>247.20</ele>
        <time>2014-04-06T11:40:34Z</time>
      </trkpt>
      <trkpt lat="41.665551268" lon="2.513090816">
        <ele>247.20</ele>
        <time>2014-04-06T11:41:02Z</time>
      </trkpt>
      <trkpt lat="41.665575659" lon="2.513085116">
        <ele>247.20</ele>
        <time>2014-04-06T11:41:23Z</time>
      </trkpt>
      <trkpt lat="41.665570127" lon="2.513106993">
        <ele>247.20</ele>
        <time>2014-04-06T11:41:39Z</time>
      </trkpt>
      <trkpt lat="41.665548586" lon="2.513074890">
        <ele>247.20</ele>
        <time>2014-04-06T11:41:55Z</time>
      </trkpt>
      <trkpt lat="41.665568367" lon="2.513070028">
        <ele>247.20</ele>
        <time>2014-04-06T11:42:23Z</time>
      </trkpt>
      <trkpt lat="41.665601056" lon="2.513066173">
        <ele>248.16</ele>
        <time>2014-04-06T11:42:46Z</time>
      </trkpt>
      <trkpt lat="41.665584460" lon="2.513073465">
        <ele>248.16</ele>
        <time>2014-04-06T11:43:11Z</time>
      </trkpt>
      <trkpt lat="41.665590663" lon="2.513079500">
        <ele>248.16</ele>
        <time>2014-04-06T11:43:30Z</time>
      </trkpt>
      <trkpt lat="41.665591333" lon="2.513061814">
        <ele>248.16</ele>
        <time>2014-04-06T11:43:48Z</time>
      </trkpt>
      <trkpt lat="41.665596614" lon="2.513062485">
        <ele>248.16</ele>
        <time>2014-04-06T11:44:09Z</time>
      </trkpt>
      <trkpt lat="41.665582951" lon="2.513076231">
        <ele>248.16</ele>
        <time>2014-04-06T11:44:31Z</time>
      </trkpt>
      <trkpt lat="41.665575072" lon="2.513069274">
        <ele>248.16</ele>
        <time>2014-04-06T11:44:57Z</time>
      </trkpt>
      <trkpt lat="41.665584376" lon="2.513074555">
        <ele>248.16</ele>
        <time>2014-04-06T11:45:22Z</time>
      </trkpt>
      <trkpt lat="41.665588819" lon="2.513066089">
        <ele>248.16</ele>
        <time>2014-04-06T11:45:50Z</time>
      </trkpt>
      <trkpt lat="41.665605247" lon="2.513076818">
        <ele>248.16</ele>
        <time>2014-04-06T11:46:10Z</time>
      </trkpt>
      <trkpt lat="41.665606672" lon="2.513077656">
        <ele>248.16</ele>
        <time>2014-04-06T11:46:25Z</time>
      </trkpt>
      <trkpt lat="41.665606169" lon="2.513085535">
        <ele>248.16</ele>
        <time>2014-04-06T11:46:48Z</time>
      </trkpt>
      <trkpt lat="41.665583119" lon="2.513050834">
        <ele>248.16</ele>
        <time>2014-04-06T11:47:00Z</time>
      </trkpt>
      <trkpt lat="41.665586053" lon="2.513037423">
        <ele>248.16</ele>
        <time>2014-04-06T11:47:13Z</time>
      </trkpt>
      <trkpt lat="41.665572642" lon="2.513035579">
        <ele>248.16</ele>
        <time>2014-04-06T11:47:32Z</time>
      </trkpt>
      <trkpt lat="41.665579096" lon="2.513027951">
        <ele>248.16</ele>
        <time>2014-04-06T11:47:46Z</time>
      </trkpt>
      <trkpt lat="41.665581945" lon="2.513017390">
        <ele>248.16</ele>
        <time>2014-04-06T11:47:56Z</time>
      </trkpt>
      <trkpt lat="41.665592926" lon="2.513003644">
        <ele>248.16</ele>
        <time>2014-04-06T11:48:11Z</time>
      </trkpt>
      <trkpt lat="41.665611031" lon="2.512999872">
        <ele>248.16</ele>
        <time>2014-04-06T11:48:29Z</time>
      </trkpt>
      <trkpt lat="41.665617149" lon="2.513003895">
        <ele>248.16</ele>
        <time>2014-04-06T11:48:43Z</time>
      </trkpt>
      <trkpt lat="41.665619748" lon="2.512988556">
        <ele>248.16</ele>
        <time>2014-04-06T11:48:52Z</time>
      </trkpt>
      <trkpt lat="41.665622179" lon="2.512980510">
        <ele>248.16</ele>
        <time>2014-04-06T11:48:53Z</time>
      </trkpt>
      <trkpt lat="41.665612288" lon="2.512949497">
        <ele>248.16</ele>
        <time>2014-04-06T11:48:57Z</time>
      </trkpt>
      <trkpt lat="41.665627795" lon="2.513021832">
        <ele>248.16</ele>
        <time>2014-04-06T11:49:01Z</time>
      </trkpt>
      <trkpt lat="41.665599296" lon="2.513050247">
        <ele>248.16</ele>
        <time>2014-04-06T11:49:07Z</time>
      </trkpt>
      <trkpt lat="41.665588902" lon="2.513052259">
        <ele>248.16</ele>
        <time>2014-04-06T11:49:17Z</time>
      </trkpt>
      <trkpt lat="41.665592339" lon="2.513029628">
        <ele>247.68</ele>
        <time>2014-04-06T11:49:25Z</time>
      </trkpt>
      <trkpt lat="41.665598709" lon="2.513010685">
        <ele>247.68</ele>
        <time>2014-04-06T11:49:27Z</time>
      </trkpt>
      <trkpt lat="41.665572977" lon="2.512905659">
        <ele>248.16</ele>
        <time>2014-04-06T11:49:34Z</time>
      </trkpt>
      <trkpt lat="41.665519752" lon="2.512857463">
        <ele>248.64</ele>
        <time>2014-04-06T11:49:39Z</time>
      </trkpt>
      <trkpt lat="41.665482704" lon="2.512773309">
        <ele>249.60</ele>
        <time>2014-04-06T11:49:45Z</time>
      </trkpt>
      <trkpt lat="41.665507430" lon="2.512697201">
        <ele>249.60</ele>
        <time>2014-04-06T11:49:49Z</time>
      </trkpt>
      <trkpt lat="41.665524529" lon="2.512652777">
        <ele>249.60</ele>
        <time>2014-04-06T11:49:51Z</time>
      </trkpt>
      <trkpt lat="41.665462000" lon="2.512483798">
        <ele>249.60</ele>
        <time>2014-04-06T11:49:57Z</time>
      </trkpt>
      <trkpt lat="41.665444231" lon="2.512450187">
        <ele>249.60</ele>
        <time>2014-04-06T11:49:59Z</time>
      </trkpt>
      <trkpt lat="41.665413553" lon="2.512284141">
        <ele>250.08</ele>
        <time>2014-04-06T11:50:07Z</time>
      </trkpt>
      <trkpt lat="41.665324537" lon="2.512162436">
        <ele>250.56</ele>
        <time>2014-04-06T11:50:14Z</time>
      </trkpt>
      <trkpt lat="41.665187577" lon="2.512000833">
        <ele>252.00</ele>
        <time>2014-04-06T11:50:24Z</time>
      </trkpt>
      <trkpt lat="41.665099986" lon="2.511910057">
        <ele>253.44</ele>
        <time>2014-04-06T11:50:30Z</time>
      </trkpt>
      <trkpt lat="41.664968474" lon="2.511736384">
        <ele>254.41</ele>
        <time>2014-04-06T11:50:39Z</time>
      </trkpt>
      <trkpt lat="41.664836375" lon="2.511615433">
        <ele>255.37</ele>
        <time>2014-04-06T11:50:47Z</time>
      </trkpt>
      <trkpt lat="41.664694889" lon="2.511522394">
        <ele>256.81</ele>
        <time>2014-04-06T11:50:55Z</time>
      </trkpt>
      <trkpt lat="41.664602101" lon="2.511409490">
        <ele>258.25</ele>
        <time>2014-04-06T11:51:03Z</time>
      </trkpt>
      <trkpt lat="41.664512247" lon="2.511302620">
        <ele>259.21</ele>
        <time>2014-04-06T11:51:10Z</time>
      </trkpt>
      <trkpt lat="41.664428679" lon="2.511181250">
        <ele>260.65</ele>
        <time>2014-04-06T11:51:17Z</time>
      </trkpt>
      <trkpt lat="41.664347794" lon="2.510991903">
        <ele>262.58</ele>
        <time>2014-04-06T11:51:25Z</time>
      </trkpt>
      <trkpt lat="41.664268417" lon="2.510849578">
        <ele>264.50</ele>
        <time>2014-04-06T11:51:33Z</time>
      </trkpt>
      <trkpt lat="41.664172696" lon="2.510688311">
        <ele>265.94</ele>
        <time>2014-04-06T11:51:42Z</time>
      </trkpt>
      <trkpt lat="41.664073287" lon="2.510521595">
        <ele>267.86</ele>
        <time>2014-04-06T11:51:51Z</time>
      </trkpt>
      <trkpt lat="41.664001035" lon="2.510375833">
        <ele>269.79</ele>
        <time>2014-04-06T11:52:00Z</time>
      </trkpt>
      <trkpt lat="41.663993407" lon="2.510359908">
        <ele>269.79</ele>
        <time>2014-04-06T11:52:01Z</time>
      </trkpt>
      <trkpt lat="41.663920317" lon="2.510194617">
        <ele>271.23</ele>
        <time>2014-04-06T11:52:10Z</time>
      </trkpt>
      <trkpt lat="41.663885281" lon="2.510003090">
        <ele>273.15</ele>
        <time>2014-04-06T11:52:19Z</time>
      </trkpt>
      <trkpt lat="41.663833564" lon="2.509866046">
        <ele>275.07</ele>
        <time>2014-04-06T11:52:27Z</time>
      </trkpt>
      <trkpt lat="41.663756618" lon="2.509716010">
        <ele>276.04</ele>
        <time>2014-04-06T11:52:37Z</time>
      </trkpt>
      <trkpt lat="41.663693000" lon="2.509567818">
        <ele>277.48</ele>
        <time>2014-04-06T11:52:47Z</time>
      </trkpt>
      <trkpt lat="41.663589735" lon="2.509407556">
        <ele>279.88</ele>
        <time>2014-04-06T11:52:59Z</time>
      </trkpt>
      <trkpt lat="41.663526116" lon="2.509302111">
        <ele>281.32</ele>
        <time>2014-04-06T11:53:07Z</time>
      </trkpt>
      <trkpt lat="41.663446237" lon="2.509150483">
        <ele>283.73</ele>
        <time>2014-04-06T11:53:18Z</time>
      </trkpt>
      <trkpt lat="41.663398376" lon="2.509050319">
        <ele>284.69</ele>
        <time>2014-04-06T11:53:25Z</time>
      </trkpt>
      <trkpt lat="41.663362166" lon="2.508977816">
        <ele>285.65</ele>
        <time>2014-04-06T11:53:29Z</time>
      </trkpt>
      <trkpt lat="41.663317491" lon="2.508764831">
        <ele>286.61</ele>
        <time>2014-04-06T11:53:40Z</time>
      </trkpt>
      <trkpt lat="41.663318413" lon="2.508570707">
        <ele>287.57</ele>
        <time>2014-04-06T11:53:50Z</time>
      </trkpt>
      <trkpt lat="41.663283795" lon="2.508410696">
        <ele>289.01</ele>
        <time>2014-04-06T11:53:59Z</time>
      </trkpt>
      <trkpt lat="41.663240126" lon="2.508253452">
        <ele>289.97</ele>
        <time>2014-04-06T11:54:07Z</time>
      </trkpt>
      <trkpt lat="41.663256135" lon="2.508110456">
        <ele>290.46</ele>
        <time>2014-04-06T11:54:14Z</time>
      </trkpt>
      <trkpt lat="41.663286142" lon="2.507934855">
        <ele>291.42</ele>
        <time>2014-04-06T11:54:22Z</time>
      </trkpt>
      <trkpt lat="41.663251441" lon="2.507747771">
        <ele>292.38</ele>
        <time>2014-04-06T11:54:31Z</time>
      </trkpt>
      <trkpt lat="41.663171310" lon="2.507576361">
        <ele>293.34</ele>
        <time>2014-04-06T11:54:41Z</time>
      </trkpt>
      <trkpt lat="41.663082713" lon="2.507430852">
        <ele>295.26</ele>
        <time>2014-04-06T11:54:51Z</time>
      </trkpt>
      <trkpt lat="41.663053293" lon="2.507346781">
        <ele>297.18</ele>
        <time>2014-04-06T11:54:56Z</time>
      </trkpt>
      <trkpt lat="41.663022531" lon="2.507272853">
        <ele>297.18</ele>
        <time>2014-04-06T11:55:01Z</time>
      </trkpt>
      <trkpt lat="41.662991351" lon="2.507141089">
        <ele>298.63</ele>
        <time>2014-04-06T11:55:09Z</time>
      </trkpt>
      <trkpt lat="41.662942484" lon="2.506947048">
        <ele>300.55</ele>
        <time>2014-04-06T11:55:20Z</time>
      </trkpt>
      <trkpt lat="41.662919853" lon="2.506799610">
        <ele>301.51</ele>
        <time>2014-04-06T11:55:28Z</time>
      </trkpt>
      <trkpt lat="41.662899988" lon="2.506682934">
        <ele>302.95</ele>
        <time>2014-04-06T11:55:35Z</time>
      </trkpt>
      <trkpt lat="41.662932761" lon="2.506500460">
        <ele>303.91</ele>
        <time>2014-04-06T11:55:45Z</time>
      </trkpt>
      <trkpt lat="41.662968720" lon="2.506366434">
        <ele>304.88</ele>
        <time>2014-04-06T11:55:53Z</time>
      </trkpt>
      <trkpt lat="41.662920859" lon="2.506261744">
        <ele>305.84</ele>
        <time>2014-04-06T11:56:00Z</time>
      </trkpt>
      <trkpt lat="41.662811726" lon="2.506231317">
        <ele>306.32</ele>
        <time>2014-04-06T11:56:07Z</time>
      </trkpt>
      <trkpt lat="41.662657835" lon="2.506204244">
        <ele>306.80</ele>
        <time>2014-04-06T11:56:16Z</time>
      </trkpt>
      <trkpt lat="41.662509056" lon="2.506204579">
        <ele>307.76</ele>
        <time>2014-04-06T11:56:24Z</time>
      </trkpt>
      <trkpt lat="41.662354242" lon="2.506243723">
        <ele>308.24</ele>
        <time>2014-04-06T11:56:31Z</time>
      </trkpt>
      <trkpt lat="41.662170343" lon="2.506201645">
        <ele>308.24</ele>
        <time>2014-04-06T11:56:37Z</time>
      </trkpt>
      <trkpt lat="41.662058361" lon="2.506055968">
        <ele>308.24</ele>
        <time>2014-04-06T11:56:43Z</time>
      </trkpt>
      <trkpt lat="41.661987534" lon="2.505893527">
        <ele>308.24</ele>
        <time>2014-04-06T11:56:49Z</time>
      </trkpt>
      <trkpt lat="41.661906313" lon="2.505677106">
        <ele>308.72</ele>
        <time>2014-04-06T11:56:56Z</time>
      </trkpt>
      <trkpt lat="41.661781758" lon="2.505480299">
        <ele>309.20</ele>
        <time>2014-04-06T11:57:04Z</time>
      </trkpt>
      <trkpt lat="41.661632644" lon="2.505313248">
        <ele>309.68</ele>
        <time>2014-04-06T11:57:12Z</time>
      </trkpt>
      <trkpt lat="41.661433239" lon="2.505160194">
        <ele>311.60</ele>
        <time>2014-04-06T11:57:23Z</time>
      </trkpt>
      <trkpt lat="41.661255291" lon="2.505140664">
        <ele>312.57</ele>
        <time>2014-04-06T11:57:31Z</time>
      </trkpt>
      <trkpt lat="41.660996039" lon="2.505145358">
        <ele>312.57</ele>
        <time>2014-04-06T11:57:39Z</time>
      </trkpt>
      <trkpt lat="41.660769979" lon="2.505074866">
        <ele>312.57</ele>
        <time>2014-04-06T11:57:46Z</time>
      </trkpt>
      <trkpt lat="41.660475271" lon="2.505064473">
        <ele>312.57</ele>
        <time>2014-04-06T11:57:56Z</time>
      </trkpt>
      <trkpt lat="41.660214175" lon="2.505124739">
        <ele>312.57</ele>
        <time>2014-04-06T11:58:05Z</time>
      </trkpt>
      <trkpt lat="41.659973782" lon="2.505128175">
        <ele>313.05</ele>
        <time>2014-04-06T11:58:13Z</time>
      </trkpt>
      <trkpt lat="41.659746967" lon="2.505128343">
        <ele>313.53</ele>
        <time>2014-04-06T11:58:21Z</time>
      </trkpt>
      <trkpt lat="41.659564410" lon="2.505281983">
        <ele>314.01</ele>
        <time>2014-04-06T11:58:29Z</time>
      </trkpt>
      <trkpt lat="41.659478830" lon="2.505447609">
        <ele>314.97</ele>
        <time>2014-04-06T11:58:35Z</time>
      </trkpt>
      <trkpt lat="41.659341116" lon="2.505612733">
        <ele>315.93</ele>
        <time>2014-04-06T11:58:42Z</time>
      </trkpt>
      <trkpt lat="41.659144476" lon="2.505613571">
        <ele>315.93</ele>
        <time>2014-04-06T11:58:49Z</time>
      </trkpt>
      <trkpt lat="41.658944316" lon="2.505504271">
        <ele>316.41</ele>
        <time>2014-04-06T11:58:57Z</time>
      </trkpt>
      <trkpt lat="41.658793861" lon="2.505361444">
        <ele>316.89</ele>
        <time>2014-04-06T11:59:04Z</time>
      </trkpt>
      <trkpt lat="41.658635024" lon="2.505247785">
        <ele>317.37</ele>
        <time>2014-04-06T11:59:11Z</time>
      </trkpt>
      <trkpt lat="41.658490185" lon="2.505085511">
        <ele>317.85</ele>
        <time>2014-04-06T11:59:18Z</time>
      </trkpt>
      <trkpt lat="41.658439307" lon="2.505022479">
        <ele>317.85</ele>
        <time>2014-04-06T11:59:20Z</time>
      </trkpt>
      <trkpt lat="41.658327408" lon="2.504933296">
        <ele>317.85</ele>
        <time>2014-04-06T11:59:23Z</time>
      </trkpt>
      <trkpt lat="41.658229843" lon="2.504891889">
        <ele>316.41</ele>
        <time>2014-04-06T11:59:25Z</time>
      </trkpt>
      <trkpt lat="41.658124985" lon="2.504867833">
        <ele>315.93</ele>
        <time>2014-04-06T11:59:27Z</time>
      </trkpt>
      <trkpt lat="41.657584353" lon="2.504819051">
        <ele>314.97</ele>
        <time>2014-04-06T11:59:37Z</time>
      </trkpt>
      <trkpt lat="41.657326190" lon="2.504930362">
        <ele>314.01</ele>
        <time>2014-04-06T11:59:42Z</time>
      </trkpt>
      <trkpt lat="41.657237929" lon="2.505022982">
        <ele>313.53</ele>
        <time>2014-04-06T11:59:44Z</time>
      </trkpt>
      <trkpt lat="41.657157378" lon="2.505132953">
        <ele>313.53</ele>
        <time>2014-04-06T11:59:46Z</time>
      </trkpt>
      <trkpt lat="41.656846829" lon="2.505820017">
        <ele>310.16</ele>
        <time>2014-04-06T11:59:55Z</time>
      </trkpt>
      <trkpt lat="41.656809027" lon="2.505919762">
        <ele>309.20</ele>
        <time>2014-04-06T11:59:56Z</time>
      </trkpt>
      <trkpt lat="41.656546086" lon="2.506278340">
        <ele>306.32</ele>
        <time>2014-04-06T12:00:00Z</time>
      </trkpt>
      <trkpt lat="41.656456316" lon="2.506351179">
        <ele>304.88</ele>
        <time>2014-04-06T12:00:01Z</time>
      </trkpt>
      <trkpt lat="41.656163452" lon="2.506546896">
        <ele>303.91</ele>
        <time>2014-04-06T12:00:04Z</time>
      </trkpt>
      <trkpt lat="41.655661376" lon="2.506660471">
        <ele>301.99</ele>
        <time>2014-04-06T12:00:09Z</time>
      </trkpt>
      <trkpt lat="41.655406566" lon="2.506628117">
        <ele>303.91</ele>
        <time>2014-04-06T12:00:13Z</time>
      </trkpt>
      <trkpt lat="41.655192157" lon="2.506588973">
        <ele>306.32</ele>
        <time>2014-04-06T12:00:19Z</time>
      </trkpt>
      <trkpt lat="41.654949334" lon="2.506500293">
        <ele>307.28</ele>
        <time>2014-04-06T12:00:27Z</time>
      </trkpt>
      <trkpt lat="41.654765686" lon="2.506502053">
        <ele>307.76</ele>
        <time>2014-04-06T12:00:33Z</time>
      </trkpt>
      <trkpt lat="41.654724363" lon="2.506577322">
        <ele>307.76</ele>
        <time>2014-04-06T12:00:35Z</time>
      </trkpt>
      <trkpt lat="41.654642807" lon="2.506856943">
        <ele>307.76</ele>
        <time>2014-04-06T12:00:40Z</time>
      </trkpt>
      <trkpt lat="41.654608358" lon="2.506979402">
        <ele>307.76</ele>
        <time>2014-04-06T12:00:42Z</time>
      </trkpt>
      <trkpt lat="41.654582290" lon="2.507105801">
        <ele>307.76</ele>
        <time>2014-04-06T12:00:44Z</time>
      </trkpt>
      <trkpt lat="41.654527724" lon="2.507290874">
        <ele>307.76</ele>
        <time>2014-04-06T12:00:47Z</time>
      </trkpt>
      <trkpt lat="41.654522946" lon="2.507418949">
        <ele>305.36</ele>
        <time>2014-04-06T12:00:50Z</time>
      </trkpt>
      <trkpt lat="41.654614896" lon="2.507440239">
        <ele>305.36</ele>
        <time>2014-04-06T12:00:55Z</time>
      </trkpt>
      <trkpt lat="41.654749425" lon="2.507480053">
        <ele>308.24</ele>
        <time>2014-04-06T12:01:04Z</time>
      </trkpt>
      <trkpt lat="41.654864676" lon="2.507494219">
        <ele>309.20</ele>
        <time>2014-04-06T12:01:12Z</time>
      </trkpt>
      <trkpt lat="41.655013371" lon="2.507447029">
        <ele>309.68</ele>
        <time>2014-04-06T12:01:18Z</time>
      </trkpt>
      <trkpt lat="41.655217135" lon="2.507317109">
        <ele>308.24</ele>
        <time>2014-04-06T12:01:23Z</time>
      </trkpt>
      <trkpt lat="41.655436993" lon="2.507338818">
        <ele>306.32</ele>
        <time>2014-04-06T12:01:28Z</time>
      </trkpt>
      <trkpt lat="41.655485692" lon="2.507410735">
        <ele>306.32</ele>
        <time>2014-04-06T12:01:30Z</time>
      </trkpt>
      <trkpt lat="41.655567583" lon="2.507605614">
        <ele>305.84</ele>
        <time>2014-04-06T12:01:34Z</time>
      </trkpt>
      <trkpt lat="41.655641595" lon="2.507859418">
        <ele>304.88</ele>
        <time>2014-04-06T12:01:39Z</time>
      </trkpt>
      <trkpt lat="41.655820297" lon="2.507995457">
        <ele>303.43</ele>
        <time>2014-04-06T12:01:44Z</time>
      </trkpt>
      <trkpt lat="41.655934207" lon="2.507956145">
        <ele>302.95</ele>
        <time>2014-04-06T12:01:47Z</time>
      </trkpt>
      <trkpt lat="41.656027917" lon="2.507847181">
        <ele>301.99</ele>
        <time>2014-04-06T12:01:51Z</time>
      </trkpt>
      <trkpt lat="41.656113915" lon="2.507651882">
        <ele>301.51</ele>
        <time>2014-04-06T12:01:56Z</time>
      </trkpt>
      <trkpt lat="41.656185329" lon="2.507604357">
        <ele>300.55</ele>
        <time>2014-04-06T12:01:58Z</time>
      </trkpt>
      <trkpt lat="41.656268394" lon="2.507589605">
        <ele>300.55</ele>
        <time>2014-04-06T12:02:00Z</time>
      </trkpt>
      <trkpt lat="41.656403007" lon="2.507622546">
        <ele>300.07</ele>
        <time>2014-04-06T12:02:03Z</time>
      </trkpt>
      <trkpt lat="41.656614902" lon="2.507838883">
        <ele>298.63</ele>
        <time>2014-04-06T12:02:09Z</time>
      </trkpt>
      <trkpt lat="41.656661421" lon="2.507980704">
        <ele>296.70</ele>
        <time>2014-04-06T12:02:12Z</time>
      </trkpt>
      <trkpt lat="41.656682292" lon="2.508099560">
        <ele>296.22</ele>
        <time>2014-04-06T12:02:14Z</time>
      </trkpt>
      <trkpt lat="41.656686148" lon="2.508513626">
        <ele>293.82</ele>
        <time>2014-04-06T12:02:20Z</time>
      </trkpt>
      <trkpt lat="41.656683466" lon="2.508585207">
        <ele>293.82</ele>
        <time>2014-04-06T12:02:21Z</time>
      </trkpt>
      <trkpt lat="41.656708025" lon="2.509076387">
        <ele>289.49</ele>
        <time>2014-04-06T12:02:28Z</time>
      </trkpt>
      <trkpt lat="41.656716323" lon="2.509130953">
        <ele>288.53</ele>
        <time>2014-04-06T12:02:29Z</time>
      </trkpt>
      <trkpt lat="41.656584894" lon="2.509246288">
        <ele>286.13</ele>
        <time>2014-04-06T12:02:33Z</time>
      </trkpt>
      <trkpt lat="41.656334527" lon="2.509225669">
        <ele>283.73</ele>
        <time>2014-04-06T12:02:37Z</time>
      </trkpt>
      <trkpt lat="41.656209553" lon="2.509122236">
        <ele>282.28</ele>
        <time>2014-04-06T12:02:40Z</time>
      </trkpt>
      <trkpt lat="41.656186838" lon="2.509053085">
        <ele>281.32</ele>
        <time>2014-04-06T12:02:41Z</time>
      </trkpt>
      <trkpt lat="41.656154987" lon="2.508921825">
        <ele>280.36</ele>
        <time>2014-04-06T12:02:43Z</time>
      </trkpt>
      <trkpt lat="41.656008555" lon="2.508840688">
        <ele>278.92</ele>
        <time>2014-04-06T12:02:47Z</time>
      </trkpt>
      <trkpt lat="41.655705717" lon="2.508913443">
        <ele>275.07</ele>
        <time>2014-04-06T12:02:52Z</time>
      </trkpt>
      <trkpt lat="41.655603709" lon="2.508935822">
        <ele>273.63</ele>
        <time>2014-04-06T12:02:54Z</time>
      </trkpt>
      <trkpt lat="41.655456606" lon="2.509076974">
        <ele>272.19</ele>
        <time>2014-04-06T12:02:59Z</time>
      </trkpt>
      <trkpt lat="41.655447889" lon="2.509137742">
        <ele>272.19</ele>
        <time>2014-04-06T12:03:00Z</time>
      </trkpt>
      <trkpt lat="41.655435652" lon="2.509271098">
        <ele>271.23</ele>
        <time>2014-04-06T12:03:02Z</time>
      </trkpt>
      <trkpt lat="41.655273630" lon="2.509593802">
        <ele>270.75</ele>
        <time>2014-04-06T12:03:08Z</time>
      </trkpt>
      <trkpt lat="41.655075481" lon="2.509622552">
        <ele>270.27</ele>
        <time>2014-04-06T12:03:12Z</time>
      </trkpt>
      <trkpt lat="41.654799465" lon="2.509782814">
        <ele>269.31</ele>
        <time>2014-04-06T12:03:18Z</time>
      </trkpt>
      <trkpt lat="41.654568544" lon="2.509829417">
        <ele>268.35</ele>
        <time>2014-04-06T12:03:22Z</time>
      </trkpt>
      <trkpt lat="41.654512720" lon="2.509804187">
        <ele>267.86</ele>
        <time>2014-04-06T12:03:23Z</time>
      </trkpt>
      <trkpt lat="41.654277273" lon="2.509805612">
        <ele>267.38</ele>
        <time>2014-04-06T12:03:28Z</time>
      </trkpt>
      <trkpt lat="41.654238884" lon="2.509934107">
        <ele>267.38</ele>
        <time>2014-04-06T12:03:30Z</time>
      </trkpt>
      <trkpt lat="41.654131511" lon="2.510320094">
        <ele>265.46</ele>
        <time>2014-04-06T12:03:35Z</time>
      </trkpt>
      <trkpt lat="41.653991198" lon="2.510559229">
        <ele>263.54</ele>
        <time>2014-04-06T12:03:38Z</time>
      </trkpt>
      <trkpt lat="41.653732281" lon="2.510871874">
        <ele>261.14</ele>
        <time>2014-04-06T12:03:42Z</time>
      </trkpt>
      <trkpt lat="41.653560117" lon="2.511108579">
        <ele>257.77</ele>
        <time>2014-04-06T12:03:45Z</time>
      </trkpt>
      <trkpt lat="41.653513011" lon="2.511173120">
        <ele>256.81</ele>
        <time>2014-04-06T12:03:46Z</time>
      </trkpt>
      <trkpt lat="41.653401699" lon="2.511283007">
        <ele>255.85</ele>
        <time>2014-04-06T12:03:48Z</time>
      </trkpt>
      <trkpt lat="41.653161893" lon="2.511402784">
        <ele>252.48</ele>
        <time>2014-04-06T12:03:52Z</time>
      </trkpt>
      <trkpt lat="41.653105483" lon="2.511409909">
        <ele>252.48</ele>
        <time>2014-04-06T12:03:53Z</time>
      </trkpt>
      <trkpt lat="41.653046139" lon="2.511395408">
        <ele>251.52</ele>
        <time>2014-04-06T12:03:54Z</time>
      </trkpt>
      <trkpt lat="41.652822342" lon="2.511320390">
        <ele>250.08</ele>
        <time>2014-04-06T12:03:57Z</time>
      </trkpt>
      <trkpt lat="41.652583458" lon="2.511248389">
        <ele>245.75</ele>
        <time>2014-04-06T12:04:00Z</time>
      </trkpt>
      <trkpt lat="41.652331246" lon="2.511215868">
        <ele>243.35</ele>
        <time>2014-04-06T12:04:03Z</time>
      </trkpt>
      <trkpt lat="41.652158914" lon="2.511171527">
        <ele>241.91</ele>
        <time>2014-04-06T12:04:05Z</time>
      </trkpt>
      <trkpt lat="41.652074509" lon="2.511139676">
        <ele>241.91</ele>
        <time>2014-04-06T12:04:06Z</time>
      </trkpt>
      <trkpt lat="41.651645523" lon="2.511064742">
        <ele>239.99</ele>
        <time>2014-04-06T12:04:11Z</time>
      </trkpt>
      <trkpt lat="41.651356850" lon="2.510947731">
        <ele>237.58</ele>
        <time>2014-04-06T12:04:15Z</time>
      </trkpt>
      <trkpt lat="41.651244952" lon="2.510990897">
        <ele>237.10</ele>
        <time>2014-04-06T12:04:17Z</time>
      </trkpt>
      <trkpt lat="41.650916213" lon="2.511217376">
        <ele>235.66</ele>
        <time>2014-04-06T12:04:22Z</time>
      </trkpt>
      <trkpt lat="41.650651764" lon="2.511168845">
        <ele>233.74</ele>
        <time>2014-04-06T12:04:26Z</time>
      </trkpt>
      <trkpt lat="41.650397038" lon="2.510950329">
        <ele>232.30</ele>
        <time>2014-04-06T12:04:30Z</time>
      </trkpt>
      <trkpt lat="41.650046339" lon="2.510827869">
        <ele>230.85</ele>
        <time>2014-04-06T12:04:35Z</time>
      </trkpt>
      <trkpt lat="41.649911726" lon="2.510784702">
        <ele>229.41</ele>
        <time>2014-04-06T12:04:37Z</time>
      </trkpt>
      <trkpt lat="41.649565973" lon="2.510657298">
        <ele>226.05</ele>
        <time>2014-04-06T12:04:43Z</time>
      </trkpt>
      <trkpt lat="41.649203455" lon="2.510486055">
        <ele>223.64</ele>
        <time>2014-04-06T12:04:49Z</time>
      </trkpt>
      <trkpt lat="41.649028776" lon="2.510558056">
        <ele>221.72</ele>
        <time>2014-04-06T12:04:53Z</time>
      </trkpt>
      <trkpt lat="41.648993991" lon="2.510607677">
        <ele>221.72</ele>
        <time>2014-04-06T12:04:54Z</time>
      </trkpt>
      <trkpt lat="41.648915453" lon="2.510701554">
        <ele>221.72</ele>
        <time>2014-04-06T12:04:56Z</time>
      </trkpt>
      <trkpt lat="41.648742786" lon="2.510800125">
        <ele>221.72</ele>
        <time>2014-04-06T12:05:00Z</time>
      </trkpt>
      <trkpt lat="41.648607250" lon="2.510778668">
        <ele>223.16</ele>
        <time>2014-04-06T12:05:05Z</time>
      </trkpt>
      <trkpt lat="41.648533574" lon="2.510755198">
        <ele>223.64</ele>
        <time>2014-04-06T12:05:08Z</time>
      </trkpt>
      <trkpt lat="41.648453107" lon="2.510675402">
        <ele>223.64</ele>
        <time>2014-04-06T12:05:13Z</time>
      </trkpt>
      <trkpt lat="41.648382364" lon="2.510632487">
        <ele>223.64</ele>
        <time>2014-04-06T12:05:17Z</time>
      </trkpt>
      <trkpt lat="41.648220090" lon="2.510464262">
        <ele>224.12</ele>
        <time>2014-04-06T12:05:25Z</time>
      </trkpt>
      <trkpt lat="41.648214558" lon="2.510454120">
        <ele>224.12</ele>
        <time>2014-04-06T12:05:26Z</time>
      </trkpt>
      <trkpt lat="41.648094529" lon="2.510405924">
        <ele>222.68</ele>
        <time>2014-04-06T12:05:32Z</time>
      </trkpt>
      <trkpt lat="41.648017919" lon="2.510330152">
        <ele>222.68</ele>
        <time>2014-04-06T12:05:39Z</time>
      </trkpt>
      <trkpt lat="41.648011632" lon="2.510339707">
        <ele>222.68</ele>
        <time>2014-04-06T12:05:42Z</time>
      </trkpt>
      <trkpt lat="41.647991600" lon="2.510324955">
        <ele>222.68</ele>
        <time>2014-04-06T12:05:44Z</time>
      </trkpt>
      <trkpt lat="41.647888754" lon="2.510281369">
        <ele>222.68</ele>
        <time>2014-04-06T12:05:51Z</time>
      </trkpt>
      <trkpt lat="41.647799151" lon="2.510190677">
        <ele>221.72</ele>
        <time>2014-04-06T12:05:57Z</time>
      </trkpt>
      <trkpt lat="41.647791021" lon="2.510177517">
        <ele>221.72</ele>
        <time>2014-04-06T12:05:58Z</time>
      </trkpt>
      <trkpt lat="41.647790099" lon="2.510150779">
        <ele>221.72</ele>
        <time>2014-04-06T12:06:00Z</time>
      </trkpt>
      <trkpt lat="41.647664957" lon="2.510070061">
        <ele>221.24</ele>
        <time>2014-04-06T12:06:07Z</time>
      </trkpt>
      <trkpt lat="41.647651546" lon="2.510067882">
        <ele>221.24</ele>
        <time>2014-04-06T12:06:08Z</time>
      </trkpt>
      <trkpt lat="41.647630340" lon="2.510098979">
        <ele>221.24</ele>
        <time>2014-04-06T12:06:15Z</time>
      </trkpt>
      <trkpt lat="41.647645427" lon="2.510103086">
        <ele>221.24</ele>
        <time>2014-04-06T12:06:26Z</time>
      </trkpt>
      <trkpt lat="41.647674764" lon="2.510082299">
        <ele>220.76</ele>
        <time>2014-04-06T12:06:43Z</time>
      </trkpt>
      <trkpt lat="41.647660850" lon="2.510064194">
        <ele>220.76</ele>
        <time>2014-04-06T12:07:04Z</time>
      </trkpt>
      <trkpt lat="41.647645595" lon="2.510067714">
        <ele>220.76</ele>
        <time>2014-04-06T12:07:19Z</time>
      </trkpt>
      <trkpt lat="41.647661353" lon="2.510101074">
        <ele>220.76</ele>
        <time>2014-04-06T12:07:40Z</time>
      </trkpt>
      <trkpt lat="41.647668477" lon="2.510109875">
        <ele>220.76</ele>
        <time>2014-04-06T12:07:56Z</time>
      </trkpt>
      <trkpt lat="41.647674848" lon="2.510103673">
        <ele>220.76</ele>
        <time>2014-04-06T12:08:10Z</time>
      </trkpt>
      <trkpt lat="41.647677278" lon="2.510097554">
        <ele>220.76</ele>
        <time>2014-04-06T12:08:22Z</time>
      </trkpt>
      <trkpt lat="41.647671076" lon="2.510107780">
        <ele>220.76</ele>
        <time>2014-04-06T12:08:34Z</time>
      </trkpt>
      <trkpt lat="41.647665041" lon="2.510102918">
        <ele>220.76</ele>
        <time>2014-04-06T12:08:52Z</time>
      </trkpt>
      <trkpt lat="41.647667723" lon="2.510087496">
        <ele>220.76</ele>
        <time>2014-04-06T12:09:13Z</time>
      </trkpt>
      <trkpt lat="41.647669818" lon="2.510072492">
        <ele>220.76</ele>
        <time>2014-04-06T12:09:28Z</time>
      </trkpt>
      <trkpt lat="41.647674261" lon="2.510090597">
        <ele>220.76</ele>
        <time>2014-04-06T12:09:48Z</time>
      </trkpt>
      <trkpt lat="41.647660347" lon="2.510090346">
        <ele>220.76</ele>
        <time>2014-04-06T12:10:08Z</time>
      </trkpt>
      <trkpt lat="41.647649367" lon="2.510093447">
        <ele>220.76</ele>
        <time>2014-04-06T12:10:21Z</time>
      </trkpt>
      <trkpt lat="41.647651797" lon="2.510095542">
        <ele>220.76</ele>
        <time>2014-04-06T12:10:38Z</time>
      </trkpt>
      <trkpt lat="41.647657162" lon="2.510079617">
        <ele>220.76</ele>
        <time>2014-04-06T12:10:54Z</time>
      </trkpt>
      <trkpt lat="41.647656156" lon="2.510086658">
        <ele>220.76</ele>
        <time>2014-04-06T12:11:10Z</time>
      </trkpt>
      <trkpt lat="41.647658000" lon="2.510073582">
        <ele>220.76</ele>
        <time>2014-04-06T12:11:23Z</time>
      </trkpt>
      <trkpt lat="41.647657329" lon="2.510076432">
        <ele>220.76</ele>
        <time>2014-04-06T12:11:41Z</time>
      </trkpt>
      <trkpt lat="41.647649534" lon="2.510093279">
        <ele>220.76</ele>
        <time>2014-04-06T12:11:55Z</time>
      </trkpt>
      <trkpt lat="41.647644505" lon="2.510101996">
        <ele>220.76</ele>
        <time>2014-04-06T12:12:08Z</time>
      </trkpt>
      <trkpt lat="41.647636626" lon="2.510092525">
        <ele>220.76</ele>
        <time>2014-04-06T12:12:14Z</time>
      </trkpt>
      <trkpt lat="41.647634028" lon="2.510085652">
        <ele>220.76</ele>
        <time>2014-04-06T12:12:25Z</time>
      </trkpt>
      <trkpt lat="41.647631429" lon="2.510082718">
        <ele>220.76</ele>
        <time>2014-04-06T12:12:34Z</time>
      </trkpt>
      <trkpt lat="41.647626819" lon="2.510086322">
        <ele>220.76</ele>
        <time>2014-04-06T12:12:40Z</time>
      </trkpt>
      <trkpt lat="41.647592118" lon="2.510105601">
        <ele>220.76</ele>
        <time>2014-04-06T12:12:44Z</time>
      </trkpt>
      <trkpt lat="41.647601171" lon="2.510043407">
        <ele>220.76</ele>
        <time>2014-04-06T12:12:50Z</time>
      </trkpt>
      <trkpt lat="41.647582060" lon="2.509936370">
        <ele>220.76</ele>
        <time>2014-04-06T12:12:55Z</time>
      </trkpt>
      <trkpt lat="41.647413584" lon="2.509771666">
        <ele>220.28</ele>
        <time>2014-04-06T12:13:02Z</time>
      </trkpt>
      <trkpt lat="41.647390869" lon="2.509752890">
        <ele>220.28</ele>
        <time>2014-04-06T12:13:03Z</time>
      </trkpt>
      <trkpt lat="41.647270337" lon="2.509935280">
        <ele>219.80</ele>
        <time>2014-04-06T12:13:11Z</time>
      </trkpt>
      <trkpt lat="41.647166904" lon="2.510127058">
        <ele>220.28</ele>
        <time>2014-04-06T12:13:18Z</time>
      </trkpt>
      <trkpt lat="41.647051234" lon="2.510350017">
        <ele>220.28</ele>
        <time>2014-04-06T12:13:25Z</time>
      </trkpt>
      <trkpt lat="41.646994405" lon="2.510595188">
        <ele>220.28</ele>
        <time>2014-04-06T12:13:31Z</time>
      </trkpt>
      <trkpt lat="41.646937575" lon="2.510942534">
        <ele>220.28</ele>
        <time>2014-04-06T12:13:40Z</time>
      </trkpt>
      <trkpt lat="41.646918632" lon="2.511212012">
        <ele>221.72</ele>
        <time>2014-04-06T12:13:47Z</time>
      </trkpt>
      <trkpt lat="41.646879908" lon="2.511492135">
        <ele>221.72</ele>
        <time>2014-04-06T12:13:54Z</time>
      </trkpt>
      <trkpt lat="41.646844704" lon="2.511898071">
        <ele>221.72</ele>
        <time>2014-04-06T12:14:04Z</time>
      </trkpt>
      <trkpt lat="41.646836909" lon="2.512204597">
        <ele>222.20</ele>
        <time>2014-04-06T12:14:12Z</time>
      </trkpt>
      <trkpt lat="41.646875885" lon="2.512489414">
        <ele>223.64</ele>
        <time>2014-04-06T12:14:21Z</time>
      </trkpt>
      <trkpt lat="41.646906898" lon="2.512777751">
        <ele>224.61</ele>
        <time>2014-04-06T12:14:31Z</time>
      </trkpt>
      <trkpt lat="41.646842441" lon="2.512962656">
        <ele>225.09</ele>
        <time>2014-04-06T12:14:38Z</time>
      </trkpt>
      <trkpt lat="41.646710845" lon="2.513065502">
        <ele>225.09</ele>
        <time>2014-04-06T12:14:44Z</time>
      </trkpt>
      <trkpt lat="41.646615124" lon="2.513217634">
        <ele>225.09</ele>
        <time>2014-04-06T12:14:51Z</time>
      </trkpt>
      <trkpt lat="41.646517810" lon="2.513439922">
        <ele>225.09</ele>
        <time>2014-04-06T12:14:58Z</time>
      </trkpt>
      <trkpt lat="41.646459388" lon="2.513727840">
        <ele>225.57</ele>
        <time>2014-04-06T12:15:06Z</time>
      </trkpt>
      <trkpt lat="41.646357464" lon="2.513970329">
        <ele>226.53</ele>
        <time>2014-04-06T12:15:14Z</time>
      </trkpt>
      <trkpt lat="41.646277584" lon="2.514237376">
        <ele>227.01</ele>
        <time>2014-04-06T12:15:23Z</time>
      </trkpt>
      <trkpt lat="41.646163926" lon="2.514382970">
        <ele>227.49</ele>
        <time>2014-04-06T12:15:30Z</time>
      </trkpt>
      <trkpt lat="41.646118915" lon="2.514429657">
        <ele>227.49</ele>
        <time>2014-04-06T12:15:36Z</time>
      </trkpt>
      <trkpt lat="41.646112461" lon="2.514431333">
        <ele>227.49</ele>
        <time>2014-04-06T12:15:54Z</time>
      </trkpt>
      <trkpt lat="41.646059906" lon="2.514514649">
        <ele>227.49</ele>
        <time>2014-04-06T12:16:00Z</time>
      </trkpt>
      <trkpt lat="41.645942643" lon="2.514739284">
        <ele>227.49</ele>
        <time>2014-04-06T12:16:09Z</time>
      </trkpt>
      <trkpt lat="41.645890759" lon="2.514900804">
        <ele>227.49</ele>
        <time>2014-04-06T12:16:18Z</time>
      </trkpt>
      <trkpt lat="41.645891849" lon="2.514907090">
        <ele>227.49</ele>
        <time>2014-04-06T12:16:33Z</time>
      </trkpt>
      <trkpt lat="41.645880869" lon="2.514926452">
        <ele>227.49</ele>
        <time>2014-04-06T12:16:44Z</time>
      </trkpt>
      <trkpt lat="41.645864608" lon="2.514953107">
        <ele>227.49</ele>
        <time>2014-04-06T12:17:00Z</time>
      </trkpt>
      <trkpt lat="41.645850862" lon="2.515000632">
        <ele>227.49</ele>
        <time>2014-04-06T12:17:07Z</time>
      </trkpt>
      <trkpt lat="41.645804258" lon="2.515093420">
        <ele>227.49</ele>
        <time>2014-04-06T12:17:13Z</time>
      </trkpt>
      <trkpt lat="41.645768635" lon="2.515158212">
        <ele>227.49</ele>
        <time>2014-04-06T12:17:18Z</time>
      </trkpt>
      <trkpt lat="41.645745753" lon="2.515190566">
        <ele>227.49</ele>
        <time>2014-04-06T12:17:24Z</time>
      </trkpt>
      <trkpt lat="41.645741226" lon="2.515182771">
        <ele>227.49</ele>
        <time>2014-04-06T12:17:33Z</time>
      </trkpt>
      <trkpt lat="41.645714739" lon="2.515182100">
        <ele>227.49</ele>
        <time>2014-04-06T12:17:50Z</time>
      </trkpt>
      <trkpt lat="41.645717841" lon="2.515197104">
        <ele>227.49</ele>
        <time>2014-04-06T12:18:00Z</time>
      </trkpt>
      <trkpt lat="41.645680206" lon="2.515240019">
        <ele>227.97</ele>
        <time>2014-04-06T12:18:04Z</time>
      </trkpt>
      <trkpt lat="41.645543749" lon="2.515423332">
        <ele>228.45</ele>
        <time>2014-04-06T12:18:14Z</time>
      </trkpt>
      <trkpt lat="41.645485243" lon="2.515462140">
        <ele>228.93</ele>
        <time>2014-04-06T12:18:18Z</time>
      </trkpt>
      <trkpt lat="41.645363789" lon="2.515407071">
        <ele>229.89</ele>
        <time>2014-04-06T12:18:26Z</time>
      </trkpt>
      <trkpt lat="41.645302015" lon="2.515338171">
        <ele>230.85</ele>
        <time>2014-04-06T12:18:31Z</time>
      </trkpt>
      <trkpt lat="41.645271672" lon="2.515302297">
        <ele>231.33</ele>
        <time>2014-04-06T12:18:34Z</time>
      </trkpt>
      <trkpt lat="41.645239402" lon="2.515221831">
        <ele>231.81</ele>
        <time>2014-04-06T12:18:38Z</time>
      </trkpt>
      <trkpt lat="41.645137729" lon="2.515024940">
        <ele>233.26</ele>
        <time>2014-04-06T12:18:48Z</time>
      </trkpt>
      <trkpt lat="41.645027675" lon="2.514889656">
        <ele>234.22</ele>
        <time>2014-04-06T12:18:56Z</time>
      </trkpt>
      <trkpt lat="41.644938827" lon="2.514792677">
        <ele>235.66</ele>
        <time>2014-04-06T12:19:03Z</time>
      </trkpt>
      <trkpt lat="41.644790718" lon="2.514680276">
        <ele>238.54</ele>
        <time>2014-04-06T12:19:14Z</time>
      </trkpt>
      <trkpt lat="41.644766662" lon="2.514665524">
        <ele>239.02</ele>
        <time>2014-04-06T12:19:16Z</time>
      </trkpt>
      <trkpt lat="41.644634899" lon="2.514615400">
        <ele>240.47</ele>
        <time>2014-04-06T12:19:25Z</time>
      </trkpt>
      <trkpt lat="41.644468602" lon="2.514615316">
        <ele>240.95</ele>
        <time>2014-04-06T12:19:35Z</time>
      </trkpt>
      <trkpt lat="41.644308759" lon="2.514628140">
        <ele>242.39</ele>
        <time>2014-04-06T12:19:44Z</time>
      </trkpt>
      <trkpt lat="41.644173140" lon="2.514617160">
        <ele>243.35</ele>
        <time>2014-04-06T12:19:52Z</time>
      </trkpt>
      <trkpt lat="41.644091835" lon="2.514594361">
        <ele>244.31</ele>
        <time>2014-04-06T12:19:58Z</time>
      </trkpt>
      <trkpt lat="41.643939033" lon="2.514578268">
        <ele>246.72</ele>
        <time>2014-04-06T12:20:09Z</time>
      </trkpt>
      <trkpt lat="41.643842139" lon="2.514557229">
        <ele>248.64</ele>
        <time>2014-04-06T12:20:17Z</time>
      </trkpt>
      <trkpt lat="41.643739209" lon="2.514543651">
        <ele>249.60</ele>
        <time>2014-04-06T12:20:25Z</time>
      </trkpt>
      <trkpt lat="41.643627729" lon="2.514533173">
        <ele>250.56</ele>
        <time>2014-04-06T12:20:33Z</time>
      </trkpt>
      <trkpt lat="41.643539803" lon="2.514519008">
        <ele>251.52</ele>
        <time>2014-04-06T12:20:40Z</time>
      </trkpt>
      <trkpt lat="41.643443411" lon="2.514479445">
        <ele>252.48</ele>
        <time>2014-04-06T12:20:47Z</time>
      </trkpt>
      <trkpt lat="41.643293543" lon="2.514407445">
        <ele>253.93</ele>
        <time>2014-04-06T12:20:58Z</time>
      </trkpt>
      <trkpt lat="41.643175358" lon="2.514364278">
        <ele>254.41</ele>
        <time>2014-04-06T12:21:06Z</time>
      </trkpt>
      <trkpt lat="41.643021885" lon="2.514312478">
        <ele>256.33</ele>
        <time>2014-04-06T12:21:17Z</time>
      </trkpt>
      <trkpt lat="41.642897917" lon="2.514270736">
        <ele>257.29</ele>
        <time>2014-04-06T12:21:26Z</time>
      </trkpt>
      <trkpt lat="41.642800184" lon="2.514221953">
        <ele>258.25</ele>
        <time>2014-04-06T12:21:33Z</time>
      </trkpt>
      <trkpt lat="41.642690716" lon="2.514129752">
        <ele>260.17</ele>
        <time>2014-04-06T12:21:42Z</time>
      </trkpt>
      <trkpt lat="41.642574124" lon="2.514020369">
        <ele>261.14</ele>
        <time>2014-04-06T12:21:52Z</time>
      </trkpt>
      <trkpt lat="41.642484941" lon="2.513936550">
        <ele>263.06</ele>
        <time>2014-04-06T12:22:00Z</time>
      </trkpt>
      <trkpt lat="41.642380754" lon="2.513870584">
        <ele>264.02</ele>
        <time>2014-04-06T12:22:08Z</time>
      </trkpt>
      <trkpt lat="41.642289726" lon="2.513767989">
        <ele>265.46</ele>
        <time>2014-04-06T12:22:16Z</time>
      </trkpt>
      <trkpt lat="41.642201884" lon="2.513653493">
        <ele>265.94</ele>
        <time>2014-04-06T12:22:24Z</time>
      </trkpt>
      <trkpt lat="41.642076574" lon="2.513509743">
        <ele>267.86</ele>
        <time>2014-04-06T12:22:36Z</time>
      </trkpt>
      <trkpt lat="41.642005915" lon="2.513422152">
        <ele>269.31</ele>
        <time>2014-04-06T12:22:44Z</time>
      </trkpt>
      <trkpt lat="41.641932406" lon="2.513313355">
        <ele>270.27</ele>
        <time>2014-04-06T12:22:53Z</time>
      </trkpt>
      <trkpt lat="41.641881444" lon="2.513224423">
        <ele>272.19</ele>
        <time>2014-04-06T12:23:00Z</time>
      </trkpt>
      <trkpt lat="41.641833499" lon="2.513110764">
        <ele>272.67</ele>
        <time>2014-04-06T12:23:08Z</time>
      </trkpt>
      <trkpt lat="41.641799804" lon="2.513043961">
        <ele>274.11</ele>
        <time>2014-04-06T12:23:14Z</time>
      </trkpt>
      <trkpt lat="41.641785722" lon="2.513005236">
        <ele>274.59</ele>
        <time>2014-04-06T12:23:17Z</time>
      </trkpt>
      <trkpt lat="41.641760241" lon="2.512974139">
        <ele>274.59</ele>
        <time>2014-04-06T12:23:20Z</time>
      </trkpt>
      <trkpt lat="41.641722858" lon="2.512882777">
        <ele>275.56</ele>
        <time>2014-04-06T12:23:27Z</time>
      </trkpt>
      <trkpt lat="41.641693102" lon="2.512819745">
        <ele>276.52</ele>
        <time>2014-04-06T12:23:33Z</time>
      </trkpt>
      <trkpt lat="41.641652618" lon="2.512729639">
        <ele>277.96</ele>
        <time>2014-04-06T12:23:40Z</time>
      </trkpt>
      <trkpt lat="41.641624371" lon="2.512714887">
        <ele>278.44</ele>
        <time>2014-04-06T12:23:43Z</time>
      </trkpt>
      <trkpt lat="41.641540803" lon="2.512711451">
        <ele>279.88</ele>
        <time>2014-04-06T12:23:51Z</time>
      </trkpt>
      <trkpt lat="41.641532673" lon="2.512716480">
        <ele>279.88</ele>
        <time>2014-04-06T12:23:52Z</time>
      </trkpt>
      <trkpt lat="41.641483974" lon="2.512789570">
        <ele>281.32</ele>
        <time>2014-04-06T12:24:00Z</time>
      </trkpt>
      <trkpt lat="41.641482130" lon="2.512801472">
        <ele>281.32</ele>
        <time>2014-04-06T12:24:01Z</time>
      </trkpt>
      <trkpt lat="41.641468970" lon="2.512892919">
        <ele>282.28</ele>
        <time>2014-04-06T12:24:09Z</time>
      </trkpt>
      <trkpt lat="41.641467378" lon="2.512917394">
        <ele>282.28</ele>
        <time>2014-04-06T12:24:11Z</time>
      </trkpt>
      <trkpt lat="41.641494535" lon="2.513093162">
        <ele>283.25</ele>
        <time>2014-04-06T12:24:23Z</time>
      </trkpt>
      <trkpt lat="41.641511969" lon="2.513185447">
        <ele>284.21</ele>
        <time>2014-04-06T12:24:30Z</time>
      </trkpt>
      <trkpt lat="41.641514652" lon="2.513300782">
        <ele>285.65</ele>
        <time>2014-04-06T12:24:37Z</time>
      </trkpt>
      <trkpt lat="41.641478274" lon="2.513404383">
        <ele>287.09</ele>
        <time>2014-04-06T12:24:44Z</time>
      </trkpt>
      <trkpt lat="41.641391773" lon="2.513526172">
        <ele>287.57</ele>
        <time>2014-04-06T12:24:54Z</time>
      </trkpt>
      <trkpt lat="41.641360341" lon="2.513554670">
        <ele>288.05</ele>
        <time>2014-04-06T12:24:57Z</time>
      </trkpt>
      <trkpt lat="41.641282641" lon="2.513609571">
        <ele>289.01</ele>
        <time>2014-04-06T12:25:05Z</time>
      </trkpt>
      <trkpt lat="41.641226230" lon="2.513609739">
        <ele>290.46</ele>
        <time>2014-04-06T12:25:10Z</time>
      </trkpt>
      <trkpt lat="41.641212735" lon="2.513569757">
        <ele>290.46</ele>
        <time>2014-04-06T12:25:14Z</time>
      </trkpt>
      <trkpt lat="41.641219022" lon="2.513516700">
        <ele>290.94</ele>
        <time>2014-04-06T12:25:18Z</time>
      </trkpt>
      <trkpt lat="41.641249532" lon="2.513458194">
        <ele>291.90</ele>
        <time>2014-04-06T12:25:23Z</time>
      </trkpt>
      <trkpt lat="41.641263362" lon="2.513412597">
        <ele>291.90</ele>
        <time>2014-04-06T12:25:26Z</time>
      </trkpt>
      <trkpt lat="41.641303847" lon="2.513303381">
        <ele>293.34</ele>
        <time>2014-04-06T12:25:34Z</time>
      </trkpt>
      <trkpt lat="41.641309211" lon="2.513286198">
        <ele>293.34</ele>
        <time>2014-04-06T12:25:35Z</time>
      </trkpt>
      <trkpt lat="41.641326646" lon="2.513241438">
        <ele>293.34</ele>
        <time>2014-04-06T12:25:38Z</time>
      </trkpt>
      <trkpt lat="41.641321952" lon="2.513109172">
        <ele>294.30</ele>
        <time>2014-04-06T12:25:47Z</time>
      </trkpt>
      <trkpt lat="41.641252969" lon="2.513102466">
        <ele>295.26</ele>
        <time>2014-04-06T12:25:54Z</time>
      </trkpt>
      <trkpt lat="41.641237714" lon="2.513129372">
        <ele>296.22</ele>
        <time>2014-04-06T12:25:57Z</time>
      </trkpt>
      <trkpt lat="41.641170575" lon="2.513232553">
        <ele>298.63</ele>
        <time>2014-04-06T12:26:08Z</time>
      </trkpt>
      <trkpt lat="41.641092874" lon="2.513303297">
        <ele>299.11</ele>
        <time>2014-04-06T12:26:16Z</time>
      </trkpt>
      <trkpt lat="41.641022885" lon="2.513364149">
        <ele>300.55</ele>
        <time>2014-04-06T12:26:25Z</time>
      </trkpt>
      <trkpt lat="41.640954573" lon="2.513423409">
        <ele>301.51</ele>
        <time>2014-04-06T12:26:33Z</time>
      </trkpt>
      <trkpt lat="41.640875532" lon="2.513505217">
        <ele>302.47</ele>
        <time>2014-04-06T12:26:42Z</time>
      </trkpt>
      <trkpt lat="41.640814344" lon="2.513566069">
        <ele>303.91</ele>
        <time>2014-04-06T12:26:49Z</time>
      </trkpt>
      <trkpt lat="41.640785510" lon="2.513606051">
        <ele>304.39</ele>
        <time>2014-04-06T12:26:53Z</time>
      </trkpt>
      <trkpt lat="41.640741170" lon="2.513687356">
        <ele>304.39</ele>
        <time>2014-04-06T12:26:58Z</time>
      </trkpt>
      <trkpt lat="41.640735973" lon="2.513824316">
        <ele>305.36</ele>
        <time>2014-04-06T12:27:07Z</time>
      </trkpt>
      <trkpt lat="41.640807303" lon="2.513977453">
        <ele>305.84</ele>
        <time>2014-04-06T12:27:17Z</time>
      </trkpt>
      <trkpt lat="41.640833622" lon="2.514047777">
        <ele>306.32</ele>
        <time>2014-04-06T12:27:22Z</time>
      </trkpt>
      <trkpt lat="41.640836304" lon="2.514123550">
        <ele>306.80</ele>
        <time>2014-04-06T12:27:26Z</time>
      </trkpt>
      <trkpt lat="41.640817445" lon="2.514249027">
        <ele>307.28</ele>
        <time>2014-04-06T12:27:33Z</time>
      </trkpt>
      <trkpt lat="41.640810069" lon="2.514373163">
        <ele>307.28</ele>
        <time>2014-04-06T12:27:39Z</time>
      </trkpt>
      <trkpt lat="41.640763801" lon="2.514562762">
        <ele>307.76</ele>
        <time>2014-04-06T12:27:49Z</time>
      </trkpt>
      <trkpt lat="41.640732788" lon="2.514729729">
        <ele>308.24</ele>
        <time>2014-04-06T12:27:57Z</time>
      </trkpt>
      <trkpt lat="41.640690962" lon="2.514803741">
        <ele>308.72</ele>
        <time>2014-04-06T12:28:02Z</time>
      </trkpt>
      <trkpt lat="41.640571604" lon="2.514861325">
        <ele>309.68</ele>
        <time>2014-04-06T12:28:11Z</time>
      </trkpt>
      <trkpt lat="41.640469596" lon="2.514792007">
        <ele>311.12</ele>
        <time>2014-04-06T12:28:19Z</time>
      </trkpt>
      <trkpt lat="41.640391728" lon="2.514644737">
        <ele>311.60</ele>
        <time>2014-04-06T12:28:26Z</time>
      </trkpt>
      <trkpt lat="41.640297348" lon="2.514448768">
        <ele>312.57</ele>
        <time>2014-04-06T12:28:35Z</time>
      </trkpt>
      <trkpt lat="41.640142031" lon="2.514303425">
        <ele>314.01</ele>
        <time>2014-04-06T12:28:45Z</time>
      </trkpt>
      <trkpt lat="41.640001467" lon="2.514285656">
        <ele>315.93</ele>
        <time>2014-04-06T12:28:54Z</time>
      </trkpt>
      <trkpt lat="41.639931897" lon="2.514315998">
        <ele>316.89</ele>
        <time>2014-04-06T12:28:59Z</time>
      </trkpt>
      <trkpt lat="41.639851598" lon="2.514405433">
        <ele>318.33</ele>
        <time>2014-04-06T12:29:08Z</time>
      </trkpt>
      <trkpt lat="41.639747998" lon="2.514539544">
        <ele>319.78</ele>
        <time>2014-04-06T12:29:18Z</time>
      </trkpt>
      <trkpt lat="41.639726876" lon="2.514565025">
        <ele>320.26</ele>
        <time>2014-04-06T12:29:20Z</time>
      </trkpt>
      <trkpt lat="41.639687229" lon="2.514622357">
        <ele>320.74</ele>
        <time>2014-04-06T12:29:24Z</time>
      </trkpt>
      <trkpt lat="41.639617827" lon="2.514742721">
        <ele>321.22</ele>
        <time>2014-04-06T12:29:32Z</time>
      </trkpt>
      <trkpt lat="41.639581617" lon="2.514828719">
        <ele>321.70</ele>
        <time>2014-04-06T12:29:37Z</time>
      </trkpt>
      <trkpt lat="41.639539875" lon="2.514888482">
        <ele>322.18</ele>
        <time>2014-04-06T12:29:41Z</time>
      </trkpt>
      <trkpt lat="41.639473155" lon="2.514966266">
        <ele>323.14</ele>
        <time>2014-04-06T12:29:48Z</time>
      </trkpt>
      <trkpt lat="41.639399646" lon="2.514982946">
        <ele>324.10</ele>
        <time>2014-04-06T12:29:54Z</time>
      </trkpt>
      <trkpt lat="41.639228907" lon="2.514916897">
        <ele>324.58</ele>
        <time>2014-04-06T12:30:05Z</time>
      </trkpt>
      <trkpt lat="41.639107285" lon="2.514943468">
        <ele>325.06</ele>
        <time>2014-04-06T12:30:12Z</time>
      </trkpt>
      <trkpt lat="41.639017347" lon="2.515016558">
        <ele>326.02</ele>
        <time>2014-04-06T12:30:19Z</time>
      </trkpt>
      <trkpt lat="41.638912825" lon="2.515130635">
        <ele>326.99</ele>
        <time>2014-04-06T12:30:27Z</time>
      </trkpt>
      <trkpt lat="41.638802435" lon="2.515302548">
        <ele>327.95</ele>
        <time>2014-04-06T12:30:37Z</time>
      </trkpt>
      <trkpt lat="41.638726328" lon="2.515445124">
        <ele>328.43</ele>
        <time>2014-04-06T12:30:44Z</time>
      </trkpt>
      <trkpt lat="41.638609149" lon="2.515550150">
        <ele>329.87</ele>
        <time>2014-04-06T12:30:52Z</time>
      </trkpt>
      <trkpt lat="41.638500016" lon="2.515506480">
        <ele>329.87</ele>
        <time>2014-04-06T12:30:59Z</time>
      </trkpt>
      <trkpt lat="41.638397338" lon="2.515365748">
        <ele>329.87</ele>
        <time>2014-04-06T12:31:06Z</time>
      </trkpt>
      <trkpt lat="41.638214948" lon="2.515223507">
        <ele>330.35</ele>
        <time>2014-04-06T12:31:15Z</time>
      </trkpt>
      <trkpt lat="41.638041526" lon="2.515129965">
        <ele>330.83</ele>
        <time>2014-04-06T12:31:24Z</time>
      </trkpt>
      <trkpt lat="41.637866177" lon="2.515086714">
        <ele>331.31</ele>
        <time>2014-04-06T12:31:32Z</time>
      </trkpt>
      <trkpt lat="41.637694683" lon="2.515110854">
        <ele>332.27</ele>
        <time>2014-04-06T12:31:40Z</time>
      </trkpt>
      <trkpt lat="41.637533164" lon="2.515119655">
        <ele>332.75</ele>
        <time>2014-04-06T12:31:47Z</time>
      </trkpt>
      <trkpt lat="41.637318503" lon="2.515276481">
        <ele>330.83</ele>
        <time>2014-04-06T12:31:52Z</time>
      </trkpt>
      <trkpt lat="41.637135107" lon="2.515365748">
        <ele>330.35</ele>
        <time>2014-04-06T12:31:56Z</time>
      </trkpt>
      <trkpt lat="41.636899911" lon="2.515411345">
        <ele>330.35</ele>
        <time>2014-04-06T12:32:03Z</time>
      </trkpt>
      <trkpt lat="41.636775775" lon="2.515406735">
        <ele>331.79</ele>
        <time>2014-04-06T12:32:08Z</time>
      </trkpt>
      <trkpt lat="41.636654573" lon="2.515377399">
        <ele>332.75</ele>
        <time>2014-04-06T12:32:14Z</time>
      </trkpt>
      <trkpt lat="41.636521049" lon="2.515348565">
        <ele>332.75</ele>
        <time>2014-04-06T12:32:21Z</time>
      </trkpt>
      <trkpt lat="41.636384508" lon="2.515291149">
        <ele>334.68</ele>
        <time>2014-04-06T12:32:30Z</time>
      </trkpt>
      <trkpt lat="41.636294402" lon="2.515200289">
        <ele>335.16</ele>
        <time>2014-04-06T12:32:38Z</time>
      </trkpt>
      <trkpt lat="41.636239501" lon="2.515116554">
        <ele>336.60</ele>
        <time>2014-04-06T12:32:44Z</time>
      </trkpt>
      <trkpt lat="41.636164064" lon="2.515048158">
        <ele>338.04</ele>
        <time>2014-04-06T12:32:51Z</time>
      </trkpt>
      <trkpt lat="41.636040012" lon="2.515006164">
        <ele>339.00</ele>
        <time>2014-04-06T12:33:00Z</time>
      </trkpt>
      <trkpt lat="41.635961976" lon="2.514990742">
        <ele>339.96</ele>
        <time>2014-04-06T12:33:07Z</time>
      </trkpt>
      <trkpt lat="41.635853095" lon="2.514975738">
        <ele>340.92</ele>
        <time>2014-04-06T12:33:16Z</time>
      </trkpt>
      <trkpt lat="41.635743125" lon="2.514975067">
        <ele>341.89</ele>
        <time>2014-04-06T12:33:24Z</time>
      </trkpt>
      <trkpt lat="41.635684200" lon="2.514980683">
        <ele>342.85</ele>
        <time>2014-04-06T12:33:29Z</time>
      </trkpt>
      <trkpt lat="41.635635333" lon="2.514997698">
        <ele>343.33</ele>
        <time>2014-04-06T12:33:33Z</time>
      </trkpt>
      <trkpt lat="41.635538606" lon="2.515046397">
        <ele>344.29</ele>
        <time>2014-04-06T12:33:42Z</time>
      </trkpt>
      <trkpt lat="41.635463840" lon="2.515140861">
        <ele>346.69</ele>
        <time>2014-04-06T12:33:50Z</time>
      </trkpt>
      <trkpt lat="41.635444058" lon="2.515178831">
        <ele>347.17</ele>
        <time>2014-04-06T12:33:53Z</time>
      </trkpt>
      <trkpt lat="41.635440286" lon="2.515211353">
        <ele>347.17</ele>
        <time>2014-04-06T12:33:55Z</time>
      </trkpt>
      <trkpt lat="41.635406088" lon="2.515296932">
        <ele>348.13</ele>
        <time>2014-04-06T12:34:01Z</time>
      </trkpt>
      <trkpt lat="41.635324532" lon="2.515352253">
        <ele>350.06</ele>
        <time>2014-04-06T12:34:10Z</time>
      </trkpt>
      <trkpt lat="41.635277007" lon="2.515302213">
        <ele>351.50</ele>
        <time>2014-04-06T12:34:17Z</time>
      </trkpt>
      <trkpt lat="41.635272816" lon="2.515264243">
        <ele>351.50</ele>
        <time>2014-04-06T12:34:20Z</time>
      </trkpt>
      <trkpt lat="41.635281449" lon="2.515142286">
        <ele>353.42</ele>
        <time>2014-04-06T12:34:29Z</time>
      </trkpt>
      <trkpt lat="41.635281030" lon="2.515094509">
        <ele>354.38</ele>
        <time>2014-04-06T12:34:33Z</time>
      </trkpt>
      <trkpt lat="41.635287149" lon="2.515029047">
        <ele>355.83</ele>
        <time>2014-04-06T12:34:37Z</time>
      </trkpt>
      <trkpt lat="41.635269296" lon="2.514890159">
        <ele>357.75</ele>
        <time>2014-04-06T12:34:48Z</time>
      </trkpt>
      <trkpt lat="41.635213472" lon="2.514814470">
        <ele>359.19</ele>
        <time>2014-04-06T12:34:56Z</time>
      </trkpt>
      <trkpt lat="41.635146417" lon="2.514734423">
        <ele>360.63</ele>
        <time>2014-04-06T12:35:04Z</time>
      </trkpt>
      <trkpt lat="41.635082463" lon="2.514703326">
        <ele>362.07</ele>
        <time>2014-04-06T12:35:11Z</time>
      </trkpt>
      <trkpt lat="41.635058826" lon="2.514697291">
        <ele>362.55</ele>
        <time>2014-04-06T12:35:13Z</time>
      </trkpt>
      <trkpt lat="41.634982551" lon="2.514701650">
        <ele>363.52</ele>
        <time>2014-04-06T12:35:21Z</time>
      </trkpt>
      <trkpt lat="41.634929493" lon="2.514695363">
        <ele>364.00</ele>
        <time>2014-04-06T12:35:26Z</time>
      </trkpt>
      <trkpt lat="41.634810722" lon="2.514649514">
        <ele>365.44</ele>
        <time>2014-04-06T12:35:37Z</time>
      </trkpt>
      <trkpt lat="41.634730674" lon="2.514636355">
        <ele>366.88</ele>
        <time>2014-04-06T12:35:46Z</time>
      </trkpt>
      <trkpt lat="41.634651466" lon="2.514630655">
        <ele>367.84</ele>
        <time>2014-04-06T12:35:53Z</time>
      </trkpt>
      <trkpt lat="41.634566138" lon="2.514663847">
        <ele>368.80</ele>
        <time>2014-04-06T12:36:01Z</time>
      </trkpt>
      <trkpt lat="41.634490868" lon="2.514739620">
        <ele>369.76</ele>
        <time>2014-04-06T12:36:10Z</time>
      </trkpt>
      <trkpt lat="41.634405373" lon="2.514782200">
        <ele>370.24</ele>
        <time>2014-04-06T12:36:18Z</time>
      </trkpt>
      <trkpt lat="41.634361200" lon="2.514797120">
        <ele>370.73</ele>
        <time>2014-04-06T12:36:22Z</time>
      </trkpt>
      <trkpt lat="41.634249386" lon="2.514810866">
        <ele>371.21</ele>
        <time>2014-04-06T12:36:30Z</time>
      </trkpt>
      <trkpt lat="41.634120807" lon="2.514803071">
        <ele>372.65</ele>
        <time>2014-04-06T12:36:40Z</time>
      </trkpt>
      <trkpt lat="41.634109743" lon="2.514800472">
        <ele>372.65</ele>
        <time>2014-04-06T12:36:41Z</time>
      </trkpt>
      <trkpt lat="41.634011423" lon="2.514801059">
        <ele>374.09</ele>
        <time>2014-04-06T12:36:50Z</time>
      </trkpt>
      <trkpt lat="41.633878905" lon="2.514766106">
        <ele>375.05</ele>
        <time>2014-04-06T12:37:01Z</time>
      </trkpt>
      <trkpt lat="41.633777736" lon="2.514807345">
        <ele>376.01</ele>
        <time>2014-04-06T12:37:10Z</time>
      </trkpt>
      <trkpt lat="41.633710597" lon="2.514881190">
        <ele>376.01</ele>
        <time>2014-04-06T12:37:17Z</time>
      </trkpt>
      <trkpt lat="41.633651085" lon="2.514954951">
        <ele>377.45</ele>
        <time>2014-04-06T12:37:24Z</time>
      </trkpt>
      <trkpt lat="41.633577492" lon="2.515008930">
        <ele>378.42</ele>
        <time>2014-04-06T12:37:30Z</time>
      </trkpt>
      <trkpt lat="41.633472216" lon="2.515043212">
        <ele>378.42</ele>
        <time>2014-04-06T12:37:37Z</time>
      </trkpt>
      <trkpt lat="41.633398706" lon="2.515038351">
        <ele>378.42</ele>
        <time>2014-04-06T12:37:42Z</time>
      </trkpt>
      <trkpt lat="41.633253364" lon="2.515044637">
        <ele>380.34</ele>
        <time>2014-04-06T12:37:52Z</time>
      </trkpt>
      <trkpt lat="41.633124031" lon="2.515041536">
        <ele>380.82</ele>
        <time>2014-04-06T12:38:00Z</time>
      </trkpt>
      <trkpt lat="41.633018000" lon="2.515015887">
        <ele>381.30</ele>
        <time>2014-04-06T12:38:08Z</time>
      </trkpt>
      <trkpt lat="41.632927979" lon="2.515007338">
        <ele>381.78</ele>
        <time>2014-04-06T12:38:14Z</time>
      </trkpt>
      <trkpt lat="41.632805100" lon="2.514937600">
        <ele>382.26</ele>
        <time>2014-04-06T12:38:24Z</time>
      </trkpt>
      <trkpt lat="41.632695967" lon="2.514859565">
        <ele>383.22</ele>
        <time>2014-04-06T12:38:33Z</time>
      </trkpt>
      <trkpt lat="41.632619105" lon="2.514789995">
        <ele>384.66</ele>
        <time>2014-04-06T12:38:40Z</time>
      </trkpt>
      <trkpt lat="41.632609382" lon="2.514779685">
        <ele>384.66</ele>
        <time>2014-04-06T12:38:41Z</time>
      </trkpt>
      <trkpt lat="41.632508129" lon="2.514710367">
        <ele>385.63</ele>
        <time>2014-04-06T12:38:50Z</time>
      </trkpt>
      <trkpt lat="41.632405199" lon="2.514652783">
        <ele>387.07</ele>
        <time>2014-04-06T12:38:59Z</time>
      </trkpt>
      <trkpt lat="41.632279638" lon="2.514608778">
        <ele>388.51</ele>
        <time>2014-04-06T12:39:09Z</time>
      </trkpt>
      <trkpt lat="41.632169081" lon="2.514605677">
        <ele>389.47</ele>
        <time>2014-04-06T12:39:18Z</time>
      </trkpt>
      <trkpt lat="41.632044694" lon="2.514601654">
        <ele>390.91</ele>
        <time>2014-04-06T12:39:28Z</time>
      </trkpt>
      <trkpt lat="41.631942518" lon="2.514633924">
        <ele>391.87</ele>
        <time>2014-04-06T12:39:36Z</time>
      </trkpt>
      <trkpt lat="41.631825591" lon="2.514660830">
        <ele>392.84</ele>
        <time>2014-04-06T12:39:45Z</time>
      </trkpt>
      <trkpt lat="41.631780245" lon="2.514678935">
        <ele>393.32</ele>
        <time>2014-04-06T12:39:49Z</time>
      </trkpt>
      <trkpt lat="41.631677902" lon="2.514724113">
        <ele>394.76</ele>
        <time>2014-04-06T12:39:59Z</time>
      </trkpt>
      <trkpt lat="41.631658791" lon="2.514730903">
        <ele>395.24</ele>
        <time>2014-04-06T12:40:01Z</time>
      </trkpt>
      <trkpt lat="41.631600117" lon="2.514755629">
        <ele>395.72</ele>
        <time>2014-04-06T12:40:07Z</time>
      </trkpt>
      <trkpt lat="41.631528452" lon="2.514815644">
        <ele>397.16</ele>
        <time>2014-04-06T12:40:14Z</time>
      </trkpt>
      <trkpt lat="41.631503977" lon="2.514832240">
        <ele>397.64</ele>
        <time>2014-04-06T12:40:16Z</time>
      </trkpt>
      <trkpt lat="41.631465588" lon="2.514871886">
        <ele>398.60</ele>
        <time>2014-04-06T12:40:20Z</time>
      </trkpt>
      <trkpt lat="41.631386798" lon="2.514904911">
        <ele>400.05</ele>
        <time>2014-04-06T12:40:28Z</time>
      </trkpt>
      <trkpt lat="41.631312786" lon="2.514970206">
        <ele>401.49</ele>
        <time>2014-04-06T12:40:36Z</time>
      </trkpt>
      <trkpt lat="41.631237935" lon="2.515055953">
        <ele>403.41</ele>
        <time>2014-04-06T12:40:45Z</time>
      </trkpt>
      <trkpt lat="41.631219831" lon="2.515075818">
        <ele>403.89</ele>
        <time>2014-04-06T12:40:47Z</time>
      </trkpt>
      <trkpt lat="41.631140119" lon="2.515201546">
        <ele>404.85</ele>
        <time>2014-04-06T12:40:58Z</time>
      </trkpt>
      <trkpt lat="41.631104412" lon="2.515299112">
        <ele>404.85</ele>
        <time>2014-04-06T12:41:06Z</time>
      </trkpt>
      <trkpt lat="41.631067950" lon="2.515438922">
        <ele>405.81</ele>
        <time>2014-04-06T12:41:16Z</time>
      </trkpt>
      <trkpt lat="41.631031154" lon="2.515513772">
        <ele>407.26</ele>
        <time>2014-04-06T12:41:23Z</time>
      </trkpt>
      <trkpt lat="41.631007936" lon="2.515564399">
        <ele>408.22</ele>
        <time>2014-04-06T12:41:27Z</time>
      </trkpt>
      <trkpt lat="41.630947670" lon="2.515656684">
        <ele>410.14</ele>
        <time>2014-04-06T12:41:36Z</time>
      </trkpt>
      <trkpt lat="41.630898971" lon="2.515757267">
        <ele>411.58</ele>
        <time>2014-04-06T12:41:45Z</time>
      </trkpt>
      <trkpt lat="41.630834347" lon="2.515839996">
        <ele>412.54</ele>
        <time>2014-04-06T12:41:53Z</time>
      </trkpt>
      <trkpt lat="41.630789923" lon="2.515868913">
        <ele>413.98</ele>
        <time>2014-04-06T12:41:58Z</time>
      </trkpt>
      <trkpt lat="41.630712222" lon="2.515897328">
        <ele>414.47</ele>
        <time>2014-04-06T12:42:07Z</time>
      </trkpt>
      <trkpt lat="41.630619267" lon="2.515925491">
        <ele>415.43</ele>
        <time>2014-04-06T12:42:16Z</time>
      </trkpt>
      <trkpt lat="41.630517678" lon="2.515973603">
        <ele>416.39</ele>
        <time>2014-04-06T12:42:26Z</time>
      </trkpt>
      <trkpt lat="41.630464453" lon="2.515967736">
        <ele>417.83</ele>
        <time>2014-04-06T12:42:32Z</time>
      </trkpt>
      <trkpt lat="41.630365966" lon="2.515886515">
        <ele>420.23</ele>
        <time>2014-04-06T12:42:43Z</time>
      </trkpt>
      <trkpt lat="41.630298240" lon="2.515770342">
        <ele>422.64</ele>
        <time>2014-04-06T12:42:53Z</time>
      </trkpt>
      <trkpt lat="41.630244093" lon="2.515643356">
        <ele>423.60</ele>
        <time>2014-04-06T12:43:03Z</time>
      </trkpt>
      <trkpt lat="41.630197909" lon="2.515593149">
        <ele>425.04</ele>
        <time>2014-04-06T12:43:10Z</time>
      </trkpt>
      <trkpt lat="41.630131608" lon="2.515550317">
        <ele>425.52</ele>
        <time>2014-04-06T12:43:17Z</time>
      </trkpt>
      <trkpt lat="41.630034881" lon="2.515534056">
        <ele>425.52</ele>
        <time>2014-04-06T12:43:27Z</time>
      </trkpt>
      <trkpt lat="41.629962545" lon="2.515570099">
        <ele>426.00</ele>
        <time>2014-04-06T12:43:35Z</time>
      </trkpt>
      <trkpt lat="41.629867830" lon="2.515617289">
        <ele>426.96</ele>
        <time>2014-04-06T12:43:44Z</time>
      </trkpt>
      <trkpt lat="41.629783675" lon="2.515619133">
        <ele>427.92</ele>
        <time>2014-04-06T12:43:52Z</time>
      </trkpt>
      <trkpt lat="41.629680913" lon="2.515618295">
        <ele>428.89</ele>
        <time>2014-04-06T12:44:02Z</time>
      </trkpt>
      <trkpt lat="41.629570104" lon="2.515603123">
        <ele>430.33</ele>
        <time>2014-04-06T12:44:12Z</time>
      </trkpt>
      <trkpt lat="41.629489470" lon="2.515621647">
        <ele>431.77</ele>
        <time>2014-04-06T12:44:20Z</time>
      </trkpt>
      <trkpt lat="41.629410932" lon="2.515631035">
        <ele>433.21</ele>
        <time>2014-04-06T12:44:28Z</time>
      </trkpt>
      <trkpt lat="41.629367178" lon="2.515603710">
        <ele>434.17</ele>
        <time>2014-04-06T12:44:33Z</time>
      </trkpt>
      <trkpt lat="41.629266344" lon="2.515585438">
        <ele>436.10</ele>
        <time>2014-04-06T12:44:43Z</time>
      </trkpt>
      <trkpt lat="41.629188057" lon="2.515547970">
        <ele>437.54</ele>
        <time>2014-04-06T12:44:51Z</time>
      </trkpt>
      <trkpt lat="41.629115889" lon="2.515520059">
        <ele>438.98</ele>
        <time>2014-04-06T12:44:59Z</time>
      </trkpt>
      <trkpt lat="41.629054869" lon="2.515499691">
        <ele>440.42</ele>
        <time>2014-04-06T12:45:06Z</time>
      </trkpt>
      <trkpt lat="41.628978091" lon="2.515462140">
        <ele>441.86</ele>
        <time>2014-04-06T12:45:14Z</time>
      </trkpt>
      <trkpt lat="41.628901564" lon="2.515413776">
        <ele>443.31</ele>
        <time>2014-04-06T12:45:22Z</time>
      </trkpt>
      <trkpt lat="41.628822522" lon="2.515337585">
        <ele>444.27</ele>
        <time>2014-04-06T12:45:31Z</time>
      </trkpt>
      <trkpt lat="41.628751360" lon="2.515283102">
        <ele>445.71</ele>
        <time>2014-04-06T12:45:40Z</time>
      </trkpt>
      <trkpt lat="41.628688999" lon="2.515237337">
        <ele>447.15</ele>
        <time>2014-04-06T12:45:48Z</time>
      </trkpt>
      <trkpt lat="41.628638121" lon="2.515191320">
        <ele>448.59</ele>
        <time>2014-04-06T12:45:54Z</time>
      </trkpt>
      <trkpt lat="41.628598390" lon="2.515156787">
        <ele>449.07</ele>
        <time>2014-04-06T12:46:00Z</time>
      </trkpt>
      <trkpt lat="41.628561594" lon="2.515122002">
        <ele>450.03</ele>
        <time>2014-04-06T12:46:06Z</time>
      </trkpt>
      <trkpt lat="41.628484229" lon="2.515028963">
        <ele>451.00</ele>
        <time>2014-04-06T12:46:15Z</time>
      </trkpt>
      <trkpt lat="41.628433267" lon="2.514999878">
        <ele>451.00</ele>
        <time>2014-04-06T12:46:19Z</time>
      </trkpt>
      <trkpt lat="41.628273340" lon="2.514943970">
        <ele>451.00</ele>
        <time>2014-04-06T12:46:30Z</time>
      </trkpt>
      <trkpt lat="41.628208213" lon="2.514939863">
        <ele>451.48</ele>
        <time>2014-04-06T12:46:35Z</time>
      </trkpt>
      <trkpt lat="41.628108049" lon="2.514943803">
        <ele>452.44</ele>
        <time>2014-04-06T12:46:43Z</time>
      </trkpt>
      <trkpt lat="41.628093548" lon="2.514940199">
        <ele>452.44</ele>
        <time>2014-04-06T12:46:44Z</time>
      </trkpt>
      <trkpt lat="41.627974944" lon="2.514942713">
        <ele>452.92</ele>
        <time>2014-04-06T12:46:52Z</time>
      </trkpt>
      <trkpt lat="41.627844103" lon="2.514967524">
        <ele>452.92</ele>
        <time>2014-04-06T12:47:00Z</time>
      </trkpt>
      <trkpt lat="41.627767492" lon="2.514982276">
        <ele>452.92</ele>
        <time>2014-04-06T12:47:03Z</time>
      </trkpt>
      <trkpt lat="41.627523663" lon="2.515181095">
        <ele>449.07</ele>
        <time>2014-04-06T12:47:09Z</time>
      </trkpt>
      <trkpt lat="41.627404723" lon="2.515287126">
        <ele>445.71</ele>
        <time>2014-04-06T12:47:12Z</time>
      </trkpt>
      <trkpt lat="41.627367089" lon="2.515317133">
        <ele>444.27</ele>
        <time>2014-04-06T12:47:13Z</time>
      </trkpt>
      <trkpt lat="41.627181681" lon="2.515404640">
        <ele>441.38</ele>
        <time>2014-04-06T12:47:18Z</time>
      </trkpt>
      <trkpt lat="41.627034830" lon="2.515566997">
        <ele>440.42</ele>
        <time>2014-04-06T12:47:22Z</time>
      </trkpt>
      <trkpt lat="41.626908515" lon="2.515715525">
        <ele>439.46</ele>
        <time>2014-04-06T12:47:25Z</time>
      </trkpt>
      <trkpt lat="41.626816146" lon="2.515934711">
        <ele>438.02</ele>
        <time>2014-04-06T12:47:28Z</time>
      </trkpt>
      <trkpt lat="41.626806004" lon="2.516021799">
        <ele>437.54</ele>
        <time>2014-04-06T12:47:29Z</time>
      </trkpt>
      <trkpt lat="41.626713300" lon="2.516627308">
        <ele>435.13</ele>
        <time>2014-04-06T12:47:35Z</time>
      </trkpt>
      <trkpt lat="41.626690921" lon="2.516842807">
        <ele>434.17</ele>
        <time>2014-04-06T12:47:37Z</time>
      </trkpt>
      <trkpt lat="41.626601905" lon="2.517332142">
        <ele>430.33</ele>
        <time>2014-04-06T12:47:42Z</time>
      </trkpt>
      <trkpt lat="41.626585476" lon="2.517858442">
        <ele>427.44</ele>
        <time>2014-04-06T12:47:48Z</time>
      </trkpt>
      <trkpt lat="41.626595367" lon="2.518394129">
        <ele>426.48</ele>
        <time>2014-04-06T12:47:54Z</time>
      </trkpt>
      <trkpt lat="41.626585309" lon="2.518531760">
        <ele>426.48</ele>
        <time>2014-04-06T12:47:56Z</time>
      </trkpt>
      <trkpt lat="41.626637025" lon="2.518751115">
        <ele>426.96</ele>
        <time>2014-04-06T12:48:02Z</time>
      </trkpt>
      <trkpt lat="41.626724197" lon="2.518974409">
        <ele>427.92</ele>
        <time>2014-04-06T12:48:10Z</time>
      </trkpt>
      <trkpt lat="41.626746493" lon="2.519220417">
        <ele>426.96</ele>
        <time>2014-04-06T12:48:15Z</time>
      </trkpt>
      <trkpt lat="41.626748588" lon="2.519269368">
        <ele>426.00</ele>
        <time>2014-04-06T12:48:16Z</time>
      </trkpt>
      <trkpt lat="41.626800975" lon="2.519595675">
        <ele>425.04</ele>
        <time>2014-04-06T12:48:21Z</time>
      </trkpt>
      <trkpt lat="41.626762083" lon="2.519915864">
        <ele>424.08</ele>
        <time>2014-04-06T12:48:26Z</time>
      </trkpt>
      <trkpt lat="41.626669547" lon="2.520100853">
        <ele>424.08</ele>
        <time>2014-04-06T12:48:31Z</time>
      </trkpt>
      <trkpt lat="41.626655465" lon="2.520120382">
        <ele>424.08</ele>
        <time>2014-04-06T12:48:32Z</time>
      </trkpt>
      <trkpt lat="41.626620345" lon="2.520097416">
        <ele>423.60</ele>
        <time>2014-04-06T12:48:36Z</time>
      </trkpt>
      <trkpt lat="41.626685556" lon="2.519875212">
        <ele>420.23</ele>
        <time>2014-04-06T12:48:43Z</time>
      </trkpt>
      <trkpt lat="41.626666781" lon="2.519666251">
        <ele>417.83</ele>
        <time>2014-04-06T12:48:49Z</time>
      </trkpt>
      <trkpt lat="41.626579106" lon="2.519432731">
        <ele>413.50</ele>
        <time>2014-04-06T12:48:57Z</time>
      </trkpt>
      <trkpt lat="41.626504926" lon="2.519256460">
        <ele>411.10</ele>
        <time>2014-04-06T12:49:03Z</time>
      </trkpt>
      <trkpt lat="41.626482798" lon="2.519225447">
        <ele>410.14</ele>
        <time>2014-04-06T12:49:04Z</time>
      </trkpt>
      <trkpt lat="41.626335947" lon="2.518995615">
        <ele>406.77</ele>
        <time>2014-04-06T12:49:11Z</time>
      </trkpt>
      <trkpt lat="41.626319770" lon="2.518969547">
        <ele>406.29</ele>
        <time>2014-04-06T12:49:12Z</time>
      </trkpt>
      <trkpt lat="41.626254223" lon="2.518813979">
        <ele>403.89</ele>
        <time>2014-04-06T12:49:18Z</time>
      </trkpt>
      <trkpt lat="41.626177780" lon="2.518660925">
        <ele>401.97</ele>
        <time>2014-04-06T12:49:25Z</time>
      </trkpt>
      <trkpt lat="41.626112485" lon="2.518553721">
        <ele>400.53</ele>
        <time>2014-04-06T12:49:29Z</time>
      </trkpt>
      <trkpt lat="41.626043754" lon="2.518346772">
        <ele>397.16</ele>
        <time>2014-04-06T12:49:35Z</time>
      </trkpt>
      <trkpt lat="41.625974687" lon="2.518136470">
        <ele>395.24</ele>
        <time>2014-04-06T12:49:40Z</time>
      </trkpt>
      <trkpt lat="41.625932023" lon="2.517890545">
        <ele>391.87</ele>
        <time>2014-04-06T12:49:46Z</time>
      </trkpt>
      <trkpt lat="41.625928000" lon="2.517867075">
        <ele>391.87</ele>
        <time>2014-04-06T12:49:47Z</time>
      </trkpt>
      <trkpt lat="41.625871422" lon="2.517739587">
        <ele>390.43</ele>
        <time>2014-04-06T12:49:53Z</time>
      </trkpt>
      <trkpt lat="41.625846444" lon="2.517699270">
        <ele>389.95</ele>
        <time>2014-04-06T12:49:55Z</time>
      </trkpt>
      <trkpt lat="41.625794141" lon="2.517581755">
        <ele>388.03</ele>
        <time>2014-04-06T12:49:59Z</time>
      </trkpt>
      <trkpt lat="41.625623318" lon="2.517382350">
        <ele>384.18</ele>
        <time>2014-04-06T12:50:06Z</time>
      </trkpt>
      <trkpt lat="41.625559280" lon="2.517342117">
        <ele>383.70</ele>
        <time>2014-04-06T12:50:08Z</time>
      </trkpt>
      <trkpt lat="41.625508988" lon="2.517299956">
        <ele>382.74</ele>
        <time>2014-04-06T12:50:10Z</time>
      </trkpt>
      <trkpt lat="41.625351828" lon="2.517197697">
        <ele>380.82</ele>
        <time>2014-04-06T12:50:16Z</time>
      </trkpt>
      <trkpt lat="41.625283431" lon="2.517158302">
        <ele>379.86</ele>
        <time>2014-04-06T12:50:19Z</time>
      </trkpt>
      <trkpt lat="41.625075979" lon="2.517054031">
        <ele>377.94</ele>
        <time>2014-04-06T12:50:25Z</time>
      </trkpt>
      <trkpt lat="41.624945305" lon="2.517022766">
        <ele>376.01</ele>
        <time>2014-04-06T12:50:29Z</time>
      </trkpt>
      <trkpt lat="41.624807842" lon="2.517001392">
        <ele>375.53</ele>
        <time>2014-04-06T12:50:32Z</time>
      </trkpt>
      <trkpt lat="41.624636516" lon="2.517059730">
        <ele>373.13</ele>
        <time>2014-04-06T12:50:37Z</time>
      </trkpt>
      <trkpt lat="41.624434512" lon="2.517117230">
        <ele>370.24</ele>
        <time>2014-04-06T12:50:43Z</time>
      </trkpt>
      <trkpt lat="41.624406936" lon="2.517126367">
        <ele>369.76</ele>
        <time>2014-04-06T12:50:44Z</time>
      </trkpt>
      <trkpt lat="41.624202669" lon="2.517175233">
        <ele>366.40</ele>
        <time>2014-04-06T12:50:50Z</time>
      </trkpt>
      <trkpt lat="41.624174254" lon="2.517256621">
        <ele>365.92</ele>
        <time>2014-04-06T12:50:54Z</time>
      </trkpt>
      <trkpt lat="41.624207866" lon="2.517267769">
        <ele>365.44</ele>
        <time>2014-04-06T12:50:56Z</time>
      </trkpt>
      <trkpt lat="41.624436524" lon="2.517265506">
        <ele>363.52</ele>
        <time>2014-04-06T12:51:05Z</time>
      </trkpt>
      <trkpt lat="41.624537945" lon="2.517267183">
        <ele>363.52</ele>
        <time>2014-04-06T12:51:11Z</time>
      </trkpt>
      <trkpt lat="41.624729807" lon="2.517303476">
        <ele>362.55</ele>
        <time>2014-04-06T12:51:19Z</time>
      </trkpt>
      <trkpt lat="41.624914879" lon="2.517384613">
        <ele>361.59</ele>
        <time>2014-04-06T12:51:26Z</time>
      </trkpt>
      <trkpt lat="41.625117805" lon="2.517487124">
        <ele>361.59</ele>
        <time>2014-04-06T12:51:35Z</time>
      </trkpt>
      <trkpt lat="41.625134066" lon="2.517497853">
        <ele>361.59</ele>
        <time>2014-04-06T12:51:36Z</time>
      </trkpt>
      <trkpt lat="41.625252251" lon="2.517556694">
        <ele>361.59</ele>
        <time>2014-04-06T12:51:43Z</time>
      </trkpt>
      <trkpt lat="41.625312852" lon="2.517579241">
        <ele>362.55</ele>
        <time>2014-04-06T12:51:48Z</time>
      </trkpt>
      <trkpt lat="41.625375632" lon="2.517630035">
        <ele>364.00</ele>
        <time>2014-04-06T12:51:53Z</time>
      </trkpt>
      <trkpt lat="41.625418045" lon="2.517742688">
        <ele>364.96</ele>
        <time>2014-04-06T12:52:02Z</time>
      </trkpt>
      <trkpt lat="41.625466995" lon="2.517850982">
        <ele>366.40</ele>
        <time>2014-04-06T12:52:10Z</time>
      </trkpt>
      <trkpt lat="41.625464732" lon="2.517904710">
        <ele>366.40</ele>
        <time>2014-04-06T12:52:13Z</time>
      </trkpt>
      <trkpt lat="41.625477221" lon="2.517972268">
        <ele>367.36</ele>
        <time>2014-04-06T12:52:17Z</time>
      </trkpt>
      <trkpt lat="41.625503708" lon="2.518110486">
        <ele>368.80</ele>
        <time>2014-04-06T12:52:24Z</time>
      </trkpt>
      <trkpt lat="41.625603704" lon="2.518263288">
        <ele>370.73</ele>
        <time>2014-04-06T12:52:34Z</time>
      </trkpt>
      <trkpt lat="41.625641758" lon="2.518329254">
        <ele>371.21</ele>
        <time>2014-04-06T12:52:38Z</time>
      </trkpt>
      <trkpt lat="41.625649385" lon="2.518408463">
        <ele>371.21</ele>
        <time>2014-04-06T12:52:42Z</time>
      </trkpt>
      <trkpt lat="41.625668496" lon="2.518548440">
        <ele>372.17</ele>
        <time>2014-04-06T12:52:50Z</time>
      </trkpt>
      <trkpt lat="41.625682913" lon="2.518690430">
        <ele>373.13</ele>
        <time>2014-04-06T12:52:57Z</time>
      </trkpt>
      <trkpt lat="41.625690624" lon="2.518722030">
        <ele>373.61</ele>
        <time>2014-04-06T12:52:59Z</time>
      </trkpt>
      <trkpt lat="41.625748208" lon="2.518870557">
        <ele>374.57</ele>
        <time>2014-04-06T12:53:08Z</time>
      </trkpt>
      <trkpt lat="41.625804031" lon="2.518986562">
        <ele>375.53</ele>
        <time>2014-04-06T12:53:15Z</time>
      </trkpt>
      <trkpt lat="41.625824316" lon="2.519021180">
        <ele>376.01</ele>
        <time>2014-04-06T12:53:17Z</time>
      </trkpt>
      <trkpt lat="41.625851305" lon="2.519059066">
        <ele>376.49</ele>
        <time>2014-04-06T12:53:20Z</time>
      </trkpt>
      <trkpt lat="41.625880307" lon="2.519121343">
        <ele>376.49</ele>
        <time>2014-04-06T12:53:24Z</time>
      </trkpt>
      <trkpt lat="41.625920708" lon="2.519258220">
        <ele>376.97</ele>
        <time>2014-04-06T12:53:32Z</time>
      </trkpt>
      <trkpt lat="41.625857927" lon="2.519449160">
        <ele>377.45</ele>
        <time>2014-04-06T12:53:41Z</time>
      </trkpt>
      <trkpt lat="41.625731612" lon="2.519634064">
        <ele>377.45</ele>
        <time>2014-04-06T12:53:50Z</time>
      </trkpt>
      <trkpt lat="41.625599429" lon="2.519714195">
        <ele>377.45</ele>
        <time>2014-04-06T12:53:57Z</time>
      </trkpt>
      <trkpt lat="41.625413351" lon="2.519866243">
        <ele>377.45</ele>
        <time>2014-04-06T12:54:06Z</time>
      </trkpt>
      <trkpt lat="41.625378901" lon="2.519931035">
        <ele>377.45</ele>
        <time>2014-04-06T12:54:09Z</time>
      </trkpt>
      <trkpt lat="41.625433216" lon="2.520198753">
        <ele>377.45</ele>
        <time>2014-04-06T12:54:17Z</time>
      </trkpt>
      <trkpt lat="41.625456518" lon="2.520296989">
        <ele>377.45</ele>
        <time>2014-04-06T12:54:19Z</time>
      </trkpt>
      <trkpt lat="41.625466827" lon="2.520452976">
        <ele>376.01</ele>
        <time>2014-04-06T12:54:22Z</time>
      </trkpt>
      <trkpt lat="41.625471438" lon="2.520500837">
        <ele>375.53</ele>
        <time>2014-04-06T12:54:23Z</time>
      </trkpt>
      <trkpt lat="41.625530949" lon="2.520768136">
        <ele>372.65</ele>
        <time>2014-04-06T12:54:29Z</time>
      </trkpt>
      <trkpt lat="41.625532039" lon="2.520783223">
        <ele>372.17</ele>
        <time>2014-04-06T12:54:36Z</time>
      </trkpt>
      <trkpt lat="41.625526758" lon="2.520774674">
        <ele>372.17</ele>
        <time>2014-04-06T12:54:44Z</time>
      </trkpt>
      <trkpt lat="41.625527177" lon="2.520773249">
        <ele>372.17</ele>
        <time>2014-04-06T12:54:55Z</time>
      </trkpt>
      <trkpt lat="41.625522819" lon="2.520777691">
        <ele>372.17</ele>
        <time>2014-04-06T12:55:05Z</time>
      </trkpt>
      <trkpt lat="41.625525417" lon="2.520793030">
        <ele>372.17</ele>
        <time>2014-04-06T12:55:16Z</time>
      </trkpt>
      <trkpt lat="41.625547629" lon="2.520790013">
        <ele>372.17</ele>
        <time>2014-04-06T12:55:25Z</time>
      </trkpt>
      <trkpt lat="41.625546707" lon="2.520792192">
        <ele>372.17</ele>
        <time>2014-04-06T12:55:33Z</time>
      </trkpt>
      <trkpt lat="41.625544863" lon="2.520787498">
        <ele>372.17</ele>
        <time>2014-04-06T12:55:43Z</time>
      </trkpt>
      <trkpt lat="41.625536565" lon="2.520780625">
        <ele>372.17</ele>
        <time>2014-04-06T12:55:58Z</time>
      </trkpt>
      <trkpt lat="41.625553664" lon="2.520809459">
        <ele>372.17</ele>
        <time>2014-04-06T12:56:06Z</time>
      </trkpt>
      <trkpt lat="41.625587695" lon="2.520970978">
        <ele>372.17</ele>
        <time>2014-04-06T12:56:13Z</time>
      </trkpt>
      <trkpt lat="41.625510665" lon="2.521113386">
        <ele>371.69</ele>
        <time>2014-04-06T12:56:19Z</time>
      </trkpt>
      <trkpt lat="41.625491135" lon="2.521133252">
        <ele>371.21</ele>
        <time>2014-04-06T12:56:20Z</time>
      </trkpt>
      <trkpt lat="41.625420140" lon="2.521156386">
        <ele>370.73</ele>
        <time>2014-04-06T12:56:23Z</time>
      </trkpt>
      <trkpt lat="41.625288880" lon="2.521259567">
        <ele>369.28</ele>
        <time>2014-04-06T12:56:29Z</time>
      </trkpt>
      <trkpt lat="41.625194499" lon="2.521292256">
        <ele>367.84</ele>
        <time>2014-04-06T12:56:34Z</time>
      </trkpt>
      <trkpt lat="41.625115793" lon="2.521296196">
        <ele>366.88</ele>
        <time>2014-04-06T12:56:37Z</time>
      </trkpt>
      <trkpt lat="41.624920495" lon="2.521354366">
        <ele>363.52</ele>
        <time>2014-04-06T12:56:44Z</time>
      </trkpt>
      <trkpt lat="41.624750426" lon="2.521359647">
        <ele>360.63</ele>
        <time>2014-04-06T12:56:50Z</time>
      </trkpt>
      <trkpt lat="41.624673732" lon="2.521320420">
        <ele>359.19</ele>
        <time>2014-04-06T12:56:53Z</time>
      </trkpt>
      <trkpt lat="41.624592176" lon="2.521274570">
        <ele>357.75</ele>
        <time>2014-04-06T12:56:55Z</time>
      </trkpt>
      <trkpt lat="41.624489330" lon="2.521231823">
        <ele>356.79</ele>
        <time>2014-04-06T12:56:57Z</time>
      </trkpt>
      <trkpt lat="41.624292774" lon="2.521249760">
        <ele>352.94</ele>
        <time>2014-04-06T12:57:02Z</time>
      </trkpt>
      <trkpt lat="41.624222869" lon="2.521294184">
        <ele>351.98</ele>
        <time>2014-04-06T12:57:04Z</time>
      </trkpt>
      <trkpt lat="41.624079622" lon="2.521368532">
        <ele>349.58</ele>
        <time>2014-04-06T12:57:08Z</time>
      </trkpt>
      <trkpt lat="41.623983147" lon="2.521502307">
        <ele>348.13</ele>
        <time>2014-04-06T12:57:11Z</time>
      </trkpt>
      <trkpt lat="41.623919277" lon="2.521735575">
        <ele>345.25</ele>
        <time>2014-04-06T12:57:15Z</time>
      </trkpt>
      <trkpt lat="41.623898657" lon="2.521782430">
        <ele>345.25</ele>
        <time>2014-04-06T12:57:16Z</time>
      </trkpt>
      <trkpt lat="41.623868566" lon="2.521830039">
        <ele>344.29</ele>
        <time>2014-04-06T12:57:17Z</time>
      </trkpt>
      <trkpt lat="41.623661114" lon="2.522103457">
        <ele>339.96</ele>
        <time>2014-04-06T12:57:24Z</time>
      </trkpt>
      <trkpt lat="41.623649463" lon="2.522143941">
        <ele>339.96</ele>
        <time>2014-04-06T12:57:25Z</time>
      </trkpt>
      <trkpt lat="41.623644183" lon="2.522189120">
        <ele>339.96</ele>
        <time>2014-04-06T12:57:26Z</time>
      </trkpt>
      <trkpt lat="41.623611493" lon="2.522242680">
        <ele>339.48</ele>
        <time>2014-04-06T12:57:29Z</time>
      </trkpt>
      <trkpt lat="41.623552820" lon="2.522296408">
        <ele>337.56</ele>
        <time>2014-04-06T12:57:33Z</time>
      </trkpt>
      <trkpt lat="41.623499930" lon="2.522333205">
        <ele>335.64</ele>
        <time>2014-04-06T12:57:36Z</time>
      </trkpt>
      <trkpt lat="41.623353750" lon="2.522440158">
        <ele>331.79</ele>
        <time>2014-04-06T12:57:42Z</time>
      </trkpt>
      <trkpt lat="41.623290215" lon="2.522492629">
        <ele>330.83</ele>
        <time>2014-04-06T12:57:44Z</time>
      </trkpt>
      <trkpt lat="41.623257777" lon="2.522510566">
        <ele>330.83</ele>
        <time>2014-04-06T12:57:45Z</time>
      </trkpt>
      <trkpt lat="41.623092570" lon="2.522456922">
        <ele>328.91</ele>
        <time>2014-04-06T12:57:50Z</time>
      </trkpt>
      <trkpt lat="41.622835580" lon="2.522418700">
        <ele>328.43</ele>
        <time>2014-04-06T12:57:55Z</time>
      </trkpt>
      <trkpt lat="41.622606671" lon="2.522372097">
        <ele>328.91</ele>
        <time>2014-04-06T12:58:01Z</time>
      </trkpt>
      <trkpt lat="41.622443643" lon="2.522351058">
        <ele>328.43</ele>
        <time>2014-04-06T12:58:06Z</time>
      </trkpt>
      <trkpt lat="41.622257732" lon="2.522402775">
        <ele>325.06</ele>
        <time>2014-04-06T12:58:13Z</time>
      </trkpt>
      <trkpt lat="41.622099817" lon="2.522391962">
        <ele>320.74</ele>
        <time>2014-04-06T12:58:19Z</time>
      </trkpt>
      <trkpt lat="41.621981297" lon="2.522300599">
        <ele>317.37</ele>
        <time>2014-04-06T12:58:24Z</time>
      </trkpt>
      <trkpt lat="41.621941650" lon="2.522292553">
        <ele>317.85</ele>
        <time>2014-04-06T12:58:30Z</time>
      </trkpt>
      <trkpt lat="41.621925390" lon="2.522282327">
        <ele>317.85</ele>
        <time>2014-04-06T12:58:47Z</time>
      </trkpt>
      <trkpt lat="41.621925390" lon="2.522293558">
        <ele>317.85</ele>
        <time>2014-04-06T12:59:04Z</time>
      </trkpt>
      <trkpt lat="41.621910386" lon="2.522246201">
        <ele>317.37</ele>
        <time>2014-04-06T12:59:10Z</time>
      </trkpt>
      <trkpt lat="41.621834194" lon="2.522028020">
        <ele>315.93</ele>
        <time>2014-04-06T12:59:15Z</time>
      </trkpt>
      <trkpt lat="41.621762697" lon="2.521829788">
        <ele>313.05</ele>
        <time>2014-04-06T12:59:19Z</time>
      </trkpt>
      <trkpt lat="41.621586090" lon="2.521528794">
        <ele>310.16</ele>
        <time>2014-04-06T12:59:25Z</time>
      </trkpt>
      <trkpt lat="41.621556921" lon="2.521471713">
        <ele>310.16</ele>
        <time>2014-04-06T12:59:26Z</time>
      </trkpt>
      <trkpt lat="41.621403951" lon="2.521235092">
        <ele>307.28</ele>
        <time>2014-04-06T12:59:30Z</time>
      </trkpt>
      <trkpt lat="41.621224579" lon="2.521133922">
        <ele>303.43</ele>
        <time>2014-04-06T12:59:34Z</time>
      </trkpt>
      <trkpt lat="41.621140257" lon="2.521128474">
        <ele>302.47</ele>
        <time>2014-04-06T12:59:36Z</time>
      </trkpt>
      <trkpt lat="41.621106729" lon="2.521083715">
        <ele>301.51</ele>
        <time>2014-04-06T12:59:38Z</time>
      </trkpt>
      <trkpt lat="41.621219885" lon="2.521008864">
        <ele>300.55</ele>
        <time>2014-04-06T12:59:42Z</time>
      </trkpt>
      <trkpt lat="41.621366736" lon="2.520969888">
        <ele>299.11</ele>
        <time>2014-04-06T12:59:45Z</time>
      </trkpt>
      <trkpt lat="41.621568153" lon="2.521009535">
        <ele>298.63</ele>
        <time>2014-04-06T12:59:49Z</time>
      </trkpt>
      <trkpt lat="41.621715507" lon="2.521032501">
        <ele>297.18</ele>
        <time>2014-04-06T12:59:52Z</time>
      </trkpt>
      <trkpt lat="41.621861855" lon="2.520916412">
        <ele>296.70</ele>
        <time>2014-04-06T12:59:56Z</time>
      </trkpt>
      <trkpt lat="41.622013316" lon="2.520804513">
        <ele>294.78</ele>
        <time>2014-04-06T13:00:00Z</time>
      </trkpt>
      <trkpt lat="41.622048184" lon="2.520785570">
        <ele>294.30</ele>
        <time>2014-04-06T13:00:01Z</time>
      </trkpt>
      <trkpt lat="41.622326212" lon="2.520562779">
        <ele>290.46</ele>
        <time>2014-04-06T13:00:07Z</time>
      </trkpt>
      <trkpt lat="41.622428304" lon="2.520509889">
        <ele>289.01</ele>
        <time>2014-04-06T13:00:10Z</time>
      </trkpt>
      <trkpt lat="41.622500304" lon="2.520414000">
        <ele>287.09</ele>
        <time>2014-04-06T13:00:13Z</time>
      </trkpt>
      <trkpt lat="41.622420676" lon="2.520349711">
        <ele>286.13</ele>
        <time>2014-04-06T13:00:16Z</time>
      </trkpt>
      <trkpt lat="41.622376923" lon="2.520359434">
        <ele>286.13</ele>
        <time>2014-04-06T13:00:17Z</time>
      </trkpt>
      <trkpt lat="41.622154718" lon="2.520440571">
        <ele>281.80</ele>
        <time>2014-04-06T13:00:22Z</time>
      </trkpt>
      <trkpt lat="41.622090597" lon="2.520459933">
        <ele>280.84</ele>
        <time>2014-04-06T13:00:24Z</time>
      </trkpt>
      <trkpt lat="41.621869147" lon="2.520422382">
        <ele>277.00</ele>
        <time>2014-04-06T13:00:29Z</time>
      </trkpt>
      <trkpt lat="41.621702096" lon="2.520391788">
        <ele>274.59</ele>
        <time>2014-04-06T13:00:32Z</time>
      </trkpt>
      <trkpt lat="41.621433707" lon="2.520315262">
        <ele>270.75</ele>
        <time>2014-04-06T13:00:36Z</time>
      </trkpt>
      <trkpt lat="41.621125840" lon="2.520279303">
        <ele>266.90</ele>
        <time>2014-04-06T13:00:40Z</time>
      </trkpt>
      <trkpt lat="41.620994244" lon="2.520250721">
        <ele>265.94</ele>
        <time>2014-04-06T13:00:42Z</time>
      </trkpt>
      <trkpt lat="41.620711271" lon="2.520205375">
        <ele>262.58</ele>
        <time>2014-04-06T13:00:46Z</time>
      </trkpt>
      <trkpt lat="41.620431567" lon="2.520165393">
        <ele>258.25</ele>
        <time>2014-04-06T13:00:50Z</time>
      </trkpt>
      <trkpt lat="41.620248841" lon="2.520132117">
        <ele>256.81</ele>
        <time>2014-04-06T13:00:53Z</time>
      </trkpt>
      <trkpt lat="41.620045915" lon="2.520173440">
        <ele>255.37</ele>
        <time>2014-04-06T13:00:56Z</time>
      </trkpt>
      <trkpt lat="41.619989673" lon="2.520203363">
        <ele>252.96</ele>
        <time>2014-04-06T13:00:57Z</time>
      </trkpt>
      <trkpt lat="41.619712483" lon="2.520339150">
        <ele>248.16</ele>
        <time>2014-04-06T13:01:02Z</time>
      </trkpt>
      <trkpt lat="41.619561609" lon="2.520366894">
        <ele>245.27</ele>
        <time>2014-04-06T13:01:06Z</time>
      </trkpt>
      <trkpt lat="41.619411992" lon="2.520313334">
        <ele>243.35</ele>
        <time>2014-04-06T13:01:10Z</time>
      </trkpt>
      <trkpt lat="41.619309565" lon="2.520304700">
        <ele>242.39</ele>
        <time>2014-04-06T13:01:12Z</time>
      </trkpt>
      <trkpt lat="41.619073782" lon="2.520430010">
        <ele>239.51</ele>
        <time>2014-04-06T13:01:16Z</time>
      </trkpt>
      <trkpt lat="41.618939923" lon="2.520508381">
        <ele>237.58</ele>
        <time>2014-04-06T13:01:18Z</time>
      </trkpt>
      <trkpt lat="41.618629458" lon="2.520584069">
        <ele>234.22</ele>
        <time>2014-04-06T13:01:22Z</time>
      </trkpt>
      <trkpt lat="41.618384957" lon="2.520738296">
        <ele>231.33</ele>
        <time>2014-04-06T13:01:26Z</time>
      </trkpt>
      <trkpt lat="41.618352436" lon="2.520826474">
        <ele>230.37</ele>
        <time>2014-04-06T13:01:27Z</time>
      </trkpt>
      <trkpt lat="41.618292673" lon="2.521019509">
        <ele>227.49</ele>
        <time>2014-04-06T13:01:29Z</time>
      </trkpt>
      <trkpt lat="41.618115647" lon="2.521374483">
        <ele>223.16</ele>
        <time>2014-04-06T13:01:33Z</time>
      </trkpt>
      <trkpt lat="41.618036522" lon="2.521561148">
        <ele>219.80</ele>
        <time>2014-04-06T13:01:36Z</time>
      </trkpt>
      <trkpt lat="41.617985560" lon="2.521635579">
        <ele>217.88</ele>
        <time>2014-04-06T13:01:39Z</time>
      </trkpt>
      <trkpt lat="41.617920349" lon="2.521579504">
        <ele>216.91</ele>
        <time>2014-04-06T13:01:42Z</time>
      </trkpt>
      <trkpt lat="41.617804846" lon="2.521144232">
        <ele>214.51</ele>
        <time>2014-04-06T13:01:48Z</time>
      </trkpt>
      <trkpt lat="41.617743155" lon="2.520923369">
        <ele>213.55</ele>
        <time>2014-04-06T13:01:51Z</time>
      </trkpt>
      <trkpt lat="41.617704012" lon="2.520570407">
        <ele>212.11</ele>
        <time>2014-04-06T13:01:56Z</time>
      </trkpt>
      <trkpt lat="41.617731253" lon="2.520385334">
        <ele>211.15</ele>
        <time>2014-04-06T13:02:00Z</time>
      </trkpt>
      <trkpt lat="41.617791435" lon="2.520132955">
        <ele>209.22</ele>
        <time>2014-04-06T13:02:05Z</time>
      </trkpt>
      <trkpt lat="41.617838876" lon="2.520093477">
        <ele>208.26</ele>
        <time>2014-04-06T13:02:06Z</time>
      </trkpt>
      <trkpt lat="41.617916074" lon="2.520032624">
        <ele>206.82</ele>
        <time>2014-04-06T13:02:08Z</time>
      </trkpt>
      <trkpt lat="41.617946416" lon="2.519956516">
        <ele>206.34</ele>
        <time>2014-04-06T13:02:10Z</time>
      </trkpt>
      <trkpt lat="41.617901070" lon="2.519774713">
        <ele>204.90</ele>
        <time>2014-04-06T13:02:14Z</time>
      </trkpt>
      <trkpt lat="41.617866537" lon="2.519672705">
        <ele>204.42</ele>
        <time>2014-04-06T13:02:18Z</time>
      </trkpt>
      <trkpt lat="41.617868548" lon="2.519643787">
        <ele>203.46</ele>
        <time>2014-04-06T13:02:20Z</time>
      </trkpt>
      <trkpt lat="41.617815826" lon="2.519638674">
        <ele>202.98</ele>
        <time>2014-04-06T13:02:24Z</time>
      </trkpt>
      <trkpt lat="41.617572751" lon="2.519658623">
        <ele>201.53</ele>
        <time>2014-04-06T13:02:32Z</time>
      </trkpt>
      <trkpt lat="41.617251976" lon="2.519688547">
        <ele>200.57</ele>
        <time>2014-04-06T13:02:39Z</time>
      </trkpt>
      <trkpt lat="41.617086768" lon="2.519699108">
        <ele>200.09</ele>
        <time>2014-04-06T13:02:42Z</time>
      </trkpt>
      <trkpt lat="41.616639678" lon="2.519823244">
        <ele>197.21</ele>
        <time>2014-04-06T13:02:51Z</time>
      </trkpt>
      <trkpt lat="41.616557451" lon="2.519870602">
        <ele>195.77</ele>
        <time>2014-04-06T13:02:55Z</time>
      </trkpt>
      <trkpt lat="41.616467765" lon="2.519921983">
        <ele>195.28</ele>
        <time>2014-04-06T13:03:02Z</time>
      </trkpt>
      <trkpt lat="41.616428789" lon="2.519947380">
        <ele>195.77</ele>
        <time>2014-04-06T13:03:10Z</time>
      </trkpt>
      <trkpt lat="41.616413199" lon="2.519985350">
        <ele>195.77</ele>
        <time>2014-04-06T13:03:20Z</time>
      </trkpt>
      <trkpt lat="41.616375815" lon="2.520036647">
        <ele>197.21</ele>
        <time>2014-04-06T13:03:25Z</time>
      </trkpt>
      <trkpt lat="41.616365925" lon="2.520047208">
        <ele>197.21</ele>
        <time>2014-04-06T13:03:26Z</time>
      </trkpt>
      <trkpt lat="41.616343964" lon="2.520066906">
        <ele>197.21</ele>
        <time>2014-04-06T13:03:28Z</time>
      </trkpt>
      <trkpt lat="41.616241789" lon="2.520256924">
        <ele>197.69</ele>
        <time>2014-04-06T13:03:35Z</time>
      </trkpt>
      <trkpt lat="41.616107427" lon="2.520572838">
        <ele>197.69</ele>
        <time>2014-04-06T13:03:42Z</time>
      </trkpt>
      <trkpt lat="41.616078174" lon="2.520673672">
        <ele>196.25</ele>
        <time>2014-04-06T13:03:44Z</time>
      </trkpt>
      <trkpt lat="41.616020255" lon="2.520973241">
        <ele>195.28</ele>
        <time>2014-04-06T13:03:50Z</time>
      </trkpt>
      <trkpt lat="41.615977172" lon="2.521201564">
        <ele>195.28</ele>
        <time>2014-04-06T13:03:54Z</time>
      </trkpt>
      <trkpt lat="41.615941884" lon="2.521442711">
        <ele>194.80</ele>
        <time>2014-04-06T13:03:58Z</time>
      </trkpt>
      <trkpt lat="41.615883881" lon="2.522009496">
        <ele>193.36</ele>
        <time>2014-04-06T13:04:07Z</time>
      </trkpt>
      <trkpt lat="41.615817329" lon="2.522597486">
        <ele>191.92</ele>
        <time>2014-04-06T13:04:14Z</time>
      </trkpt>
      <trkpt lat="41.615718087" lon="2.523378261">
        <ele>189.04</ele>
        <time>2014-04-06T13:04:22Z</time>
      </trkpt>
      <trkpt lat="41.615708281" lon="2.523480855">
        <ele>189.04</ele>
        <time>2014-04-06T13:04:23Z</time>
      </trkpt>
      <trkpt lat="41.615650697" lon="2.524104720">
        <ele>186.63</ele>
        <time>2014-04-06T13:04:29Z</time>
      </trkpt>
      <trkpt lat="41.615554556" lon="2.525052797">
        <ele>183.27</ele>
        <time>2014-04-06T13:04:37Z</time>
      </trkpt>
      <trkpt lat="41.615542570" lon="2.525979752">
        <ele>180.87</ele>
        <time>2014-04-06T13:04:45Z</time>
      </trkpt>
      <trkpt lat="41.615589593" lon="2.526541675">
        <ele>178.94</ele>
        <time>2014-04-06T13:04:50Z</time>
      </trkpt>
      <trkpt lat="41.615549276" lon="2.527238881">
        <ele>177.02</ele>
        <time>2014-04-06T13:04:56Z</time>
      </trkpt>
      <trkpt lat="41.615399575" lon="2.528023176">
        <ele>173.66</ele>
        <time>2014-04-06T13:05:03Z</time>
      </trkpt>
      <trkpt lat="41.615218945" lon="2.528944515">
        <ele>170.77</ele>
        <time>2014-04-06T13:05:12Z</time>
      </trkpt>
      <trkpt lat="41.615205199" lon="2.529039398">
        <ele>170.29</ele>
        <time>2014-04-06T13:05:13Z</time>
      </trkpt>
      <trkpt lat="41.615182651" lon="2.529718332">
        <ele>168.85</ele>
        <time>2014-04-06T13:05:20Z</time>
      </trkpt>
      <trkpt lat="41.615179131" lon="2.530490389">
        <ele>165.96</ele>
        <time>2014-04-06T13:05:28Z</time>
      </trkpt>
      <trkpt lat="41.615133533" lon="2.531080727">
        <ele>165.00</ele>
        <time>2014-04-06T13:05:34Z</time>
      </trkpt>
      <trkpt lat="41.615127498" lon="2.531267559">
        <ele>164.04</ele>
        <time>2014-04-06T13:05:36Z</time>
      </trkpt>
      <trkpt lat="41.615221040" lon="2.531724960">
        <ele>161.64</ele>
        <time>2014-04-06T13:05:41Z</time>
      </trkpt>
      <trkpt lat="41.615230009" lon="2.531831829">
        <ele>161.16</ele>
        <time>2014-04-06T13:05:42Z</time>
      </trkpt>
      <trkpt lat="41.615140323" lon="2.532455694">
        <ele>160.20</ele>
        <time>2014-04-06T13:05:48Z</time>
      </trkpt>
      <trkpt lat="41.614987102" lon="2.532969672">
        <ele>158.27</ele>
        <time>2014-04-06T13:05:54Z</time>
      </trkpt>
      <trkpt lat="41.614842178" lon="2.533481220">
        <ele>154.91</ele>
        <time>2014-04-06T13:06:00Z</time>
      </trkpt>
      <trkpt lat="41.614541855" lon="2.534467854">
        <ele>153.47</ele>
        <time>2014-04-06T13:06:11Z</time>
      </trkpt>
      <trkpt lat="41.614388550" lon="2.534900276">
        <ele>151.06</ele>
        <time>2014-04-06T13:06:16Z</time>
      </trkpt>
      <trkpt lat="41.614165675" lon="2.535567057">
        <ele>148.66</ele>
        <time>2014-04-06T13:06:24Z</time>
      </trkpt>
      <trkpt lat="41.613972975" lon="2.536109030">
        <ele>147.22</ele>
        <time>2014-04-06T13:06:32Z</time>
      </trkpt>
      <trkpt lat="41.613956295" lon="2.536199220">
        <ele>146.26</ele>
        <time>2014-04-06T13:06:35Z</time>
      </trkpt>
      <trkpt lat="41.613890413" lon="2.536327211">
        <ele>146.26</ele>
        <time>2014-04-06T13:06:43Z</time>
      </trkpt>
      <trkpt lat="41.613855628" lon="2.536443971">
        <ele>146.26</ele>
        <time>2014-04-06T13:06:48Z</time>
      </trkpt>
      <trkpt lat="41.613799637" lon="2.536562910">
        <ele>145.30</ele>
        <time>2014-04-06T13:06:55Z</time>
      </trkpt>
      <trkpt lat="41.613692936" lon="2.536769189">
        <ele>144.34</ele>
        <time>2014-04-06T13:07:02Z</time>
      </trkpt>
      <trkpt lat="41.613579193" lon="2.536900198">
        <ele>143.85</ele>
        <time>2014-04-06T13:07:07Z</time>
      </trkpt>
      <trkpt lat="41.613357492" lon="2.537191386">
        <ele>142.89</ele>
        <time>2014-04-06T13:07:16Z</time>
      </trkpt>
      <trkpt lat="41.613276690" lon="2.537390959">
        <ele>142.89</ele>
        <time>2014-04-06T13:07:22Z</time>
      </trkpt>
      <trkpt lat="41.613219610" lon="2.537500175">
        <ele>142.41</ele>
        <time>2014-04-06T13:07:27Z</time>
      </trkpt>
      <trkpt lat="41.613089355" lon="2.537662532">
        <ele>141.93</ele>
        <time>2014-04-06T13:07:35Z</time>
      </trkpt>
      <trkpt lat="41.613048367" lon="2.537723217">
        <ele>141.45</ele>
        <time>2014-04-06T13:07:42Z</time>
      </trkpt>
      <trkpt lat="41.612994304" lon="2.537789518">
        <ele>141.45</ele>
        <time>2014-04-06T13:07:50Z</time>
      </trkpt>
      <trkpt lat="41.612879472" lon="2.537894124">
        <ele>140.97</ele>
        <time>2014-04-06T13:07:57Z</time>
      </trkpt>
      <trkpt lat="41.612823565" lon="2.537952881">
        <ele>140.49</ele>
        <time>2014-04-06T13:08:04Z</time>
      </trkpt>
      <trkpt lat="41.612819877" lon="2.537960174">
        <ele>140.49</ele>
        <time>2014-04-06T13:08:05Z</time>
      </trkpt>
      <trkpt lat="41.612774866" lon="2.538018596">
        <ele>140.49</ele>
        <time>2014-04-06T13:08:09Z</time>
      </trkpt>
      <trkpt lat="41.612638576" lon="2.538180115">
        <ele>139.53</ele>
        <time>2014-04-06T13:08:19Z</time>
      </trkpt>
      <trkpt lat="41.612618962" lon="2.538215403">
        <ele>139.53</ele>
        <time>2014-04-06T13:08:23Z</time>
      </trkpt>
      <trkpt lat="41.612578897" lon="2.538243398">
        <ele>139.05</ele>
        <time>2014-04-06T13:08:26Z</time>
      </trkpt>
      <trkpt lat="41.612466831" lon="2.538297797">
        <ele>138.57</ele>
        <time>2014-04-06T13:08:32Z</time>
      </trkpt>
      <trkpt lat="41.612280334" lon="2.538510446">
        <ele>138.09</ele>
        <time>2014-04-06T13:08:40Z</time>
      </trkpt>
      <trkpt lat="41.612143038" lon="2.538828204">
        <ele>137.13</ele>
        <time>2014-04-06T13:08:47Z</time>
      </trkpt>
      <trkpt lat="41.612018399" lon="2.538994836">
        <ele>136.16</ele>
        <time>2014-04-06T13:08:53Z</time>
      </trkpt>
      <trkpt lat="41.611975484" lon="2.539045882">
        <ele>135.68</ele>
        <time>2014-04-06T13:08:59Z</time>
      </trkpt>
      <trkpt lat="41.611964420" lon="2.539058203">
        <ele>135.68</ele>
        <time>2014-04-06T13:09:01Z</time>
      </trkpt>
      <trkpt lat="41.611895437" lon="2.538969606">
        <ele>135.68</ele>
        <time>2014-04-06T13:09:07Z</time>
      </trkpt>
      <trkpt lat="41.611874482" lon="2.538924595">
        <ele>135.68</ele>
        <time>2014-04-06T13:09:09Z</time>
      </trkpt>
      <trkpt lat="41.611813881" lon="2.538810434">
        <ele>137.13</ele>
        <time>2014-04-06T13:09:15Z</time>
      </trkpt>
      <trkpt lat="41.611801727" lon="2.538792329">
        <ele>137.13</ele>
        <time>2014-04-06T13:09:16Z</time>
      </trkpt>
      <trkpt lat="41.611727296" lon="2.538756371">
        <ele>138.57</ele>
        <time>2014-04-06T13:09:22Z</time>
      </trkpt>
      <trkpt lat="41.611620091" lon="2.538761987">
        <ele>138.57</ele>
        <time>2014-04-06T13:09:25Z</time>
      </trkpt>
      <trkpt lat="41.611364778" lon="2.538760813">
        <ele>137.13</ele>
        <time>2014-04-06T13:09:30Z</time>
      </trkpt>
      <trkpt lat="41.611182220" lon="2.538779840">
        <ele>136.16</ele>
        <time>2014-04-06T13:09:33Z</time>
      </trkpt>
      <trkpt lat="41.610890111" lon="2.538918058">
        <ele>135.20</ele>
        <time>2014-04-06T13:09:38Z</time>
      </trkpt>
      <trkpt lat="41.610474117" lon="2.539150907">
        <ele>132.80</ele>
        <time>2014-04-06T13:09:46Z</time>
      </trkpt>
      <trkpt lat="41.610108750" lon="2.539383756">
        <ele>131.36</ele>
        <time>2014-04-06T13:09:53Z</time>
      </trkpt>
      <trkpt lat="41.609965000" lon="2.539466988">
        <ele>129.92</ele>
        <time>2014-04-06T13:09:56Z</time>
      </trkpt>
      <trkpt lat="41.609673059" lon="2.539663209">
        <ele>127.99</ele>
        <time>2014-04-06T13:10:04Z</time>
      </trkpt>
      <trkpt lat="41.609535344" lon="2.539736048">
        <ele>127.51</ele>
        <time>2014-04-06T13:10:10Z</time>
      </trkpt>
      <trkpt lat="41.609518832" lon="2.539742418">
        <ele>127.51</ele>
        <time>2014-04-06T13:10:15Z</time>
      </trkpt>
      <trkpt lat="41.609462673" lon="2.539769743">
        <ele>127.03</ele>
        <time>2014-04-06T13:10:23Z</time>
      </trkpt>
      <trkpt lat="41.609420344" lon="2.539805114">
        <ele>126.55</ele>
        <time>2014-04-06T13:10:32Z</time>
      </trkpt>
      <trkpt lat="41.609400647" lon="2.539820034">
        <ele>126.55</ele>
        <time>2014-04-06T13:10:39Z</time>
      </trkpt>
      <trkpt lat="41.609380698" lon="2.539829590">
        <ele>126.55</ele>
        <time>2014-04-06T13:10:49Z</time>
      </trkpt>
      <trkpt lat="41.609362174" lon="2.539857082">
        <ele>126.55</ele>
        <time>2014-04-06T13:11:00Z</time>
      </trkpt>
      <trkpt lat="41.609356893" lon="2.539858256">
        <ele>126.07</ele>
        <time>2014-04-06T13:11:01Z</time>
      </trkpt>
      <trkpt lat="41.609335687" lon="2.539861776">
        <ele>126.07</ele>
        <time>2014-04-06T13:11:03Z</time>
      </trkpt>
      <trkpt lat="41.609258322" lon="2.539955989">
        <ele>125.59</ele>
        <time>2014-04-06T13:11:13Z</time>
      </trkpt>
      <trkpt lat="41.609248599" lon="2.539969064">
        <ele>125.59</ele>
        <time>2014-04-06T13:11:20Z</time>
      </trkpt>
      <trkpt lat="41.609251784" lon="2.539969316">
        <ele>125.59</ele>
        <time>2014-04-06T13:11:31Z</time>
      </trkpt>
      <trkpt lat="41.609246755" lon="2.539961772">
        <ele>125.11</ele>
        <time>2014-04-06T13:11:49Z</time>
      </trkpt>
      <trkpt lat="41.609237954" lon="2.539961605">
        <ele>125.11</ele>
        <time>2014-04-06T13:12:01Z</time>
      </trkpt>
      <trkpt lat="41.609243235" lon="2.539952468">
        <ele>125.11</ele>
        <time>2014-04-06T13:12:18Z</time>
      </trkpt>
      <trkpt lat="41.609245666" lon="2.539955905">
        <ele>125.11</ele>
        <time>2014-04-06T13:12:36Z</time>
      </trkpt>
      <trkpt lat="41.609242229" lon="2.539949870">
        <ele>125.11</ele>
        <time>2014-04-06T13:12:55Z</time>
      </trkpt>
      <trkpt lat="41.609235272" lon="2.539947858">
        <ele>125.11</ele>
        <time>2014-04-06T13:13:11Z</time>
      </trkpt>
      <trkpt lat="41.609232757" lon="2.539946266">
        <ele>125.11</ele>
        <time>2014-04-06T13:13:22Z</time>
      </trkpt>
      <trkpt lat="41.609228734" lon="2.539954145">
        <ele>125.11</ele>
        <time>2014-04-06T13:13:42Z</time>
      </trkpt>
      <trkpt lat="41.609219430" lon="2.539943751">
        <ele>125.11</ele>
        <time>2014-04-06T13:14:00Z</time>
      </trkpt>
      <trkpt lat="41.609228315" lon="2.539942075">
        <ele>125.11</ele>
        <time>2014-04-06T13:14:17Z</time>
      </trkpt>
      <trkpt lat="41.609225130" lon="2.539940147">
        <ele>125.11</ele>
        <time>2014-04-06T13:14:34Z</time>
      </trkpt>
      <trkpt lat="41.609217586" lon="2.539937716">
        <ele>125.11</ele>
        <time>2014-04-06T13:14:46Z</time>
      </trkpt>
      <trkpt lat="41.609211719" lon="2.539948780">
        <ele>125.11</ele>
        <time>2014-04-06T13:15:04Z</time>
      </trkpt>
      <trkpt lat="41.609220017" lon="2.539945595">
        <ele>125.11</ele>
        <time>2014-04-06T13:15:23Z</time>
      </trkpt>
      <trkpt lat="41.609220268" lon="2.539948026">
        <ele>125.11</ele>
        <time>2014-04-06T13:15:42Z</time>
      </trkpt>
      <trkpt lat="41.609219682" lon="2.539946769">
        <ele>124.63</ele>
        <time>2014-04-06T13:15:58Z</time>
      </trkpt>
      <trkpt lat="41.609233009" lon="2.539950960">
        <ele>124.63</ele>
        <time>2014-04-06T13:16:16Z</time>
      </trkpt>
      <trkpt lat="41.609225130" lon="2.539975099">
        <ele>124.63</ele>
        <time>2014-04-06T13:16:30Z</time>
      </trkpt>
      <trkpt lat="41.609213898" lon="2.539996557">
        <ele>124.63</ele>
        <time>2014-04-06T13:16:39Z</time>
      </trkpt>
      <trkpt lat="41.609190680" lon="2.540007705">
        <ele>124.63</ele>
        <time>2014-04-06T13:16:48Z</time>
      </trkpt>
      <trkpt lat="41.609170228" lon="2.540054895">
        <ele>124.63</ele>
        <time>2014-04-06T13:16:54Z</time>
      </trkpt>
      <trkpt lat="41.609159500" lon="2.540173667">
        <ele>124.15</ele>
        <time>2014-04-06T13:17:05Z</time>
      </trkpt>
      <trkpt lat="41.609132258" lon="2.540235525">
        <ele>124.15</ele>
        <time>2014-04-06T13:17:12Z</time>
      </trkpt>
      <trkpt lat="41.609075597" lon="2.540298138">
        <ele>123.67</ele>
        <time>2014-04-06T13:17:21Z</time>
      </trkpt>
      <trkpt lat="41.609052714" lon="2.540316997">
        <ele>123.67</ele>
        <time>2014-04-06T13:17:28Z</time>
      </trkpt>
      <trkpt lat="41.609038800" lon="2.540316159">
        <ele>123.67</ele>
        <time>2014-04-06T13:17:34Z</time>
      </trkpt>
      <trkpt lat="41.609030167" lon="2.540315740">
        <ele>123.67</ele>
        <time>2014-04-06T13:17:35Z</time>
      </trkpt>
      <trkpt lat="41.608973757" lon="2.540339964">
        <ele>123.67</ele>
        <time>2014-04-06T13:17:44Z</time>
      </trkpt>
      <trkpt lat="41.608958418" lon="2.540341891">
        <ele>123.67</ele>
        <time>2014-04-06T13:17:55Z</time>
      </trkpt>
      <trkpt lat="41.608945090" lon="2.540364020">
        <ele>123.67</ele>
        <time>2014-04-06T13:18:04Z</time>
      </trkpt>
      <trkpt lat="41.608920867" lon="2.540418251">
        <ele>123.67</ele>
        <time>2014-04-06T13:18:13Z</time>
      </trkpt>
      <trkpt lat="41.608886250" lon="2.540466363">
        <ele>123.67</ele>
        <time>2014-04-06T13:18:20Z</time>
      </trkpt>
      <trkpt lat="41.608865379" lon="2.540468207">
        <ele>123.67</ele>
        <time>2014-04-06T13:18:31Z</time>
      </trkpt>
      <trkpt lat="41.608848866" lon="2.540459992">
        <ele>123.67</ele>
        <time>2014-04-06T13:18:34Z</time>
      </trkpt>
      <trkpt lat="41.608816177" lon="2.540325463">
        <ele>122.71</ele>
        <time>2014-04-06T13:18:39Z</time>
      </trkpt>
      <trkpt lat="41.608705368" lon="2.540317416">
        <ele>122.22</ele>
        <time>2014-04-06T13:18:43Z</time>
      </trkpt>
      <trkpt lat="41.608453073" lon="2.540366786">
        <ele>122.22</ele>
        <time>2014-04-06T13:18:51Z</time>
      </trkpt>
      <trkpt lat="41.608155348" lon="2.540404253">
        <ele>121.26</ele>
        <time>2014-04-06T13:18:59Z</time>
      </trkpt>
      <trkpt lat="41.607875308" lon="2.540430572">
        <ele>120.30</ele>
        <time>2014-04-06T13:19:07Z</time>
      </trkpt>
      <trkpt lat="41.607709095" lon="2.540495616">
        <ele>120.30</ele>
        <time>2014-04-06T13:19:13Z</time>
      </trkpt>
      <trkpt lat="41.607583115" lon="2.540735925">
        <ele>119.82</ele>
        <time>2014-04-06T13:19:20Z</time>
      </trkpt>
      <trkpt lat="41.607448669" lon="2.540836759">
        <ele>119.82</ele>
        <time>2014-04-06T13:19:26Z</time>
      </trkpt>
      <trkpt lat="41.607221352" lon="2.540788731">
        <ele>118.86</ele>
        <time>2014-04-06T13:19:32Z</time>
      </trkpt>
      <trkpt lat="41.606924717" lon="2.540666187">
        <ele>117.90</ele>
        <time>2014-04-06T13:19:40Z</time>
      </trkpt>
      <trkpt lat="41.606713157" lon="2.540584464">
        <ele>117.42</ele>
        <time>2014-04-06T13:19:45Z</time>
      </trkpt>
      <trkpt lat="41.606446194" lon="2.540472733">
        <ele>116.46</ele>
        <time>2014-04-06T13:19:51Z</time>
      </trkpt>
      <trkpt lat="41.606219547" lon="2.540348765">
        <ele>115.98</ele>
        <time>2014-04-06T13:19:56Z</time>
      </trkpt>
      <trkpt lat="41.605962306" lon="2.540336359">
        <ele>115.50</ele>
        <time>2014-04-06T13:20:02Z</time>
      </trkpt>
      <trkpt lat="41.605955433" lon="2.540423363">
        <ele>115.50</ele>
        <time>2014-04-06T13:20:07Z</time>
      </trkpt>
      <trkpt lat="41.605984267" lon="2.540494442">
        <ele>115.50</ele>
        <time>2014-04-06T13:20:13Z</time>
      </trkpt>
      <trkpt lat="41.605988123" lon="2.540554876">
        <ele>115.50</ele>
        <time>2014-04-06T13:20:16Z</time>
      </trkpt>
      <trkpt lat="41.606049897" lon="2.540617991">
        <ele>115.50</ele>
        <time>2014-04-06T13:20:20Z</time>
      </trkpt>
      <trkpt lat="41.606217284" lon="2.540683454">
        <ele>116.46</ele>
        <time>2014-04-06T13:20:29Z</time>
      </trkpt>
      <trkpt lat="41.606392130" lon="2.540722178">
        <ele>117.42</ele>
        <time>2014-04-06T13:20:38Z</time>
      </trkpt>
      <trkpt lat="41.606526995" lon="2.540843213">
        <ele>118.38</ele>
        <time>2014-04-06T13:20:46Z</time>
      </trkpt>
      <trkpt lat="41.606633026" lon="2.541023340">
        <ele>119.34</ele>
        <time>2014-04-06T13:20:54Z</time>
      </trkpt>
      <trkpt lat="41.606645180" lon="2.541076649">
        <ele>119.34</ele>
        <time>2014-04-06T13:20:56Z</time>
      </trkpt>
      <trkpt lat="41.606744003" lon="2.541324753">
        <ele>120.78</ele>
        <time>2014-04-06T13:21:06Z</time>
      </trkpt>
      <trkpt lat="41.606767472" lon="2.541373788">
        <ele>120.78</ele>
        <time>2014-04-06T13:21:08Z</time>
      </trkpt>
      <trkpt lat="41.606795551" lon="2.541471521">
        <ele>121.26</ele>
        <time>2014-04-06T13:21:12Z</time>
      </trkpt>
      <trkpt lat="41.606868474" lon="2.541735551">
        <ele>122.71</ele>
        <time>2014-04-06T13:21:23Z</time>
      </trkpt>
      <trkpt lat="41.606914742" lon="2.541929424">
        <ele>124.15</ele>
        <time>2014-04-06T13:21:31Z</time>
      </trkpt>
      <trkpt lat="41.606969811" lon="2.542108294">
        <ele>125.11</ele>
        <time>2014-04-06T13:21:39Z</time>
      </trkpt>
      <trkpt lat="41.607020438" lon="2.542280290">
        <ele>126.07</ele>
        <time>2014-04-06T13:21:47Z</time>
      </trkpt>
      <trkpt lat="41.607030915" lon="2.542325385">
        <ele>127.03</ele>
        <time>2014-04-06T13:21:49Z</time>
      </trkpt>
      <trkpt lat="41.607067628" lon="2.542365953">
        <ele>127.51</ele>
        <time>2014-04-06T13:21:55Z</time>
      </trkpt>
      <trkpt lat="41.607083135" lon="2.542358326">
        <ele>127.99</ele>
        <time>2014-04-06T13:22:03Z</time>
      </trkpt>
      <trkpt lat="41.607089086" lon="2.542314237">
        <ele>128.47</ele>
        <time>2014-04-06T13:22:15Z</time>
      </trkpt>
      <trkpt lat="41.607078022" lon="2.542301580">
        <ele>128.47</ele>
        <time>2014-04-06T13:22:31Z</time>
      </trkpt>
    </trkseg>
  </trk>
</gpx>
